﻿<?xml version="1.0" encoding="utf-8"?><gpx creator="Garmin Desktop App" version="1.1" xsi:schemaLocation="http://www.topografix.com/GPX/1/1 http://www.topografix.com/GPX/1/1/gpx.xsd http://www.garmin.com/xmlschemas/WaypointExtension/v1 http://www8.garmin.com/xmlschemas/WaypointExtensionv1.xsd http://www.garmin.com/xmlschemas/TrackPointExtension/v1 http://www.garmin.com/xmlschemas/TrackPointExtensionv1.xsd http://www.garmin.com/xmlschemas/GpxExtensions/v3 http://www8.garmin.com/xmlschemas/GpxExtensionsv3.xsd http://www.garmin.com/xmlschemas/ActivityExtension/v1 http://www8.garmin.com/xmlschemas/ActivityExtensionv1.xsd http://www.garmin.com/xmlschemas/AdventuresExtensions/v1 http://www8.garmin.com/xmlschemas/AdventuresExtensionv1.xsd http://www.garmin.com/xmlschemas/PressureExtension/v1 http://www.garmin.com/xmlschemas/PressureExtensionv1.xsd http://www.garmin.com/xmlschemas/TripExtensions/v1 http://www.garmin.com/xmlschemas/TripExtensionsv1.xsd http://www.garmin.com/xmlschemas/TripMetaDataExtensions/v1 http://www.garmin.com/xmlschemas/TripMetaDataExtensionsv1.xsd http://www.garmin.com/xmlschemas/ViaPointTransportationModeExtensions/v1 http://www.garmin.com/xmlschemas/ViaPointTransportationModeExtensionsv1.xsd http://www.garmin.com/xmlschemas/CreationTimeExtension/v1 http://www.garmin.com/xmlschemas/CreationTimeExtensionsv1.xsd http://www.garmin.com/xmlschemas/AccelerationExtension/v1 http://www.garmin.com/xmlschemas/AccelerationExtensionv1.xsd http://www.garmin.com/xmlschemas/PowerExtension/v1 http://www.garmin.com/xmlschemas/PowerExtensionv1.xsd http://www.garmin.com/xmlschemas/VideoExtension/v1 http://www.garmin.com/xmlschemas/VideoExtensionv1.xsd" xmlns="http://www.topografix.com/GPX/1/1" xmlns:xsi="http://www.w3.org/2001/XMLSchema-instance" xmlns:wptx1="http://www.garmin.com/xmlschemas/WaypointExtension/v1" xmlns:gpxtrx="http://www.garmin.com/xmlschemas/GpxExtensions/v3" xmlns:gpxtpx="http://www.garmin.com/xmlschemas/TrackPointExtension/v1" xmlns:gpxx="http://www.garmin.com/xmlschemas/GpxExtensions/v3" xmlns:trp="http://www.garmin.com/xmlschemas/TripExtensions/v1" xmlns:adv="http://www.garmin.com/xmlschemas/AdventuresExtensions/v1" xmlns:prs="http://www.garmin.com/xmlschemas/PressureExtension/v1" xmlns:tmd="http://www.garmin.com/xmlschemas/TripMetaDataExtensions/v1" xmlns:vptm="http://www.garmin.com/xmlschemas/ViaPointTransportationModeExtensions/v1" xmlns:ctx="http://www.garmin.com/xmlschemas/CreationTimeExtension/v1" xmlns:gpxacc="http://www.garmin.com/xmlschemas/AccelerationExtension/v1" xmlns:gpxpx="http://www.garmin.com/xmlschemas/PowerExtension/v1" xmlns:vidx1="http://www.garmin.com/xmlschemas/VideoExtension/v1">

  <metadata>
    <link href="http://www.garmin.com">
      <text>Garmin International</text>
    </link>
    <time>2021-01-10T11:21:34Z</time>
    <bounds maxlat="45.583018362522125" maxlon="7.974119558930397" minlat="45.572332106530666" minlon="7.95155187137425" />
  </metadata>

  <trk>
    <name>ferrata-infernone2019-10-26</name>
    <extensions>
      <gpxx:TrackExtension>
        <gpxx:DisplayColor>Yellow</gpxx:DisplayColor>
      </gpxx:TrackExtension>
      <gpxtrkx:TrackStatsExtension xmlns:gpxtrkx="http://www.garmin.com/xmlschemas/TrackStatsExtension/v1">
        <gpxtrkx:Distance>10041</gpxtrkx:Distance>
        <gpxtrkx:TotalElapsedTime>22490</gpxtrkx:TotalElapsedTime>
        <gpxtrkx:MovingTime>15567</gpxtrkx:MovingTime>
        <gpxtrkx:StoppedTime>6632</gpxtrkx:StoppedTime>
        <gpxtrkx:MovingSpeed>1</gpxtrkx:MovingSpeed>
        <gpxtrkx:MaxSpeed>8</gpxtrkx:MaxSpeed>
        <gpxtrkx:MaxElevation>753</gpxtrkx:MaxElevation>
        <gpxtrkx:MinElevation>569</gpxtrkx:MinElevation>
        <gpxtrkx:Ascent>363</gpxtrkx:Ascent>
        <gpxtrkx:Descent>349</gpxtrkx:Descent>
        <gpxtrkx:AvgAscentRate>0</gpxtrkx:AvgAscentRate>
        <gpxtrkx:MaxAscentRate>0</gpxtrkx:MaxAscentRate>
        <gpxtrkx:AvgDescentRate>0</gpxtrkx:AvgDescentRate>
        <gpxtrkx:MaxDescentRate>-0</gpxtrkx:MaxDescentRate>
      </gpxtrkx:TrackStatsExtension>
    </extensions>
    <trkseg>
      <trkpt lat="45.572332106530666" lon="7.973669115453959">
        <ele>636.72000000000003</ele>
        <time>2019-10-26T07:40:43Z</time>
      </trkpt>
      <trkpt lat="45.57233814150095" lon="7.973653525114059">
        <ele>636.72000000000003</ele>
        <time>2019-10-26T07:40:44Z</time>
      </trkpt>
      <trkpt lat="45.572356414049864" lon="7.973592504858971">
        <ele>635.00999999999999</ele>
        <time>2019-10-26T07:40:48Z</time>
      </trkpt>
      <trkpt lat="45.57243243791163" lon="7.973443306982517">
        <ele>636.63</ele>
        <time>2019-10-26T07:40:58Z</time>
      </trkpt>
      <trkpt lat="45.572528829798102" lon="7.973296875134111">
        <ele>637.74000000000001</ele>
        <time>2019-10-26T07:41:09Z</time>
      </trkpt>
      <trkpt lat="45.572540145367384" lon="7.973246667534113">
        <ele>638.42999999999995</ele>
        <time>2019-10-26T07:41:12Z</time>
      </trkpt>
      <trkpt lat="45.572634525597095" lon="7.973040975630283">
        <ele>639.65999999999997</ele>
        <time>2019-10-26T07:41:26Z</time>
      </trkpt>
      <trkpt lat="45.572679871693254" lon="7.972818855196238">
        <ele>640.50999999999999</ele>
        <time>2019-10-26T07:41:38Z</time>
      </trkpt>
      <trkpt lat="45.572814652696252" lon="7.972642667591572">
        <ele>640.98000000000002</ele>
        <time>2019-10-26T07:41:51Z</time>
      </trkpt>
      <trkpt lat="45.572995617985725" lon="7.972434544935823">
        <ele>641.67999999999995</ele>
        <time>2019-10-26T07:42:08Z</time>
      </trkpt>
      <trkpt lat="45.573093686252832" lon="7.972233798354864">
        <ele>642.50999999999999</ele>
        <time>2019-10-26T07:42:22Z</time>
      </trkpt>
      <trkpt lat="45.573290409520268" lon="7.972098346799612">
        <ele>642.39999999999998</ele>
        <time>2019-10-26T07:42:38Z</time>
      </trkpt>
      <trkpt lat="45.573440361768007" lon="7.971972450613976">
        <ele>642.62</ele>
        <time>2019-10-26T07:42:51Z</time>
      </trkpt>
      <trkpt lat="45.573449917137623" lon="7.971960213035345">
        <ele>642.54999999999995</ele>
        <time>2019-10-26T07:42:52Z</time>
      </trkpt>
      <trkpt lat="45.573527868837118" lon="7.97190623357892">
        <ele>642.60000000000002</ele>
        <time>2019-10-26T07:42:58Z</time>
      </trkpt>
      <trkpt lat="45.573724927380681" lon="7.971778409555554">
        <ele>643.03999999999996</ele>
        <time>2019-10-26T07:43:13Z</time>
      </trkpt>
      <trkpt lat="45.573897678405046" lon="7.971711354330182">
        <ele>643.27999999999997</ele>
        <time>2019-10-26T07:43:26Z</time>
      </trkpt>
      <trkpt lat="45.57406397536397" lon="7.971597025170922">
        <ele>641.35000000000002</ele>
        <time>2019-10-26T07:43:40Z</time>
      </trkpt>
      <trkpt lat="45.574164390563965" lon="7.971514966338873">
        <ele>640.05999999999995</ele>
        <time>2019-10-26T07:43:50Z</time>
      </trkpt>
      <trkpt lat="45.574274444952607" lon="7.9714376013726">
        <ele>639.08000000000004</ele>
        <time>2019-10-26T07:44:00Z</time>
      </trkpt>
      <trkpt lat="45.574297159910202" lon="7.971415892243385">
        <ele>638.74000000000001</ele>
        <time>2019-10-26T07:44:02Z</time>
      </trkpt>
      <trkpt lat="45.574334627017379" lon="7.971229143440723">
        <ele>637.54999999999995</ele>
        <time>2019-10-26T07:44:14Z</time>
      </trkpt>
      <trkpt lat="45.574298668652773" lon="7.971200225874782">
        <ele>637.42999999999995</ele>
        <time>2019-10-26T07:44:17Z</time>
      </trkpt>
      <trkpt lat="45.574149722233415" lon="7.971170637756586">
        <ele>637.67999999999995</ele>
        <time>2019-10-26T07:44:29Z</time>
      </trkpt>
      <trkpt lat="45.574002033099532" lon="7.971115401014686">
        <ele>638.88999999999999</ele>
        <time>2019-10-26T07:44:40Z</time>
      </trkpt>
      <trkpt lat="45.573886279016733" lon="7.971058236435056">
        <ele>639.69000000000005</ele>
        <time>2019-10-26T07:44:50Z</time>
      </trkpt>
      <trkpt lat="45.573822995647788" lon="7.971031749621034">
        <ele>640.19000000000005</ele>
        <time>2019-10-26T07:45:00Z</time>
      </trkpt>
      <trkpt lat="45.573671869933605" lon="7.970955139026046">
        <ele>641.39999999999998</ele>
        <time>2019-10-26T07:45:12Z</time>
      </trkpt>
      <trkpt lat="45.573478750884533" lon="7.970767552033067">
        <ele>643.50999999999999</ele>
        <time>2019-10-26T07:45:30Z</time>
      </trkpt>
      <trkpt lat="45.573358135297894" lon="7.970612235367298">
        <ele>644.67999999999995</ele>
        <time>2019-10-26T07:45:44Z</time>
      </trkpt>
      <trkpt lat="45.573279764503241" lon="7.970573930069804">
        <ele>643.66999999999996</ele>
        <time>2019-10-26T07:45:51Z</time>
      </trkpt>
      <trkpt lat="45.573214385658503" lon="7.970544928684831">
        <ele>643.13</ele>
        <time>2019-10-26T07:45:57Z</time>
      </trkpt>
      <trkpt lat="45.572989583015442" lon="7.970491452142596">
        <ele>642.10000000000002</ele>
        <time>2019-10-26T07:46:14Z</time>
      </trkpt>
      <trkpt lat="45.572783639654517" lon="7.970352983102202">
        <ele>640.66999999999996</ele>
        <time>2019-10-26T07:46:31Z</time>
      </trkpt>
      <trkpt lat="45.572879863902926" lon="7.970151230692864">
        <ele>639.10000000000002</ele>
        <time>2019-10-26T07:46:44Z</time>
      </trkpt>
      <trkpt lat="45.572976088151336" lon="7.969923159107566">
        <ele>638.19000000000005</ele>
        <time>2019-10-26T07:47:00Z</time>
      </trkpt>
      <trkpt lat="45.572987655177712" lon="7.969881081953645">
        <ele>637.92999999999995</ele>
        <time>2019-10-26T07:47:04Z</time>
      </trkpt>
      <trkpt lat="45.573037192225456" lon="7.969762980937958">
        <ele>637.07000000000005</ele>
        <time>2019-10-26T07:47:12Z</time>
      </trkpt>
      <trkpt lat="45.573042724281549" lon="7.969731045886874">
        <ele>636.98000000000002</ele>
        <time>2019-10-26T07:47:14Z</time>
      </trkpt>
      <trkpt lat="45.573054710403085" lon="7.969641527161002">
        <ele>636.16999999999996</ele>
        <time>2019-10-26T07:47:19Z</time>
      </trkpt>
      <trkpt lat="45.573080945760012" lon="7.969279009848833">
        <ele>632.87</ele>
        <time>2019-10-26T07:47:38Z</time>
      </trkpt>
      <trkpt lat="45.573107767850161" lon="7.969060158357024">
        <ele>631.39999999999998</ele>
        <time>2019-10-26T07:47:51Z</time>
      </trkpt>
      <trkpt lat="45.573140289634466" lon="7.968795290216804">
        <ele>630.04999999999995</ele>
        <time>2019-10-26T07:48:06Z</time>
      </trkpt>
      <trkpt lat="45.573210027068853" lon="7.968596136197448">
        <ele>628.63</ele>
        <time>2019-10-26T07:48:19Z</time>
      </trkpt>
      <trkpt lat="45.573274735361338" lon="7.968461187556386">
        <ele>628.24000000000001</ele>
        <time>2019-10-26T07:48:32Z</time>
      </trkpt>
      <trkpt lat="45.573296444490552" lon="7.968430174514651">
        <ele>628.39999999999998</ele>
        <time>2019-10-26T07:48:37Z</time>
      </trkpt>
      <trkpt lat="45.573406582698226" lon="7.968268152326345">
        <ele>626.96000000000004</ele>
        <time>2019-10-26T07:48:53Z</time>
      </trkpt>
      <trkpt lat="45.573524935171008" lon="7.968201767653227">
        <ele>625.27999999999997</ele>
        <time>2019-10-26T07:49:04Z</time>
      </trkpt>
      <trkpt lat="45.573630463331938" lon="7.968128845095635">
        <ele>623.75</ele>
        <time>2019-10-26T07:49:15Z</time>
      </trkpt>
      <trkpt lat="45.573664661496878" lon="7.96811786480248">
        <ele>623.19000000000005</ele>
        <time>2019-10-26T07:49:18Z</time>
      </trkpt>
      <trkpt lat="45.573779745027423" lon="7.968011917546392">
        <ele>620.73000000000002</ele>
        <time>2019-10-26T07:49:30Z</time>
      </trkpt>
      <trkpt lat="45.573885608464479" lon="7.96789800748229">
        <ele>618.09000000000003</ele>
        <time>2019-10-26T07:49:41Z</time>
      </trkpt>
      <trkpt lat="45.573958111926913" lon="7.967778733000159">
        <ele>615.64999999999998</ele>
        <time>2019-10-26T07:49:52Z</time>
      </trkpt>
      <trkpt lat="45.574031034484506" lon="7.967614950612187">
        <ele>613.45000000000005</ele>
        <time>2019-10-26T07:50:04Z</time>
      </trkpt>
      <trkpt lat="45.574046457186341" lon="7.967577986419201">
        <ele>612.72000000000003</ele>
        <time>2019-10-26T07:50:07Z</time>
      </trkpt>
      <trkpt lat="45.574076045304537" lon="7.967542698606849">
        <ele>612.12</ele>
        <time>2019-10-26T07:50:11Z</time>
      </trkpt>
      <trkpt lat="45.574123570695519" lon="7.967522498220205">
        <ele>611.28999999999996</ele>
        <time>2019-10-26T07:50:16Z</time>
      </trkpt>
      <trkpt lat="45.574249802157283" lon="7.967529287561774">
        <ele>609.34000000000003</ele>
        <time>2019-10-26T07:50:26Z</time>
      </trkpt>
      <trkpt lat="45.574261704459786" lon="7.967492071911693">
        <ele>608.42999999999995</ele>
        <time>2019-10-26T07:50:29Z</time>
      </trkpt>
      <trkpt lat="45.574170928448439" lon="7.967368271201849">
        <ele>606.14999999999998</ele>
        <time>2019-10-26T07:50:40Z</time>
      </trkpt>
      <trkpt lat="45.574159696698189" lon="7.967366091907024">
        <ele>605.98000000000002</ele>
        <time>2019-10-26T07:50:41Z</time>
      </trkpt>
      <trkpt lat="45.574045618996024" lon="7.967349914833903">
        <ele>604.39999999999998</ele>
        <time>2019-10-26T07:50:52Z</time>
      </trkpt>
      <trkpt lat="45.573938079178333" lon="7.967427866533399">
        <ele>602.30999999999995</ele>
        <time>2019-10-26T07:51:05Z</time>
      </trkpt>
      <trkpt lat="45.573849398642778" lon="7.9675158765167">
        <ele>600.35000000000002</ele>
        <time>2019-10-26T07:51:16Z</time>
      </trkpt>
      <trkpt lat="45.573737919330597" lon="7.967564072459936">
        <ele>597.63999999999999</ele>
        <time>2019-10-26T07:51:31Z</time>
      </trkpt>
      <trkpt lat="45.57376105338335" lon="7.967467848211527">
        <ele>595.55999999999995</ele>
        <time>2019-10-26T07:51:43Z</time>
      </trkpt>
      <trkpt lat="45.573793910443783" lon="7.96741277910769">
        <ele>594.55999999999995</ele>
        <time>2019-10-26T07:51:48Z</time>
      </trkpt>
      <trkpt lat="45.573859624564648" lon="7.967290235683322">
        <ele>592.55999999999995</ele>
        <time>2019-10-26T07:51:58Z</time>
      </trkpt>
      <trkpt lat="45.573933804407716" lon="7.967153778299689">
        <ele>590.19000000000005</ele>
        <time>2019-10-26T07:52:10Z</time>
      </trkpt>
      <trkpt lat="45.574011420831084" lon="7.967040203511715">
        <ele>588.29999999999995</ele>
        <time>2019-10-26T07:52:21Z</time>
      </trkpt>
      <trkpt lat="45.574031202122569" lon="7.966995276510716">
        <ele>587.74000000000001</ele>
        <time>2019-10-26T07:52:24Z</time>
      </trkpt>
      <trkpt lat="45.574132539331913" lon="7.966881282627583">
        <ele>586.16999999999996</ele>
        <time>2019-10-26T07:52:37Z</time>
      </trkpt>
      <trkpt lat="45.574152236804366" lon="7.966862842440605">
        <ele>585.73000000000002</ele>
        <time>2019-10-26T07:52:51Z</time>
      </trkpt>
      <trkpt lat="45.574198253452778" lon="7.966884048655629">
        <ele>585.26999999999998</ele>
        <time>2019-10-26T07:53:09Z</time>
      </trkpt>
      <trkpt lat="45.574214681982994" lon="7.966893436387181">
        <ele>585.27999999999997</ele>
        <time>2019-10-26T07:53:20Z</time>
      </trkpt>
      <trkpt lat="45.574199762195349" lon="7.96688606031239">
        <ele>582.91999999999996</ele>
        <time>2019-10-26T07:53:33Z</time>
      </trkpt>
      <trkpt lat="45.574177885428071" lon="7.966895531862974">
        <ele>583.50999999999999</ele>
        <time>2019-10-26T07:53:52Z</time>
      </trkpt>
      <trkpt lat="45.574178891256452" lon="7.966889832168818">
        <ele>584.69000000000005</ele>
        <time>2019-10-26T07:54:05Z</time>
      </trkpt>
      <trkpt lat="45.574197582900524" lon="7.966900058090687">
        <ele>583.44000000000005</ele>
        <time>2019-10-26T07:54:21Z</time>
      </trkpt>
      <trkpt lat="45.574247036129236" lon="7.966868709772825">
        <ele>583.48000000000002</ele>
        <time>2019-10-26T07:54:43Z</time>
      </trkpt>
      <trkpt lat="45.574229434132576" lon="7.966874409466982">
        <ele>583.84000000000003</ele>
        <time>2019-10-26T07:55:03Z</time>
      </trkpt>
      <trkpt lat="45.574227841570973" lon="7.966894023120403">
        <ele>583.95000000000005</ele>
        <time>2019-10-26T07:55:33Z</time>
      </trkpt>
      <trkpt lat="45.574233205989003" lon="7.966877426952124">
        <ele>584.46000000000004</ele>
        <time>2019-10-26T07:56:01Z</time>
      </trkpt>
      <trkpt lat="45.57420521043241" lon="7.966864015907049">
        <ele>584.60000000000002</ele>
        <time>2019-10-26T07:56:14Z</time>
      </trkpt>
      <trkpt lat="45.574168330058455" lon="7.966838115826249">
        <ele>584.44000000000005</ele>
        <time>2019-10-26T07:56:31Z</time>
      </trkpt>
      <trkpt lat="45.574176795780659" lon="7.966785728931427">
        <ele>585.38999999999999</ele>
        <time>2019-10-26T07:56:49Z</time>
      </trkpt>
      <trkpt lat="45.574210826307535" lon="7.966804588213563">
        <ele>585.25999999999999</ele>
        <time>2019-10-26T07:57:08Z</time>
      </trkpt>
      <trkpt lat="45.574221136048436" lon="7.966817580163479">
        <ele>585.05999999999995</ele>
        <time>2019-10-26T07:57:20Z</time>
      </trkpt>
      <trkpt lat="45.574224824085832" lon="7.966826464980841">
        <ele>585.11000000000001</ele>
        <time>2019-10-26T07:57:37Z</time>
      </trkpt>
      <trkpt lat="45.574239995330572" lon="7.966849179938436">
        <ele>585.27999999999997</ele>
        <time>2019-10-26T07:57:55Z</time>
      </trkpt>
      <trkpt lat="45.574248796328902" lon="7.966832080855966">
        <ele>585.07000000000005</ele>
        <time>2019-10-26T07:57:58Z</time>
      </trkpt>
      <trkpt lat="45.574267990887165" lon="7.966824034228921">
        <ele>584.90999999999997</ele>
        <time>2019-10-26T07:58:00Z</time>
      </trkpt>
      <trkpt lat="45.574281737208366" lon="7.96680299565196">
        <ele>584.89999999999998</ele>
        <time>2019-10-26T07:58:02Z</time>
      </trkpt>
      <trkpt lat="45.574297327548265" lon="7.966780783608556">
        <ele>584.94000000000005</ele>
        <time>2019-10-26T07:58:04Z</time>
      </trkpt>
      <trkpt lat="45.574326664209366" lon="7.966657821089029">
        <ele>586.11000000000001</ele>
        <time>2019-10-26T07:58:15Z</time>
      </trkpt>
      <trkpt lat="45.574398161843419" lon="7.966509712859988">
        <ele>585.88</ele>
        <time>2019-10-26T07:58:27Z</time>
      </trkpt>
      <trkpt lat="45.574439316987991" lon="7.966382140293717">
        <ele>582.87</ele>
        <time>2019-10-26T07:58:40Z</time>
      </trkpt>
      <trkpt lat="45.574502600356936" lon="7.966261692345142">
        <ele>580.96000000000004</ele>
        <time>2019-10-26T07:58:53Z</time>
      </trkpt>
      <trkpt lat="45.574518358334899" lon="7.966209221631289">
        <ele>580.42999999999995</ele>
        <time>2019-10-26T07:59:05Z</time>
      </trkpt>
      <trkpt lat="45.5745580047369" lon="7.966133030131459">
        <ele>578.73000000000002</ele>
        <time>2019-10-26T07:59:21Z</time>
      </trkpt>
      <trkpt lat="45.574548784643412" lon="7.966089528053999">
        <ele>576.51999999999998</ele>
        <time>2019-10-26T07:59:34Z</time>
      </trkpt>
      <trkpt lat="45.57454040274024" lon="7.966046277433634">
        <ele>573.48000000000002</ele>
        <time>2019-10-26T07:59:46Z</time>
      </trkpt>
      <trkpt lat="45.574532523751259" lon="7.965999590232968">
        <ele>573.75999999999999</ele>
        <time>2019-10-26T08:00:00Z</time>
      </trkpt>
      <trkpt lat="45.574535541236401" lon="7.965976456180215">
        <ele>572.77999999999997</ele>
        <time>2019-10-26T08:00:13Z</time>
      </trkpt>
      <trkpt lat="45.574536798521876" lon="7.965929182246327">
        <ele>570.77999999999997</ele>
        <time>2019-10-26T08:00:24Z</time>
      </trkpt>
      <trkpt lat="45.574535541236401" lon="7.965887440368533">
        <ele>569.62</ele>
        <time>2019-10-26T08:00:41Z</time>
      </trkpt>
      <trkpt lat="45.57452573440969" lon="7.965872939676046">
        <ele>569.41999999999996</ele>
        <time>2019-10-26T08:00:59Z</time>
      </trkpt>
      <trkpt lat="45.574521375820041" lon="7.965865479782224">
        <ele>569.49000000000001</ele>
        <time>2019-10-26T08:01:20Z</time>
      </trkpt>
      <trkpt lat="45.574530512094498" lon="7.965859360992909">
        <ele>569.70000000000005</ele>
        <time>2019-10-26T08:01:43Z</time>
      </trkpt>
      <trkpt lat="45.574535205960274" lon="7.965835724025965">
        <ele>570.09000000000003</ele>
        <time>2019-10-26T08:02:10Z</time>
      </trkpt>
      <trkpt lat="45.574537049978971" lon="7.96582818031311">
        <ele>570.40999999999997</ele>
        <time>2019-10-26T08:02:33Z</time>
      </trkpt>
      <trkpt lat="45.574514921754599" lon="7.965813260525465">
        <ele>570.83000000000004</ele>
        <time>2019-10-26T08:02:47Z</time>
      </trkpt>
      <trkpt lat="45.574511233717203" lon="7.965835137292743">
        <ele>570.65999999999997</ele>
        <time>2019-10-26T08:03:04Z</time>
      </trkpt>
      <trkpt lat="45.574506288394332" lon="7.965824324637651">
        <ele>571.62</ele>
        <time>2019-10-26T08:03:21Z</time>
      </trkpt>
      <trkpt lat="45.574532356113195" lon="7.965838992968202">
        <ele>571.88</ele>
        <time>2019-10-26T08:03:36Z</time>
      </trkpt>
      <trkpt lat="45.574540318921208" lon="7.965833963826299">
        <ele>572.61000000000001</ele>
        <time>2019-10-26T08:03:51Z</time>
      </trkpt>
      <trkpt lat="45.574558256193995" lon="7.965832706540823">
        <ele>573.35000000000002</ele>
        <time>2019-10-26T08:04:04Z</time>
      </trkpt>
      <trkpt lat="45.574587173759937" lon="7.965791299939156">
        <ele>573.77999999999997</ele>
        <time>2019-10-26T08:04:15Z</time>
      </trkpt>
      <trkpt lat="45.574619024991989" lon="7.965802615508437">
        <ele>574.10000000000002</ele>
        <time>2019-10-26T08:04:27Z</time>
      </trkpt>
      <trkpt lat="45.574657414108515" lon="7.965812841430306">
        <ele>574.77999999999997</ele>
        <time>2019-10-26T08:04:40Z</time>
      </trkpt>
      <trkpt lat="45.574753386899829" lon="7.965848464518786">
        <ele>574.80999999999995</ele>
        <time>2019-10-26T08:04:52Z</time>
      </trkpt>
      <trkpt lat="45.574806947261095" lon="7.965855337679386">
        <ele>575.26999999999998</ele>
        <time>2019-10-26T08:05:03Z</time>
      </trkpt>
      <trkpt lat="45.574815664440393" lon="7.965848799794912">
        <ele>575.33000000000004</ele>
        <time>2019-10-26T08:05:05Z</time>
      </trkpt>
      <trkpt lat="45.574843911454082" lon="7.965802447870374">
        <ele>575.14999999999998</ele>
        <time>2019-10-26T08:05:17Z</time>
      </trkpt>
      <trkpt lat="45.574849527329206" lon="7.965730279684067">
        <ele>575.00999999999999</ele>
        <time>2019-10-26T08:05:31Z</time>
      </trkpt>
      <trkpt lat="45.574850784614682" lon="7.965709073469043">
        <ele>574.97000000000003</ele>
        <time>2019-10-26T08:05:43Z</time>
      </trkpt>
      <trkpt lat="45.574881546199322" lon="7.965632379055023">
        <ele>575.27999999999997</ele>
        <time>2019-10-26T08:05:55Z</time>
      </trkpt>
      <trkpt lat="45.574897639453411" lon="7.965594325214624">
        <ele>575.35000000000002</ele>
        <time>2019-10-26T08:06:09Z</time>
      </trkpt>
      <trkpt lat="45.574953379109502" lon="7.965549062937498">
        <ele>575.37</ele>
        <time>2019-10-26T08:06:19Z</time>
      </trkpt>
      <trkpt lat="45.574994869530201" lon="7.965513523668051">
        <ele>575.39999999999998</ele>
        <time>2019-10-26T08:06:29Z</time>
      </trkpt>
      <trkpt lat="45.575004341080785" lon="7.965487372130156">
        <ele>575.11000000000001</ele>
        <time>2019-10-26T08:06:45Z</time>
      </trkpt>
      <trkpt lat="45.575023451820016" lon="7.965473122894764">
        <ele>575.25999999999999</ele>
        <time>2019-10-26T08:06:56Z</time>
      </trkpt>
      <trkpt lat="45.575039628893137" lon="7.965433727949858">
        <ele>575.07000000000005</ele>
        <time>2019-10-26T08:07:06Z</time>
      </trkpt>
      <trkpt lat="45.57506125420332" lon="7.965403804555535">
        <ele>574.67999999999995</ele>
        <time>2019-10-26T08:07:20Z</time>
      </trkpt>
      <trkpt lat="45.575071731582284" lon="7.9653400182724">
        <ele>574.85000000000002</ele>
        <time>2019-10-26T08:07:31Z</time>
      </trkpt>
      <trkpt lat="45.575098721310496" lon="7.965304059907794">
        <ele>575.39999999999998</ele>
        <time>2019-10-26T08:07:44Z</time>
      </trkpt>
      <trkpt lat="45.575106935575604" lon="7.965295678004623">
        <ele>574.89999999999998</ele>
        <time>2019-10-26T08:07:58Z</time>
      </trkpt>
      <trkpt lat="45.57513409294188" lon="7.965273885056377">
        <ele>575.19000000000005</ele>
        <time>2019-10-26T08:08:14Z</time>
      </trkpt>
      <trkpt lat="45.575149096548557" lon="7.965310178697109">
        <ele>574.86000000000001</ele>
        <time>2019-10-26T08:08:36Z</time>
      </trkpt>
      <trkpt lat="45.575151862576604" lon="7.965320572257042">
        <ele>575.03999999999996</ele>
        <time>2019-10-26T08:08:39Z</time>
      </trkpt>
      <trkpt lat="45.575105594471097" lon="7.965315375477076">
        <ele>575.13999999999999</ele>
        <time>2019-10-26T08:08:54Z</time>
      </trkpt>
      <trkpt lat="45.575081957504153" lon="7.965285871177912">
        <ele>575.24000000000001</ele>
        <time>2019-10-26T08:09:14Z</time>
      </trkpt>
      <trkpt lat="45.575106516480446" lon="7.965256115421653">
        <ele>575.21000000000004</ele>
        <time>2019-10-26T08:09:31Z</time>
      </trkpt>
      <trkpt lat="45.575145492330194" lon="7.965254606679082">
        <ele>575.11000000000001</ele>
        <time>2019-10-26T08:09:54Z</time>
      </trkpt>
      <trkpt lat="45.575149180367589" lon="7.965266592800617">
        <ele>575.41999999999996</ele>
        <time>2019-10-26T08:10:19Z</time>
      </trkpt>
      <trkpt lat="45.575143145397305" lon="7.965249074622989">
        <ele>575.48000000000002</ele>
        <time>2019-10-26T08:10:37Z</time>
      </trkpt>
      <trkpt lat="45.57513895444572" lon="7.965243039652705">
        <ele>575.47000000000003</ele>
        <time>2019-10-26T08:10:48Z</time>
      </trkpt>
      <trkpt lat="45.575150353834033" lon="7.96525645069778">
        <ele>575.47000000000003</ele>
        <time>2019-10-26T08:11:07Z</time>
      </trkpt>
      <trkpt lat="45.575128057971597" lon="7.965230382978916">
        <ele>575.85000000000002</ele>
        <time>2019-10-26T08:11:25Z</time>
      </trkpt>
      <trkpt lat="45.575152533128858" lon="7.965195598080754">
        <ele>575.86000000000001</ele>
        <time>2019-10-26T08:11:42Z</time>
      </trkpt>
      <trkpt lat="45.575133925303817" lon="7.965168273076415">
        <ele>575.64999999999998</ele>
        <time>2019-10-26T08:12:00Z</time>
      </trkpt>
      <trkpt lat="45.575153538957238" lon="7.965166596695781">
        <ele>575.66999999999996</ele>
        <time>2019-10-26T08:12:17Z</time>
      </trkpt>
      <trkpt lat="45.575159071013331" lon="7.9651621542871">
        <ele>575.64999999999998</ele>
        <time>2019-10-26T08:12:35Z</time>
      </trkpt>
      <trkpt lat="45.57516728527844" lon="7.965148994699121">
        <ele>575.53999999999996</ele>
        <time>2019-10-26T08:12:53Z</time>
      </trkpt>
      <trkpt lat="45.57516879402101" lon="7.965166009962559">
        <ele>575.77999999999997</ele>
        <time>2019-10-26T08:13:12Z</time>
      </trkpt>
      <trkpt lat="45.575185306370258" lon="7.965156706050038">
        <ele>575.73000000000002</ele>
        <time>2019-10-26T08:13:27Z</time>
      </trkpt>
      <trkpt lat="45.575197376310825" lon="7.96514262445271">
        <ele>575.76999999999998</ele>
        <time>2019-10-26T08:13:46Z</time>
      </trkpt>
      <trkpt lat="45.575190503150225" lon="7.965121753513813">
        <ele>575.72000000000003</ele>
        <time>2019-10-26T08:14:04Z</time>
      </trkpt>
      <trkpt lat="45.575190167874098" lon="7.965114125981927">
        <ele>575.73000000000002</ele>
        <time>2019-10-26T08:14:25Z</time>
      </trkpt>
      <trkpt lat="45.575169213116169" lon="7.965092835947871">
        <ele>575.51999999999998</ele>
        <time>2019-10-26T08:14:46Z</time>
      </trkpt>
      <trkpt lat="45.575176253914833" lon="7.965088058263063">
        <ele>575.34000000000003</ele>
        <time>2019-10-26T08:15:04Z</time>
      </trkpt>
      <trkpt lat="45.575193772092462" lon="7.965075233951211">
        <ele>575.38999999999999</ele>
        <time>2019-10-26T08:15:19Z</time>
      </trkpt>
      <trkpt lat="45.575186647474766" lon="7.965032486245036">
        <ele>575.32000000000005</ele>
        <time>2019-10-26T08:15:36Z</time>
      </trkpt>
      <trkpt lat="45.575204752385616" lon="7.965022847056389">
        <ele>575.86000000000001</ele>
        <time>2019-10-26T08:15:54Z</time>
      </trkpt>
      <trkpt lat="45.575183378532529" lon="7.964990325272083">
        <ele>575.98000000000002</ele>
        <time>2019-10-26T08:16:11Z</time>
      </trkpt>
      <trkpt lat="45.575216067954898" lon="7.96496962197125">
        <ele>577.75999999999999</ele>
        <time>2019-10-26T08:16:24Z</time>
      </trkpt>
      <trkpt lat="45.575232161208987" lon="7.964965850114822">
        <ele>578.21000000000004</ele>
        <time>2019-10-26T08:16:32Z</time>
      </trkpt>
      <trkpt lat="45.575250014662743" lon="7.964963335543871">
        <ele>578.63</ele>
        <time>2019-10-26T08:16:51Z</time>
      </trkpt>
      <trkpt lat="45.575265856459737" lon="7.964969789609313">
        <ele>580</ele>
        <time>2019-10-26T08:17:07Z</time>
      </trkpt>
      <trkpt lat="45.575263341888785" lon="7.964993761852384">
        <ele>580.53999999999996</ele>
        <time>2019-10-26T08:17:23Z</time>
      </trkpt>
      <trkpt lat="45.575288068503141" lon="7.964965514838696">
        <ele>580.76999999999998</ele>
        <time>2019-10-26T08:17:39Z</time>
      </trkpt>
      <trkpt lat="45.575319584459066" lon="7.964920420199633">
        <ele>583.76999999999998</ele>
        <time>2019-10-26T08:17:46Z</time>
      </trkpt>
      <trkpt lat="45.575392926111817" lon="7.96476393006742">
        <ele>586.65999999999997</ele>
        <time>2019-10-26T08:18:03Z</time>
      </trkpt>
      <trkpt lat="45.575442714616656" lon="7.964689414948225">
        <ele>587.59000000000003</ele>
        <time>2019-10-26T08:18:12Z</time>
      </trkpt>
      <trkpt lat="45.575461657717824" lon="7.96470332890749">
        <ele>589.11000000000001</ele>
        <time>2019-10-26T08:18:22Z</time>
      </trkpt>
      <trkpt lat="45.575459310784936" lon="7.964761918410659">
        <ele>590.55999999999995</ele>
        <time>2019-10-26T08:18:38Z</time>
      </trkpt>
      <trkpt lat="45.575445396825671" lon="7.964780274778605">
        <ele>590.47000000000003</ele>
        <time>2019-10-26T08:18:51Z</time>
      </trkpt>
      <trkpt lat="45.575435757637024" lon="7.964816065505147">
        <ele>590.52999999999997</ele>
        <time>2019-10-26T08:19:14Z</time>
      </trkpt>
      <trkpt lat="45.575423100963235" lon="7.96481765806675">
        <ele>590.55999999999995</ele>
        <time>2019-10-26T08:19:41Z</time>
      </trkpt>
      <trkpt lat="45.575420837849379" lon="7.964820675551891">
        <ele>590.39999999999998</ele>
        <time>2019-10-26T08:20:06Z</time>
      </trkpt>
      <trkpt lat="45.575419077649713" lon="7.96491346322">
        <ele>593.41999999999996</ele>
        <time>2019-10-26T08:20:24Z</time>
      </trkpt>
      <trkpt lat="45.575457382947206" lon="7.964855963364244">
        <ele>595.51999999999998</ele>
        <time>2019-10-26T08:20:37Z</time>
      </trkpt>
      <trkpt lat="45.57547272183001" lon="7.964823693037033">
        <ele>596.07000000000005</ele>
        <time>2019-10-26T08:20:51Z</time>
      </trkpt>
      <trkpt lat="45.575499041005969" lon="7.964774994179606">
        <ele>597.91999999999996</ele>
        <time>2019-10-26T08:21:03Z</time>
      </trkpt>
      <trkpt lat="45.575566096231341" lon="7.96469746157527">
        <ele>599.05999999999995</ele>
        <time>2019-10-26T08:21:16Z</time>
      </trkpt>
      <trkpt lat="45.575630385428667" lon="7.964610373601317">
        <ele>598.39999999999998</ele>
        <time>2019-10-26T08:21:26Z</time>
      </trkpt>
      <trkpt lat="45.575674641877413" lon="7.96458120457828">
        <ele>597.86000000000001</ele>
        <time>2019-10-26T08:21:30Z</time>
      </trkpt>
      <trkpt lat="45.575726442039013" lon="7.964538959786296">
        <ele>596.82000000000005</ele>
        <time>2019-10-26T08:21:43Z</time>
      </trkpt>
      <trkpt lat="45.575766088441014" lon="7.96449470333755">
        <ele>594.62</ele>
        <time>2019-10-26T08:21:56Z</time>
      </trkpt>
      <trkpt lat="45.575808668509126" lon="7.964448686689138">
        <ele>592.51999999999998</ele>
        <time>2019-10-26T08:22:10Z</time>
      </trkpt>
      <trkpt lat="45.575818978250027" lon="7.964386325329542">
        <ele>591.10000000000002</ele>
        <time>2019-10-26T08:22:21Z</time>
      </trkpt>
      <trkpt lat="45.575825599953532" lon="7.964349361136556">
        <ele>590.63</ele>
        <time>2019-10-26T08:22:36Z</time>
      </trkpt>
      <trkpt lat="45.575787294656038" lon="7.964398562908173">
        <ele>587.65999999999997</ele>
        <time>2019-10-26T08:22:54Z</time>
      </trkpt>
      <trkpt lat="45.575748654082417" lon="7.964351959526539">
        <ele>585.67999999999995</ele>
        <time>2019-10-26T08:23:08Z</time>
      </trkpt>
      <trkpt lat="45.57575024664402" lon="7.964324215427041">
        <ele>585.00999999999999</ele>
        <time>2019-10-26T08:23:19Z</time>
      </trkpt>
      <trkpt lat="45.575771788135171" lon="7.964289514347911">
        <ele>584.85000000000002</ele>
        <time>2019-10-26T08:23:35Z</time>
      </trkpt>
      <trkpt lat="45.575800035148859" lon="7.964270235970616">
        <ele>585.02999999999997</ele>
        <time>2019-10-26T08:23:39Z</time>
      </trkpt>
      <trkpt lat="45.575864324346185" lon="7.964254058897495">
        <ele>586.38</ele>
        <time>2019-10-26T08:23:52Z</time>
      </trkpt>
      <trkpt lat="45.575913526117802" lon="7.964274007827044">
        <ele>588.59000000000003</ele>
        <time>2019-10-26T08:24:06Z</time>
      </trkpt>
      <trkpt lat="45.575992064550519" lon="7.964264284819365">
        <ele>588.29999999999995</ele>
        <time>2019-10-26T08:24:19Z</time>
      </trkpt>
      <trkpt lat="45.575996171683073" lon="7.964252298697829">
        <ele>588.16999999999996</ele>
        <time>2019-10-26T08:24:31Z</time>
      </trkpt>
      <trkpt lat="45.576002541929483" lon="7.964232265949249">
        <ele>588.00999999999999</ele>
        <time>2019-10-26T08:24:42Z</time>
      </trkpt>
      <trkpt lat="45.576003631576896" lon="7.964221453294158">
        <ele>588.19000000000005</ele>
        <time>2019-10-26T08:24:59Z</time>
      </trkpt>
      <trkpt lat="45.576015198603272" lon="7.964238300919533">
        <ele>588.09000000000003</ele>
        <time>2019-10-26T08:25:22Z</time>
      </trkpt>
      <trkpt lat="45.576022826135159" lon="7.964244754984975">
        <ele>588.35000000000002</ele>
        <time>2019-10-26T08:25:39Z</time>
      </trkpt>
      <trkpt lat="45.576026178896427" lon="7.964216927066445">
        <ele>588.36000000000001</ele>
        <time>2019-10-26T08:25:53Z</time>
      </trkpt>
      <trkpt lat="45.576032968237996" lon="7.964230673387647">
        <ele>588.79999999999995</ele>
        <time>2019-10-26T08:26:13Z</time>
      </trkpt>
      <trkpt lat="45.576054593548179" lon="7.964242156594992">
        <ele>589.58000000000004</ele>
        <time>2019-10-26T08:26:28Z</time>
      </trkpt>
      <trkpt lat="45.576056437566876" lon="7.964246263727546">
        <ele>589.67999999999995</ele>
        <time>2019-10-26T08:26:48Z</time>
      </trkpt>
      <trkpt lat="45.57604193687439" lon="7.964256405830383">
        <ele>589.72000000000003</ele>
        <time>2019-10-26T08:27:14Z</time>
      </trkpt>
      <trkpt lat="45.576036320999265" lon="7.96422497369349">
        <ele>589.99000000000001</ele>
        <time>2019-10-26T08:27:35Z</time>
      </trkpt>
      <trkpt lat="45.576047888025641" lon="7.964224722236395">
        <ele>589.90999999999997</ele>
        <time>2019-10-26T08:27:55Z</time>
      </trkpt>
      <trkpt lat="45.576063310727477" lon="7.96419957652688">
        <ele>589.88999999999999</ele>
        <time>2019-10-26T08:28:17Z</time>
      </trkpt>
      <trkpt lat="45.576069178059697" lon="7.964182225987315">
        <ele>589.67999999999995</ele>
        <time>2019-10-26T08:28:41Z</time>
      </trkpt>
      <trkpt lat="45.576089210808277" lon="7.964118020609021">
        <ele>589.48000000000002</ele>
        <time>2019-10-26T08:29:01Z</time>
      </trkpt>
      <trkpt lat="45.57610840536654" lon="7.964097065851092">
        <ele>589.78999999999996</ele>
        <time>2019-10-26T08:29:18Z</time>
      </trkpt>
      <trkpt lat="45.576145704835653" lon="7.964066304266453">
        <ele>589.75999999999999</ele>
        <time>2019-10-26T08:29:37Z</time>
      </trkpt>
      <trkpt lat="45.576154254376888" lon="7.964106369763613">
        <ele>590.38999999999999</ele>
        <time>2019-10-26T08:29:58Z</time>
      </trkpt>
      <trkpt lat="45.576201779767871" lon="7.964105615392327">
        <ele>589.59000000000003</ele>
        <time>2019-10-26T08:30:12Z</time>
      </trkpt>
      <trkpt lat="45.576216783374548" lon="7.964106118306518">
        <ele>591.05999999999995</ele>
        <time>2019-10-26T08:30:28Z</time>
      </trkpt>
      <trkpt lat="45.576238157227635" lon="7.964139226824045">
        <ele>594.11000000000001</ele>
        <time>2019-10-26T08:30:40Z</time>
      </trkpt>
      <trkpt lat="45.576222063973546" lon="7.964169485494494">
        <ele>595.38999999999999</ele>
        <time>2019-10-26T08:30:56Z</time>
      </trkpt>
      <trkpt lat="45.576186021789908" lon="7.964221285656095">
        <ele>595.54999999999995</ele>
        <time>2019-10-26T08:31:14Z</time>
      </trkpt>
      <trkpt lat="45.576177220791578" lon="7.964271577075124">
        <ele>595.69000000000005</ele>
        <time>2019-10-26T08:31:36Z</time>
      </trkpt>
      <trkpt lat="45.576218543574214" lon="7.964286245405674">
        <ele>596.38</ele>
        <time>2019-10-26T08:31:46Z</time>
      </trkpt>
      <trkpt lat="45.576264727860689" lon="7.964293956756592">
        <ele>595.85000000000002</ele>
        <time>2019-10-26T08:32:00Z</time>
      </trkpt>
      <trkpt lat="45.576282246038318" lon="7.964323293417692">
        <ele>595.83000000000004</ele>
        <time>2019-10-26T08:32:15Z</time>
      </trkpt>
      <trkpt lat="45.576302278786898" lon="7.96439403668046">
        <ele>595.74000000000001</ele>
        <time>2019-10-26T08:32:30Z</time>
      </trkpt>
      <trkpt lat="45.576302111148834" lon="7.964438712224364">
        <ele>595.82000000000005</ele>
        <time>2019-10-26T08:32:46Z</time>
      </trkpt>
      <trkpt lat="45.576329519972205" lon="7.964464528486133">
        <ele>595.53999999999996</ele>
        <time>2019-10-26T08:33:03Z</time>
      </trkpt>
      <trkpt lat="45.576345780864358" lon="7.964454889297485">
        <ele>593.65999999999997</ele>
        <time>2019-10-26T08:33:17Z</time>
      </trkpt>
      <trkpt lat="45.576363299041986" lon="7.964468887075782">
        <ele>591.59000000000003</ele>
        <time>2019-10-26T08:33:28Z</time>
      </trkpt>
      <trkpt lat="45.576361287385225" lon="7.964462852105498">
        <ele>591.16999999999996</ele>
        <time>2019-10-26T08:33:39Z</time>
      </trkpt>
      <trkpt lat="45.576376123353839" lon="7.964447932317853">
        <ele>591</ele>
        <time>2019-10-26T08:33:59Z</time>
      </trkpt>
      <trkpt lat="45.576376877725124" lon="7.964443992823362">
        <ele>591.01999999999998</ele>
        <time>2019-10-26T08:34:14Z</time>
      </trkpt>
      <trkpt lat="45.576365394517779" lon="7.964466791599989">
        <ele>590.73000000000002</ele>
        <time>2019-10-26T08:34:32Z</time>
      </trkpt>
      <trkpt lat="45.576363131403923" lon="7.964456984773278">
        <ele>590.47000000000003</ele>
        <time>2019-10-26T08:34:46Z</time>
      </trkpt>
      <trkpt lat="45.576378889381886" lon="7.964463774114847">
        <ele>590.46000000000004</ele>
        <time>2019-10-26T08:35:05Z</time>
      </trkpt>
      <trkpt lat="45.57641870342195" lon="7.964464360848069">
        <ele>588.72000000000003</ele>
        <time>2019-10-26T08:35:18Z</time>
      </trkpt>
      <trkpt lat="45.57642113417387" lon="7.964442148804665">
        <ele>589.02999999999997</ele>
        <time>2019-10-26T08:35:34Z</time>
      </trkpt>
      <trkpt lat="45.57642012834549" lon="7.96444533392787">
        <ele>588.62</ele>
        <time>2019-10-26T08:35:49Z</time>
      </trkpt>
      <trkpt lat="45.576438987627625" lon="7.964414404705167">
        <ele>588.51999999999998</ele>
        <time>2019-10-26T08:36:13Z</time>
      </trkpt>
      <trkpt lat="45.576458601281047" lon="7.964396383613348">
        <ele>587.92999999999995</ele>
        <time>2019-10-26T08:36:35Z</time>
      </trkpt>
      <trkpt lat="45.576474778354168" lon="7.964413734152913">
        <ele>587.08000000000004</ele>
        <time>2019-10-26T08:36:48Z</time>
      </trkpt>
      <trkpt lat="45.576503863558173" lon="7.964447848498821">
        <ele>586.61000000000001</ele>
        <time>2019-10-26T08:37:04Z</time>
      </trkpt>
      <trkpt lat="45.576508976519108" lon="7.964460756629705">
        <ele>586.23000000000002</ele>
        <time>2019-10-26T08:37:18Z</time>
      </trkpt>
      <trkpt lat="45.576525321230292" lon="7.964464193210006">
        <ele>585.59000000000003</ele>
        <time>2019-10-26T08:37:31Z</time>
      </trkpt>
      <trkpt lat="45.576538983732462" lon="7.964451787993312">
        <ele>585.73000000000002</ele>
        <time>2019-10-26T08:37:53Z</time>
      </trkpt>
      <trkpt lat="45.576562955975533" lon="7.964421948418021">
        <ele>585.54999999999995</ele>
        <time>2019-10-26T08:38:09Z</time>
      </trkpt>
      <trkpt lat="45.576566979289055" lon="7.964435694739223">
        <ele>584.76999999999998</ele>
        <time>2019-10-26T08:38:25Z</time>
      </trkpt>
      <trkpt lat="45.57655013166368" lon="7.96444877050817">
        <ele>584.78999999999996</ele>
        <time>2019-10-26T08:38:41Z</time>
      </trkpt>
      <trkpt lat="45.576559016481042" lon="7.964457152411342">
        <ele>584.58000000000004</ele>
        <time>2019-10-26T08:38:56Z</time>
      </trkpt>
      <trkpt lat="45.576567901298404" lon="7.964462768286467">
        <ele>584.66999999999996</ele>
        <time>2019-10-26T08:39:10Z</time>
      </trkpt>
      <trkpt lat="45.576555663719773" lon="7.964491350576282">
        <ele>584.72000000000003</ele>
        <time>2019-10-26T08:39:31Z</time>
      </trkpt>
      <trkpt lat="45.576534038409591" lon="7.964507527649403">
        <ele>584.75</ele>
        <time>2019-10-26T08:39:50Z</time>
      </trkpt>
      <trkpt lat="45.576521717011929" lon="7.964491434395313">
        <ele>584.67999999999995</ele>
        <time>2019-10-26T08:40:13Z</time>
      </trkpt>
      <trkpt lat="45.576514257118106" lon="7.964498475193977">
        <ele>584.92999999999995</ele>
        <time>2019-10-26T08:40:28Z</time>
      </trkpt>
      <trkpt lat="45.576517526060343" lon="7.964496044442058">
        <ele>584.96000000000004</ele>
        <time>2019-10-26T08:40:44Z</time>
      </trkpt>
      <trkpt lat="45.57652079500258" lon="7.964524542912841">
        <ele>584.53999999999996</ele>
        <time>2019-10-26T08:40:55Z</time>
      </trkpt>
      <trkpt lat="45.576529176905751" lon="7.964516747742891">
        <ele>584.22000000000003</ele>
        <time>2019-10-26T08:41:06Z</time>
      </trkpt>
      <trkpt lat="45.576509479433298" lon="7.964526889845729">
        <ele>584.27999999999997</ele>
        <time>2019-10-26T08:41:22Z</time>
      </trkpt>
      <trkpt lat="45.576580474153161" lon="7.964465450495482">
        <ele>584.17999999999995</ele>
        <time>2019-10-26T08:41:39Z</time>
      </trkpt>
      <trkpt lat="45.57655842974782" lon="7.964468887075782">
        <ele>584.39999999999998</ele>
        <time>2019-10-26T08:41:58Z</time>
      </trkpt>
      <trkpt lat="45.576543845236301" lon="7.964490428566933">
        <ele>584.60000000000002</ele>
        <time>2019-10-26T08:42:16Z</time>
      </trkpt>
      <trkpt lat="45.576519956812263" lon="7.964513646438718">
        <ele>586.53999999999996</ele>
        <time>2019-10-26T08:42:33Z</time>
      </trkpt>
      <trkpt lat="45.576463965699077" lon="7.964500319212675">
        <ele>586.53999999999996</ele>
        <time>2019-10-26T08:42:52Z</time>
      </trkpt>
      <trkpt lat="45.576503612101078" lon="7.964468384161592">
        <ele>586.65999999999997</ele>
        <time>2019-10-26T08:43:18Z</time>
      </trkpt>
      <trkpt lat="45.57651006616652" lon="7.964463103562594">
        <ele>586.88999999999999</ele>
        <time>2019-10-26T08:43:40Z</time>
      </trkpt>
      <trkpt lat="45.576511910185218" lon="7.964520268142223">
        <ele>587.20000000000005</ele>
        <time>2019-10-26T08:44:00Z</time>
      </trkpt>
      <trkpt lat="45.576519537717104" lon="7.964482884854078">
        <ele>587.38999999999999</ele>
        <time>2019-10-26T08:44:24Z</time>
      </trkpt>
      <trkpt lat="45.576561028137803" lon="7.964546671137214">
        <ele>587.82000000000005</ele>
        <time>2019-10-26T08:44:43Z</time>
      </trkpt>
      <trkpt lat="45.576568655669689" lon="7.964500989764929">
        <ele>587.98000000000002</ele>
        <time>2019-10-26T08:45:07Z</time>
      </trkpt>
      <trkpt lat="45.576547030359507" lon="7.964452710002661">
        <ele>588.40999999999997</ele>
        <time>2019-10-26T08:45:27Z</time>
      </trkpt>
      <trkpt lat="45.576581228524446" lon="7.964348858222365">
        <ele>588.75</ele>
        <time>2019-10-26T08:45:49Z</time>
      </trkpt>
      <trkpt lat="45.576610146090388" lon="7.964398395270109">
        <ele>589.20000000000005</ele>
        <time>2019-10-26T08:46:11Z</time>
      </trkpt>
      <trkpt lat="45.57661852799356" lon="7.964374255388975">
        <ele>589.62</ele>
        <time>2019-10-26T08:46:34Z</time>
      </trkpt>
      <trkpt lat="45.576575780287385" lon="7.964349444955587">
        <ele>590.00999999999999</ele>
        <time>2019-10-26T08:46:55Z</time>
      </trkpt>
      <trkpt lat="45.576531691476703" lon="7.964372579008341">
        <ele>590.50999999999999</ele>
        <time>2019-10-26T08:47:16Z</time>
      </trkpt>
      <trkpt lat="45.576503863558173" lon="7.96441750600934">
        <ele>590.82000000000005</ele>
        <time>2019-10-26T08:47:36Z</time>
      </trkpt>
      <trkpt lat="45.576513335108757" lon="7.96437593176961">
        <ele>591.17999999999995</ele>
        <time>2019-10-26T08:47:57Z</time>
      </trkpt>
      <trkpt lat="45.576542420312762" lon="7.964350618422031">
        <ele>591.71000000000004</ele>
        <time>2019-10-26T08:48:17Z</time>
      </trkpt>
      <trkpt lat="45.57654082775116" lon="7.964380793273449">
        <ele>591.92999999999995</ele>
        <time>2019-10-26T08:48:35Z</time>
      </trkpt>
      <trkpt lat="45.576516101136804" lon="7.964387079700828">
        <ele>592.51999999999998</ele>
        <time>2019-10-26T08:48:55Z</time>
      </trkpt>
      <trkpt lat="45.576582318171859" lon="7.964285742491484">
        <ele>593.03999999999996</ele>
        <time>2019-10-26T08:49:17Z</time>
      </trkpt>
      <trkpt lat="45.576578043401241" lon="7.964281802996993">
        <ele>593.62</ele>
        <time>2019-10-26T08:49:33Z</time>
      </trkpt>
      <trkpt lat="45.576557675376534" lon="7.964278366416693">
        <ele>593.82000000000005</ele>
        <time>2019-10-26T08:49:52Z</time>
      </trkpt>
      <trkpt lat="45.576544431969523" lon="7.964252466335893">
        <ele>594.25999999999999</ele>
        <time>2019-10-26T08:50:12Z</time>
      </trkpt>
      <trkpt lat="45.576535547152162" lon="7.964255232363939">
        <ele>594.83000000000004</ele>
        <time>2019-10-26T08:50:31Z</time>
      </trkpt>
      <trkpt lat="45.576499002054334" lon="7.964312564581633">
        <ele>595.21000000000004</ele>
        <time>2019-10-26T08:50:53Z</time>
      </trkpt>
      <trkpt lat="45.576479388400912" lon="7.964321114122868">
        <ele>595.82000000000005</ele>
        <time>2019-10-26T08:51:14Z</time>
      </trkpt>
      <trkpt lat="45.576470252126455" lon="7.964376518502832">
        <ele>597.75</ele>
        <time>2019-10-26T08:51:29Z</time>
      </trkpt>
      <trkpt lat="45.576465390622616" lon="7.964373333379626">
        <ele>599.30999999999995</ele>
        <time>2019-10-26T08:51:44Z</time>
      </trkpt>
      <trkpt lat="45.576487518846989" lon="7.964374590665102">
        <ele>600.77999999999997</ele>
        <time>2019-10-26T08:52:03Z</time>
      </trkpt>
      <trkpt lat="45.576491374522448" lon="7.964412644505501">
        <ele>602.55999999999995</ele>
        <time>2019-10-26T08:52:21Z</time>
      </trkpt>
      <trkpt lat="45.576512077823281" lon="7.964383726939559">
        <ele>603.08000000000004</ele>
        <time>2019-10-26T08:52:30Z</time>
      </trkpt>
      <trkpt lat="45.576542336493731" lon="7.964355647563934">
        <ele>603.88</ele>
        <time>2019-10-26T08:52:43Z</time>
      </trkpt>
      <trkpt lat="45.576543174684048" lon="7.964351205155253">
        <ele>603.89999999999998</ele>
        <time>2019-10-26T08:52:53Z</time>
      </trkpt>
      <trkpt lat="45.576538648456335" lon="7.964368220418692">
        <ele>604.30999999999995</ele>
        <time>2019-10-26T08:53:08Z</time>
      </trkpt>
      <trkpt lat="45.576546778902411" lon="7.964373836293817">
        <ele>604.39999999999998</ele>
        <time>2019-10-26T08:53:25Z</time>
      </trkpt>
      <trkpt lat="45.576551808044314" lon="7.964362017810345">
        <ele>604.69000000000005</ele>
        <time>2019-10-26T08:53:41Z</time>
      </trkpt>
      <trkpt lat="45.576549293473363" lon="7.964363107457757">
        <ele>605.01999999999998</ele>
        <time>2019-10-26T08:53:57Z</time>
      </trkpt>
      <trkpt lat="45.576570751145482" lon="7.964357156306505">
        <ele>605.34000000000003</ele>
        <time>2019-10-26T08:54:14Z</time>
      </trkpt>
      <trkpt lat="45.576553316786885" lon="7.96441406942904">
        <ele>606.23000000000002</ele>
        <time>2019-10-26T08:54:33Z</time>
      </trkpt>
      <trkpt lat="45.576543090865016" lon="7.964433766901493">
        <ele>606.33000000000004</ele>
        <time>2019-10-26T08:54:46Z</time>
      </trkpt>
      <trkpt lat="45.576544683426619" lon="7.964445669203997">
        <ele>607.79999999999995</ele>
        <time>2019-10-26T08:54:58Z</time>
      </trkpt>
      <trkpt lat="45.576568823307753" lon="7.964464612305164">
        <ele>608.13999999999999</ele>
        <time>2019-10-26T08:55:15Z</time>
      </trkpt>
      <trkpt lat="45.576582988724113" lon="7.964471653103828">
        <ele>608.36000000000001</ele>
        <time>2019-10-26T08:55:32Z</time>
      </trkpt>
      <trkpt lat="45.576577037572861" lon="7.964497385546565">
        <ele>608.87</ele>
        <time>2019-10-26T08:55:49Z</time>
      </trkpt>
      <trkpt lat="45.576557675376534" lon="7.964517837390304">
        <ele>609.19000000000005</ele>
        <time>2019-10-26T08:56:07Z</time>
      </trkpt>
      <trkpt lat="45.576513167470694" lon="7.9645577352494">
        <ele>609.41999999999996</ele>
        <time>2019-10-26T08:56:27Z</time>
      </trkpt>
      <trkpt lat="45.576513586565852" lon="7.964557567611337">
        <ele>609.86000000000001</ele>
        <time>2019-10-26T08:56:38Z</time>
      </trkpt>
      <trkpt lat="45.576495146378875" lon="7.964660413563252">
        <ele>609.94000000000005</ele>
        <time>2019-10-26T08:56:52Z</time>
      </trkpt>
      <trkpt lat="45.57649883441627" lon="7.964772144332528">
        <ele>610.26999999999998</ele>
        <time>2019-10-26T08:57:15Z</time>
      </trkpt>
      <trkpt lat="45.576490620151162" lon="7.964744735509157">
        <ele>610.41999999999996</ele>
        <time>2019-10-26T08:57:36Z</time>
      </trkpt>
      <trkpt lat="45.576474443078041" lon="7.964741801843047">
        <ele>610.74000000000001</ele>
        <time>2019-10-26T08:57:56Z</time>
      </trkpt>
      <trkpt lat="45.576474945992231" lon="7.964741969481111">
        <ele>610.95000000000005</ele>
        <time>2019-10-26T08:58:13Z</time>
      </trkpt>
      <trkpt lat="45.576473772525787" lon="7.964750602841377">
        <ele>610.99000000000001</ele>
        <time>2019-10-26T08:58:30Z</time>
      </trkpt>
      <trkpt lat="45.576465725898743" lon="7.964761247858405">
        <ele>611.5</ele>
        <time>2019-10-26T08:58:49Z</time>
      </trkpt>
      <trkpt lat="45.576460948213935" lon="7.964795948937535">
        <ele>611.54999999999995</ele>
        <time>2019-10-26T08:59:11Z</time>
      </trkpt>
      <trkpt lat="45.576467653736472" lon="7.96482402831316">
        <ele>611.89999999999998</ele>
        <time>2019-10-26T08:59:27Z</time>
      </trkpt>
      <trkpt lat="45.576465558260679" lon="7.964840456843376">
        <ele>611.88</ele>
        <time>2019-10-26T08:59:44Z</time>
      </trkpt>
      <trkpt lat="45.576484082266688" lon="7.964848503470421">
        <ele>611.96000000000004</ele>
        <time>2019-10-26T08:59:58Z</time>
      </trkpt>
      <trkpt lat="45.5764817353338" lon="7.964862501248717">
        <ele>612.14999999999998</ele>
        <time>2019-10-26T09:00:21Z</time>
      </trkpt>
      <trkpt lat="45.576476538553834" lon="7.964861830696464">
        <ele>612.15999999999997</ele>
        <time>2019-10-26T09:00:41Z</time>
      </trkpt>
      <trkpt lat="45.576494475826621" lon="7.964863171800971">
        <ele>612.12</ele>
        <time>2019-10-26T09:00:57Z</time>
      </trkpt>
      <trkpt lat="45.576506797224283" lon="7.964866440743208">
        <ele>611.76999999999998</ele>
        <time>2019-10-26T09:01:18Z</time>
      </trkpt>
      <trkpt lat="45.576512245461345" lon="7.964866105467081">
        <ele>611.84000000000003</ele>
        <time>2019-10-26T09:01:40Z</time>
      </trkpt>
      <trkpt lat="45.576505959033966" lon="7.96486359089613">
        <ele>612.13999999999999</ele>
        <time>2019-10-26T09:02:00Z</time>
      </trkpt>
      <trkpt lat="45.576504953205585" lon="7.964865937829018">
        <ele>612.09000000000003</ele>
        <time>2019-10-26T09:02:14Z</time>
      </trkpt>
      <trkpt lat="45.576503528282046" lon="7.964875409379602">
        <ele>612.07000000000005</ele>
        <time>2019-10-26T09:02:30Z</time>
      </trkpt>
      <trkpt lat="45.576508725062013" lon="7.964876415207982">
        <ele>612.13</ele>
        <time>2019-10-26T09:02:52Z</time>
      </trkpt>
      <trkpt lat="45.576534708961844" lon="7.96482939273119">
        <ele>611.75999999999999</ele>
        <time>2019-10-26T09:03:11Z</time>
      </trkpt>
      <trkpt lat="45.576533451676369" lon="7.964819502085447">
        <ele>612.14999999999998</ele>
        <time>2019-10-26T09:03:24Z</time>
      </trkpt>
      <trkpt lat="45.576540324836969" lon="7.96481279656291">
        <ele>612.25</ele>
        <time>2019-10-26T09:03:35Z</time>
      </trkpt>
      <trkpt lat="45.576555915176868" lon="7.964774575084448">
        <ele>612.40999999999997</ele>
        <time>2019-10-26T09:03:52Z</time>
      </trkpt>
      <trkpt lat="45.576543426141143" lon="7.96475320123136">
        <ele>612.75999999999999</ele>
        <time>2019-10-26T09:04:13Z</time>
      </trkpt>
      <trkpt lat="45.57654770091176" lon="7.964743142947555">
        <ele>612.75</ele>
        <time>2019-10-26T09:04:28Z</time>
      </trkpt>
      <trkpt lat="45.57654133066535" lon="7.964743562042713">
        <ele>613.15999999999997</ele>
        <time>2019-10-26T09:04:47Z</time>
      </trkpt>
      <trkpt lat="45.576536385342479" lon="7.964736353605986">
        <ele>612.46000000000004</ele>
        <time>2019-10-26T09:05:08Z</time>
      </trkpt>
      <trkpt lat="45.576528087258339" lon="7.964719338342547">
        <ele>612.66999999999996</ele>
        <time>2019-10-26T09:05:29Z</time>
      </trkpt>
      <trkpt lat="45.576528338715434" lon="7.964715817943215">
        <ele>613.01999999999998</ele>
        <time>2019-10-26T09:05:56Z</time>
      </trkpt>
      <trkpt lat="45.576535128057003" lon="7.964713638648391">
        <ele>613.08000000000004</ele>
        <time>2019-10-26T09:06:16Z</time>
      </trkpt>
      <trkpt lat="45.576512580737472" lon="7.964729899540544">
        <ele>613.27999999999997</ele>
        <time>2019-10-26T09:06:42Z</time>
      </trkpt>
      <trkpt lat="45.576516855508089" lon="7.964734844863415">
        <ele>613.35000000000002</ele>
        <time>2019-10-26T09:07:03Z</time>
      </trkpt>
      <trkpt lat="45.576524399220943" lon="7.964740544557571">
        <ele>613.58000000000004</ele>
        <time>2019-10-26T09:07:19Z</time>
      </trkpt>
      <trkpt lat="45.57652423158288" lon="7.964751441031694">
        <ele>613.83000000000004</ele>
        <time>2019-10-26T09:07:34Z</time>
      </trkpt>
      <trkpt lat="45.57652129791677" lon="7.964771389961243">
        <ele>613.88999999999999</ele>
        <time>2019-10-26T09:07:50Z</time>
      </trkpt>
      <trkpt lat="45.576522219926119" lon="7.964751860126853">
        <ele>613.91999999999996</ele>
        <time>2019-10-26T09:08:09Z</time>
      </trkpt>
      <trkpt lat="45.576520375907421" lon="7.964768121019006">
        <ele>614.37</ele>
        <time>2019-10-26T09:08:34Z</time>
      </trkpt>
      <trkpt lat="45.576520962640643" lon="7.964773569256067">
        <ele>613.72000000000003</ele>
        <time>2019-10-26T09:08:46Z</time>
      </trkpt>
      <trkpt lat="45.576518028974533" lon="7.964794188737869">
        <ele>613.45000000000005</ele>
        <time>2019-10-26T09:08:58Z</time>
      </trkpt>
      <trkpt lat="45.576520208269358" lon="7.964830650016666">
        <ele>613.30999999999995</ele>
        <time>2019-10-26T09:09:15Z</time>
      </trkpt>
      <trkpt lat="45.576536552980542" lon="7.964781448245049">
        <ele>613.61000000000001</ele>
        <time>2019-10-26T09:09:32Z</time>
      </trkpt>
      <trkpt lat="45.576553149148822" lon="7.964783878996968">
        <ele>613.37</ele>
        <time>2019-10-26T09:09:49Z</time>
      </trkpt>
      <trkpt lat="45.576604949310422" lon="7.96475755982101">
        <ele>613.49000000000001</ele>
        <time>2019-10-26T09:10:12Z</time>
      </trkpt>
      <trkpt lat="45.576638141646981" lon="7.964722774922848">
        <ele>613.92999999999995</ele>
        <time>2019-10-26T09:10:33Z</time>
      </trkpt>
      <trkpt lat="45.576658844947815" lon="7.964711459353566">
        <ele>614.13</ele>
        <time>2019-10-26T09:10:59Z</time>
      </trkpt>
      <trkpt lat="45.57665322907269" lon="7.96472973190248">
        <ele>614.13</ele>
        <time>2019-10-26T09:11:15Z</time>
      </trkpt>
      <trkpt lat="45.576636046171188" lon="7.96478102914989">
        <ele>614.63</ele>
        <time>2019-10-26T09:11:31Z</time>
      </trkpt>
      <trkpt lat="45.576637303456664" lon="7.964799050241709">
        <ele>614.54999999999995</ele>
        <time>2019-10-26T09:11:42Z</time>
      </trkpt>
      <trkpt lat="45.576625820249319" lon="7.96480885706842">
        <ele>615.02999999999997</ele>
        <time>2019-10-26T09:12:03Z</time>
      </trkpt>
      <trkpt lat="45.5766595993191" lon="7.964782537892461">
        <ele>615.88999999999999</ele>
        <time>2019-10-26T09:12:20Z</time>
      </trkpt>
      <trkpt lat="45.576669406145811" lon="7.96477759256959">
        <ele>616.10000000000002</ele>
        <time>2019-10-26T09:12:39Z</time>
      </trkpt>
      <trkpt lat="45.576666472479701" lon="7.964775497093797">
        <ele>616.08000000000004</ele>
        <time>2019-10-26T09:12:53Z</time>
      </trkpt>
      <trkpt lat="45.576673848554492" lon="7.96478153206408">
        <ele>616.05999999999995</ele>
        <time>2019-10-26T09:13:12Z</time>
      </trkpt>
      <trkpt lat="45.576666807755828" lon="7.964758817106485">
        <ele>616.16999999999996</ele>
        <time>2019-10-26T09:13:31Z</time>
      </trkpt>
      <trkpt lat="45.57668692432344" lon="7.964728306978941">
        <ele>616.20000000000005</ele>
        <time>2019-10-26T09:13:48Z</time>
      </trkpt>
      <trkpt lat="45.576694216579199" lon="7.964711794629693">
        <ele>615.96000000000004</ele>
        <time>2019-10-26T09:14:05Z</time>
      </trkpt>
      <trkpt lat="45.57669916190207" lon="7.964743478223681">
        <ele>615.91999999999996</ele>
        <time>2019-10-26T09:14:20Z</time>
      </trkpt>
      <trkpt lat="45.576687091961503" lon="7.964782537892461">
        <ele>616.02999999999997</ele>
        <time>2019-10-26T09:14:43Z</time>
      </trkpt>
      <trkpt lat="45.576680805534124" lon="7.964801229536533">
        <ele>615.92999999999995</ele>
        <time>2019-10-26T09:14:59Z</time>
      </trkpt>
      <trkpt lat="45.576673010364175" lon="7.964819837361574">
        <ele>615.82000000000005</ele>
        <time>2019-10-26T09:15:37Z</time>
      </trkpt>
      <trkpt lat="45.576671669259667" lon="7.964832996949554">
        <ele>615.74000000000001</ele>
        <time>2019-10-26T09:15:59Z</time>
      </trkpt>
      <trkpt lat="45.576675273478031" lon="7.964830482378602">
        <ele>615.74000000000001</ele>
        <time>2019-10-26T09:16:25Z</time>
      </trkpt>
      <trkpt lat="45.576680302619934" lon="7.964816903695464">
        <ele>615.77999999999997</ele>
        <time>2019-10-26T09:16:50Z</time>
      </trkpt>
      <trkpt lat="45.576666472479701" lon="7.96482159756124">
        <ele>615.88</ele>
        <time>2019-10-26T09:17:15Z</time>
      </trkpt>
      <trkpt lat="45.57666789740324" lon="7.964806342497468">
        <ele>615.91999999999996</ele>
        <time>2019-10-26T09:17:36Z</time>
      </trkpt>
      <trkpt lat="45.576682398095727" lon="7.964818412438035">
        <ele>616.02999999999997</ele>
        <time>2019-10-26T09:18:01Z</time>
      </trkpt>
      <trkpt lat="45.576691199094057" lon="7.964830063283444">
        <ele>616.01999999999998</ele>
        <time>2019-10-26T09:18:32Z</time>
      </trkpt>
      <trkpt lat="45.576694384217262" lon="7.964813467115164">
        <ele>615.96000000000004</ele>
        <time>2019-10-26T09:18:53Z</time>
      </trkpt>
      <trkpt lat="45.576692959293723" lon="7.964782705530524">
        <ele>615.76999999999998</ele>
        <time>2019-10-26T09:19:21Z</time>
      </trkpt>
      <trkpt lat="45.576713914051652" lon="7.964782202616334">
        <ele>615.77999999999997</ele>
        <time>2019-10-26T09:19:52Z</time>
      </trkpt>
      <trkpt lat="45.576723469421268" lon="7.964752614498138">
        <ele>616.13999999999999</ele>
        <time>2019-10-26T09:20:16Z</time>
      </trkpt>
      <trkpt lat="45.576730510219932" lon="7.964725708588958">
        <ele>615.89999999999998</ele>
        <time>2019-10-26T09:20:40Z</time>
      </trkpt>
      <trkpt lat="45.576688013970852" lon="7.96477323397994">
        <ele>616.19000000000005</ele>
        <time>2019-10-26T09:21:04Z</time>
      </trkpt>
      <trkpt lat="45.576686169952154" lon="7.964765354990959">
        <ele>615.97000000000003</ele>
        <time>2019-10-26T09:21:28Z</time>
      </trkpt>
      <trkpt lat="45.576677704229951" lon="7.964803325012326">
        <ele>615.88</ele>
        <time>2019-10-26T09:21:55Z</time>
      </trkpt>
      <trkpt lat="45.576677871868014" lon="7.964790752157569">
        <ele>615.88999999999999</ele>
        <time>2019-10-26T09:22:23Z</time>
      </trkpt>
      <trkpt lat="45.576685918495059" lon="7.964782956987619">
        <ele>615.85000000000002</ele>
        <time>2019-10-26T09:22:48Z</time>
      </trkpt>
      <trkpt lat="45.576680721715093" lon="7.964776586741209">
        <ele>615.55999999999995</ele>
        <time>2019-10-26T09:23:09Z</time>
      </trkpt>
      <trkpt lat="45.576672507449985" lon="7.964771809056401">
        <ele>615.64999999999998</ele>
        <time>2019-10-26T09:23:39Z</time>
      </trkpt>
      <trkpt lat="45.576727576553822" lon="7.964743226766586">
        <ele>618.74000000000001</ele>
        <time>2019-10-26T09:23:54Z</time>
      </trkpt>
      <trkpt lat="45.576712489128113" lon="7.964828219264746">
        <ele>622.03999999999996</ele>
        <time>2019-10-26T09:24:07Z</time>
      </trkpt>
      <trkpt lat="45.576747190207243" lon="7.964873230084777">
        <ele>625.04999999999995</ele>
        <time>2019-10-26T09:24:19Z</time>
      </trkpt>
      <trkpt lat="45.576806953176856" lon="7.964894101023674">
        <ele>627.97000000000003</ele>
        <time>2019-10-26T09:24:32Z</time>
      </trkpt>
      <trkpt lat="45.576805779710412" lon="7.964948918670416">
        <ele>628.00999999999999</ele>
        <time>2019-10-26T09:24:46Z</time>
      </trkpt>
      <trkpt lat="45.576820531859994" lon="7.964971885085106">
        <ele>628.37</ele>
        <time>2019-10-26T09:25:00Z</time>
      </trkpt>
      <trkpt lat="45.576891358941793" lon="7.964929891750217">
        <ele>630.59000000000003</ele>
        <time>2019-10-26T09:25:16Z</time>
      </trkpt>
      <trkpt lat="45.576965371146798" lon="7.964961240068078">
        <ele>632.66999999999996</ele>
        <time>2019-10-26T09:25:32Z</time>
      </trkpt>
      <trkpt lat="45.577018260955811" lon="7.965003652498126">
        <ele>632.03999999999996</ele>
        <time>2019-10-26T09:25:39Z</time>
      </trkpt>
      <trkpt lat="45.577063942328095" lon="7.965067103505135">
        <ele>630.66999999999996</ele>
        <time>2019-10-26T09:25:50Z</time>
      </trkpt>
      <trkpt lat="45.577066792175174" lon="7.965105241164565">
        <ele>629.61000000000001</ele>
        <time>2019-10-26T09:26:03Z</time>
      </trkpt>
      <trkpt lat="45.577057236805558" lon="7.965123429894447">
        <ele>629.45000000000005</ele>
        <time>2019-10-26T09:26:16Z</time>
      </trkpt>
      <trkpt lat="45.577034438028932" lon="7.965153185650706">
        <ele>628.86000000000001</ele>
        <time>2019-10-26T09:26:30Z</time>
      </trkpt>
      <trkpt lat="45.577022284269333" lon="7.965176068246365">
        <ele>628.14999999999998</ele>
        <time>2019-10-26T09:26:39Z</time>
      </trkpt>
      <trkpt lat="45.576996216550469" lon="7.96517388895154">
        <ele>626.88</ele>
        <time>2019-10-26T09:26:53Z</time>
      </trkpt>
      <trkpt lat="45.576980290934443" lon="7.965171961113811">
        <ele>625.58000000000004</ele>
        <time>2019-10-26T09:27:05Z</time>
      </trkpt>
      <trkpt lat="45.576967298984528" lon="7.965143211185932">
        <ele>624.75</ele>
        <time>2019-10-26T09:27:21Z</time>
      </trkpt>
      <trkpt lat="45.576951876282692" lon="7.965145390480757">
        <ele>624.08000000000004</ele>
        <time>2019-10-26T09:27:35Z</time>
      </trkpt>
      <trkpt lat="45.576945254579186" lon="7.965142289176583">
        <ele>623.72000000000003</ele>
        <time>2019-10-26T09:27:51Z</time>
      </trkpt>
      <trkpt lat="45.576942823827267" lon="7.965137679129839">
        <ele>623.39999999999998</ele>
        <time>2019-10-26T09:28:10Z</time>
      </trkpt>
      <trkpt lat="45.576941231265664" lon="7.965145725756884">
        <ele>623.13999999999999</ele>
        <time>2019-10-26T09:28:39Z</time>
      </trkpt>
      <trkpt lat="45.57692589238286" lon="7.965151173993945">
        <ele>622.01999999999998</ele>
        <time>2019-10-26T09:28:54Z</time>
      </trkpt>
      <trkpt lat="45.576918348670006" lon="7.965175397694111">
        <ele>621.20000000000005</ele>
        <time>2019-10-26T09:29:11Z</time>
      </trkpt>
      <trkpt lat="45.576928155496716" lon="7.965173302218318">
        <ele>621.15999999999997</ele>
        <time>2019-10-26T09:29:17Z</time>
      </trkpt>
      <trkpt lat="45.576939135789871" lon="7.965189479291439">
        <ele>620.69000000000005</ele>
        <time>2019-10-26T09:29:37Z</time>
      </trkpt>
      <trkpt lat="45.57693368755281" lon="7.965197945013642">
        <ele>619.5</ele>
        <time>2019-10-26T09:29:55Z</time>
      </trkpt>
      <trkpt lat="45.576937291771173" lon="7.96518755145371">
        <ele>617.80999999999995</ele>
        <time>2019-10-26T09:30:14Z</time>
      </trkpt>
      <trkpt lat="45.576927568763494" lon="7.965111779049039">
        <ele>617.02999999999997</ele>
        <time>2019-10-26T09:30:32Z</time>
      </trkpt>
      <trkpt lat="45.576923042535782" lon="7.965092835947871">
        <ele>616.33000000000004</ele>
        <time>2019-10-26T09:30:49Z</time>
      </trkpt>
      <trkpt lat="45.576933519914746" lon="7.965083783492446">
        <ele>615.60000000000002</ele>
        <time>2019-10-26T09:31:05Z</time>
      </trkpt>
      <trkpt lat="45.57691466063261" lon="7.965114377439022">
        <ele>614.44000000000005</ele>
        <time>2019-10-26T09:31:23Z</time>
      </trkpt>
      <trkpt lat="45.576907116919756" lon="7.965107169002295">
        <ele>613.20000000000005</ele>
        <time>2019-10-26T09:31:39Z</time>
      </trkpt>
      <trkpt lat="45.576924467459321" lon="7.965119071304798">
        <ele>613.30999999999995</ele>
        <time>2019-10-26T09:31:57Z</time>
      </trkpt>
      <trkpt lat="45.576921533793211" lon="7.96514262445271">
        <ele>613.05999999999995</ele>
        <time>2019-10-26T09:32:02Z</time>
      </trkpt>
      <trkpt lat="45.57687652297318" lon="7.965242201462388">
        <ele>613.36000000000001</ele>
        <time>2019-10-26T09:32:12Z</time>
      </trkpt>
      <trkpt lat="45.576878199353814" lon="7.965271202847362">
        <ele>613.67999999999995</ele>
        <time>2019-10-26T09:32:24Z</time>
      </trkpt>
      <trkpt lat="45.576903261244297" lon="7.965304646641016">
        <ele>614.29999999999995</ele>
        <time>2019-10-26T09:32:34Z</time>
      </trkpt>
      <trkpt lat="45.576916504651308" lon="7.965309340506792">
        <ele>613.67999999999995</ele>
        <time>2019-10-26T09:32:45Z</time>
      </trkpt>
      <trkpt lat="45.576936872676015" lon="7.965301377698779">
        <ele>613.76999999999998</ele>
        <time>2019-10-26T09:33:01Z</time>
      </trkpt>
      <trkpt lat="45.576944248750806" lon="7.96530632302165">
        <ele>613.76999999999998</ele>
        <time>2019-10-26T09:33:15Z</time>
      </trkpt>
      <trkpt lat="45.576959839090705" lon="7.965307161211968">
        <ele>613.11000000000001</ele>
        <time>2019-10-26T09:33:28Z</time>
      </trkpt>
      <trkpt lat="45.576988002285361" lon="7.9653141181916">
        <ele>613.64999999999998</ele>
        <time>2019-10-26T09:33:39Z</time>
      </trkpt>
      <trkpt lat="45.57699236087501" lon="7.965309172868729">
        <ele>613.77999999999997</ele>
        <time>2019-10-26T09:33:55Z</time>
      </trkpt>
      <trkpt lat="45.57699479162693" lon="7.965317806228995">
        <ele>611.76999999999998</ele>
        <time>2019-10-26T09:34:14Z</time>
      </trkpt>
      <trkpt lat="45.577007532119751" lon="7.965331301093102">
        <ele>612.41999999999996</ele>
        <time>2019-10-26T09:34:38Z</time>
      </trkpt>
      <trkpt lat="45.577012645080686" lon="7.965318728238344">
        <ele>612.61000000000001</ele>
        <time>2019-10-26T09:34:52Z</time>
      </trkpt>
      <trkpt lat="45.577018680050969" lon="7.965305987745524">
        <ele>613.66999999999996</ele>
        <time>2019-10-26T09:35:03Z</time>
      </trkpt>
      <trkpt lat="45.576998144388199" lon="7.965295845642686">
        <ele>614.02999999999997</ele>
        <time>2019-10-26T09:35:17Z</time>
      </trkpt>
      <trkpt lat="45.576985320076346" lon="7.965329792350531">
        <ele>613.82000000000005</ele>
        <time>2019-10-26T09:35:32Z</time>
      </trkpt>
      <trkpt lat="45.576980877667665" lon="7.965334318578243">
        <ele>613.63</ele>
        <time>2019-10-26T09:35:47Z</time>
      </trkpt>
      <trkpt lat="45.576961012557149" lon="7.965328535065055">
        <ele>613.50999999999999</ele>
        <time>2019-10-26T09:36:03Z</time>
      </trkpt>
      <trkpt lat="45.576959000900388" lon="7.965304646641016">
        <ele>613.21000000000004</ele>
        <time>2019-10-26T09:36:11Z</time>
      </trkpt>
      <trkpt lat="45.576961683109403" lon="7.965307580307126">
        <ele>613.15999999999997</ele>
        <time>2019-10-26T09:36:21Z</time>
      </trkpt>
      <trkpt lat="45.576959922909737" lon="7.965317890048027">
        <ele>613.27999999999997</ele>
        <time>2019-10-26T09:36:40Z</time>
      </trkpt>
      <trkpt lat="45.576978111639619" lon="7.965362397953868">
        <ele>613.82000000000005</ele>
        <time>2019-10-26T09:36:46Z</time>
      </trkpt>
      <trkpt lat="45.577010633423924" lon="7.965394333004952">
        <ele>614.38</ele>
        <time>2019-10-26T09:36:55Z</time>
      </trkpt>
      <trkpt lat="45.577083388343453" lon="7.965339599177241">
        <ele>615.09000000000003</ele>
        <time>2019-10-26T09:37:11Z</time>
      </trkpt>
      <trkpt lat="45.577125130221248" lon="7.965369271114469">
        <ele>615.29999999999995</ele>
        <time>2019-10-26T09:37:25Z</time>
      </trkpt>
      <trkpt lat="45.57714868336916" lon="7.965418891981244">
        <ele>617.32000000000005</ele>
        <time>2019-10-26T09:37:40Z</time>
      </trkpt>
      <trkpt lat="45.577171146869659" lon="7.965399781242013">
        <ele>618.89999999999998</ele>
        <time>2019-10-26T09:37:53Z</time>
      </trkpt>
      <trkpt lat="45.577165614813566" lon="7.965374300256372">
        <ele>621.23000000000002</ele>
        <time>2019-10-26T09:38:08Z</time>
      </trkpt>
      <trkpt lat="45.577194448560476" lon="7.96534638851881">
        <ele>622.08000000000004</ele>
        <time>2019-10-26T09:38:23Z</time>
      </trkpt>
      <trkpt lat="45.577206015586853" lon="7.965345550328493">
        <ele>622.66999999999996</ele>
        <time>2019-10-26T09:38:37Z</time>
      </trkpt>
      <trkpt lat="45.577218420803547" lon="7.965385196730495">
        <ele>624.80999999999995</ele>
        <time>2019-10-26T09:38:50Z</time>
      </trkpt>
      <trkpt lat="45.577237531542778" lon="7.965427106246352">
        <ele>627.32000000000005</ele>
        <time>2019-10-26T09:39:06Z</time>
      </trkpt>
      <trkpt lat="45.577262509614229" lon="7.965435488149524">
        <ele>629.12</ele>
        <time>2019-10-26T09:39:18Z</time>
      </trkpt>
      <trkpt lat="45.577256809920073" lon="7.965405061841011">
        <ele>629.28999999999996</ele>
        <time>2019-10-26T09:39:30Z</time>
      </trkpt>
      <trkpt lat="45.577265191823244" lon="7.965389136224985">
        <ele>629.66999999999996</ele>
        <time>2019-10-26T09:39:44Z</time>
      </trkpt>
      <trkpt lat="45.577309699729085" lon="7.96539424918592">
        <ele>631.82000000000005</ele>
        <time>2019-10-26T09:39:56Z</time>
      </trkpt>
      <trkpt lat="45.577394524589181" lon="7.965359296649694">
        <ele>633.61000000000001</ele>
        <time>2019-10-26T09:40:08Z</time>
      </trkpt>
      <trkpt lat="45.577481780201197" lon="7.965410258620977">
        <ele>636.26999999999998</ele>
        <time>2019-10-26T09:40:22Z</time>
      </trkpt>
      <trkpt lat="45.577541040256619" lon="7.965446384623647">
        <ele>636.38999999999999</ele>
        <time>2019-10-26T09:40:35Z</time>
      </trkpt>
      <trkpt lat="45.577568951994181" lon="7.965455604717135">
        <ele>635.87</ele>
        <time>2019-10-26T09:40:48Z</time>
      </trkpt>
      <trkpt lat="45.577599629759789" lon="7.965442445129156">
        <ele>634.95000000000005</ele>
        <time>2019-10-26T09:41:01Z</time>
      </trkpt>
      <trkpt lat="45.577624021098018" lon="7.965436410158873">
        <ele>634.38999999999999</ele>
        <time>2019-10-26T09:41:18Z</time>
      </trkpt>
      <trkpt lat="45.577630307525396" lon="7.965375473722816">
        <ele>635.73000000000002</ele>
        <time>2019-10-26T09:41:32Z</time>
      </trkpt>
      <trkpt lat="45.577676491811872" lon="7.965363152325153">
        <ele>638.85000000000002</ele>
        <time>2019-10-26T09:41:46Z</time>
      </trkpt>
      <trkpt lat="45.577726950868964" lon="7.965388717129827">
        <ele>641.34000000000003</ele>
        <time>2019-10-26T09:42:01Z</time>
      </trkpt>
      <trkpt lat="45.577746396884322" lon="7.965429285541177">
        <ele>643.77999999999997</ele>
        <time>2019-10-26T09:42:14Z</time>
      </trkpt>
      <trkpt lat="45.577752683311701" lon="7.96542258001864">
        <ele>642.00999999999999</ele>
        <time>2019-10-26T09:42:30Z</time>
      </trkpt>
      <trkpt lat="45.577706834301353" lon="7.965349908918142">
        <ele>642.01999999999998</ele>
        <time>2019-10-26T09:42:53Z</time>
      </trkpt>
      <trkpt lat="45.577691914513707" lon="7.965365750715137">
        <ele>641.75</ele>
        <time>2019-10-26T09:43:27Z</time>
      </trkpt>
      <trkpt lat="45.577697362750769" lon="7.965380167588592">
        <ele>642.37</ele>
        <time>2019-10-26T09:43:45Z</time>
      </trkpt>
      <trkpt lat="45.577710941433907" lon="7.965406151488423">
        <ele>642.35000000000002</ele>
        <time>2019-10-26T09:44:01Z</time>
      </trkpt>
      <trkpt lat="45.577708762139082" lon="7.965431464836001">
        <ele>641.84000000000003</ele>
        <time>2019-10-26T09:44:24Z</time>
      </trkpt>
      <trkpt lat="45.577727872878313" lon="7.965464740991592">
        <ele>642</ele>
        <time>2019-10-26T09:44:46Z</time>
      </trkpt>
      <trkpt lat="45.577728794887662" lon="7.965451665222645">
        <ele>642.61000000000001</ele>
        <time>2019-10-26T09:44:50Z</time>
      </trkpt>
      <trkpt lat="45.577725358307362" lon="7.965432805940509">
        <ele>642.03999999999996</ele>
        <time>2019-10-26T09:45:07Z</time>
      </trkpt>
      <trkpt lat="45.577702475711703" lon="7.965506566688418">
        <ele>643.39999999999998</ele>
        <time>2019-10-26T09:45:21Z</time>
      </trkpt>
      <trkpt lat="45.577713623642921" lon="7.96556037850678">
        <ele>645.66999999999996</ele>
        <time>2019-10-26T09:45:37Z</time>
      </trkpt>
      <trkpt lat="45.577739607542753" lon="7.965547805652022">
        <ele>646.17999999999995</ele>
        <time>2019-10-26T09:45:50Z</time>
      </trkpt>
      <trkpt lat="45.577772632241249" lon="7.965559875592589">
        <ele>648.82000000000005</ele>
        <time>2019-10-26T09:46:06Z</time>
      </trkpt>
      <trkpt lat="45.577843794599175" lon="7.965526767075062">
        <ele>651.63999999999999</ele>
        <time>2019-10-26T09:46:21Z</time>
      </trkpt>
      <trkpt lat="45.577916381880641" lon="7.965519642457366">
        <ele>653.13999999999999</ele>
        <time>2019-10-26T09:46:33Z</time>
      </trkpt>
      <trkpt lat="45.577969942241907" lon="7.965503884479404">
        <ele>652.63999999999999</ele>
        <time>2019-10-26T09:46:48Z</time>
      </trkpt>
      <trkpt lat="45.578012019395828" lon="7.965411180630326">
        <ele>649.50999999999999</ele>
        <time>2019-10-26T09:47:00Z</time>
      </trkpt>
      <trkpt lat="45.578012941405177" lon="7.965389806777239">
        <ele>649.23000000000002</ele>
        <time>2019-10-26T09:47:01Z</time>
      </trkpt>
      <trkpt lat="45.57805459946394" lon="7.965316129848361">
        <ele>648.73000000000002</ele>
        <time>2019-10-26T09:47:06Z</time>
      </trkpt>
      <trkpt lat="45.57806583121419" lon="7.965293247252703">
        <ele>648.63999999999999</ele>
        <time>2019-10-26T09:47:08Z</time>
      </trkpt>
      <trkpt lat="45.578124672174454" lon="7.965236585587263">
        <ele>648.38</ele>
        <time>2019-10-26T09:47:19Z</time>
      </trkpt>
      <trkpt lat="45.578183932229877" lon="7.965207416564226">
        <ele>650.28999999999996</ele>
        <time>2019-10-26T09:47:32Z</time>
      </trkpt>
      <trkpt lat="45.578229445964098" lon="7.965169949457049">
        <ele>652.32000000000005</ele>
        <time>2019-10-26T09:47:46Z</time>
      </trkpt>
      <trkpt lat="45.578281749039888" lon="7.965158885344863">
        <ele>654.32000000000005</ele>
        <time>2019-10-26T09:47:59Z</time>
      </trkpt>
      <trkpt lat="45.578357605263591" lon="7.965152598917484">
        <ele>656.89999999999998</ele>
        <time>2019-10-26T09:48:12Z</time>
      </trkpt>
      <trkpt lat="45.578419463708997" lon="7.965153018012643">
        <ele>659.33000000000004</ele>
        <time>2019-10-26T09:48:27Z</time>
      </trkpt>
      <trkpt lat="45.578505378216505" lon="7.96512259170413">
        <ele>658.30999999999995</ele>
        <time>2019-10-26T09:48:39Z</time>
      </trkpt>
      <trkpt lat="45.578588610514998" lon="7.96507372520864">
        <ele>657.26999999999998</ele>
        <time>2019-10-26T09:48:55Z</time>
      </trkpt>
      <trkpt lat="45.578626245260239" lon="7.965017231181264">
        <ele>655.05999999999995</ele>
        <time>2019-10-26T09:49:12Z</time>
      </trkpt>
      <trkpt lat="45.578640326857567" lon="7.9649842903018">
        <ele>653.88999999999999</ele>
        <time>2019-10-26T09:49:27Z</time>
      </trkpt>
      <trkpt lat="45.578650804236531" lon="7.964921006932855">
        <ele>652.66999999999996</ele>
        <time>2019-10-26T09:49:40Z</time>
      </trkpt>
      <trkpt lat="45.578685589134693" lon="7.964805671945214">
        <ele>654.49000000000001</ele>
        <time>2019-10-26T09:49:51Z</time>
      </trkpt>
      <trkpt lat="45.578705705702305" lon="7.964703748002648">
        <ele>653.34000000000003</ele>
        <time>2019-10-26T09:50:00Z</time>
      </trkpt>
      <trkpt lat="45.578715931624174" lon="7.964659910649061">
        <ele>652.75999999999999</ele>
        <time>2019-10-26T09:50:03Z</time>
      </trkpt>
      <trkpt lat="45.578724732622504" lon="7.964631412178278">
        <ele>652.63</ele>
        <time>2019-10-26T09:50:05Z</time>
      </trkpt>
      <trkpt lat="45.578738898038864" lon="7.96457483433187">
        <ele>652.38999999999999</ele>
        <time>2019-10-26T09:50:18Z</time>
      </trkpt>
      <trkpt lat="45.578746190294623" lon="7.964542396366596">
        <ele>652.26999999999998</ele>
        <time>2019-10-26T09:50:23Z</time>
      </trkpt>
      <trkpt lat="45.578810060396791" lon="7.964439131319523">
        <ele>651.30999999999995</ele>
        <time>2019-10-26T09:50:36Z</time>
      </trkpt>
      <trkpt lat="45.578874936327338" lon="7.964308373630047">
        <ele>651.24000000000001</ele>
        <time>2019-10-26T09:50:49Z</time>
      </trkpt>
      <trkpt lat="45.578902680426836" lon="7.964172000065446">
        <ele>651.50999999999999</ele>
        <time>2019-10-26T09:51:01Z</time>
      </trkpt>
      <trkpt lat="45.578944003209472" lon="7.964129336178303">
        <ele>650.35000000000002</ele>
        <time>2019-10-26T09:51:13Z</time>
      </trkpt>
      <trkpt lat="45.57901818305254" lon="7.963993297889829">
        <ele>651.79999999999995</ele>
        <time>2019-10-26T09:51:29Z</time>
      </trkpt>
      <trkpt lat="45.579054560512304" lon="7.963905539363623">
        <ele>652.54999999999995</ele>
        <time>2019-10-26T09:51:41Z</time>
      </trkpt>
      <trkpt lat="45.57909538038075" lon="7.963796490803361">
        <ele>651.58000000000004</ele>
        <time>2019-10-26T09:51:54Z</time>
      </trkpt>
      <trkpt lat="45.579113904386759" lon="7.963675875216723">
        <ele>648.88</ele>
        <time>2019-10-26T09:52:05Z</time>
      </trkpt>
      <trkpt lat="45.579162016510963" lon="7.963559534400702">
        <ele>648.13999999999999</ele>
        <time>2019-10-26T09:52:21Z</time>
      </trkpt>
      <trkpt lat="45.579182552173734" lon="7.963438583537936">
        <ele>645.14999999999998</ele>
        <time>2019-10-26T09:52:37Z</time>
      </trkpt>
      <trkpt lat="45.579174840822816" lon="7.963382257148624">
        <ele>644.47000000000003</ele>
        <time>2019-10-26T09:52:40Z</time>
      </trkpt>
      <trkpt lat="45.579222785308957" lon="7.963285865262151">
        <ele>644.35000000000002</ele>
        <time>2019-10-26T09:52:52Z</time>
      </trkpt>
      <trkpt lat="45.579286906868219" lon="7.963283685967326">
        <ele>642.88999999999999</ele>
        <time>2019-10-26T09:53:03Z</time>
      </trkpt>
      <trkpt lat="45.579352956265211" lon="7.963255690410733">
        <ele>643.41999999999996</ele>
        <time>2019-10-26T09:53:15Z</time>
      </trkpt>
      <trkpt lat="45.579358404502273" lon="7.963178073987365">
        <ele>641.66999999999996</ele>
        <time>2019-10-26T09:53:29Z</time>
      </trkpt>
      <trkpt lat="45.579379023984075" lon="7.96311529353261">
        <ele>640.63999999999999</ele>
        <time>2019-10-26T09:53:40Z</time>
      </trkpt>
      <trkpt lat="45.579391596838832" lon="7.963090650737286">
        <ele>641.39999999999998</ele>
        <time>2019-10-26T09:53:51Z</time>
      </trkpt>
      <trkpt lat="45.57937340810895" lon="7.963110012933612">
        <ele>641.13999999999999</ele>
        <time>2019-10-26T09:54:11Z</time>
      </trkpt>
      <trkpt lat="45.579388998448849" lon="7.963107079267502">
        <ele>641.11000000000001</ele>
        <time>2019-10-26T09:54:25Z</time>
      </trkpt>
      <trkpt lat="45.579392770305276" lon="7.963048405945301">
        <ele>640.53999999999996</ele>
        <time>2019-10-26T09:54:46Z</time>
      </trkpt>
      <trkpt lat="45.579436691477895" lon="7.962946901097894">
        <ele>640.66999999999996</ele>
        <time>2019-10-26T09:54:58Z</time>
      </trkpt>
      <trkpt lat="45.579487737268209" lon="7.962855622172356">
        <ele>641.38999999999999</ele>
        <time>2019-10-26T09:55:10Z</time>
      </trkpt>
      <trkpt lat="45.579503579065204" lon="7.962763421237469">
        <ele>642.37</ele>
        <time>2019-10-26T09:55:20Z</time>
      </trkpt>
      <trkpt lat="45.579494023695588" lon="7.962622018530965">
        <ele>641.63999999999999</ele>
        <time>2019-10-26T09:55:32Z</time>
      </trkpt>
      <trkpt lat="45.57952344417572" lon="7.962542809545994">
        <ele>640.98000000000002</ele>
        <time>2019-10-26T09:55:46Z</time>
      </trkpt>
      <trkpt lat="45.579522773623466" lon="7.962472401559353">
        <ele>639.54999999999995</ele>
        <time>2019-10-26T09:55:58Z</time>
      </trkpt>
      <trkpt lat="45.579506764188409" lon="7.962393276393414">
        <ele>636.84000000000003</ele>
        <time>2019-10-26T09:56:12Z</time>
      </trkpt>
      <trkpt lat="45.579495197162032" lon="7.962365951389074">
        <ele>636.08000000000004</ele>
        <time>2019-10-26T09:56:30Z</time>
      </trkpt>
      <trkpt lat="45.579483630135655" lon="7.962335022166371">
        <ele>634.99000000000001</ele>
        <time>2019-10-26T09:56:45Z</time>
      </trkpt>
      <trkpt lat="45.579458819702268" lon="7.96229537576437">
        <ele>633.21000000000004</ele>
        <time>2019-10-26T09:57:03Z</time>
      </trkpt>
      <trkpt lat="45.579426297917962" lon="7.962280875071883">
        <ele>631.57000000000005</ele>
        <time>2019-10-26T09:57:15Z</time>
      </trkpt>
      <trkpt lat="45.579423950985074" lon="7.962219016626477">
        <ele>629.99000000000001</ele>
        <time>2019-10-26T09:57:30Z</time>
      </trkpt>
      <trkpt lat="45.579412635415792" lon="7.962239468470216">
        <ele>629.45000000000005</ele>
        <time>2019-10-26T09:57:47Z</time>
      </trkpt>
      <trkpt lat="45.579401655122638" lon="7.962210383266211">
        <ele>629.20000000000005</ele>
        <time>2019-10-26T09:57:59Z</time>
      </trkpt>
      <trkpt lat="45.57940224185586" lon="7.96217174269259">
        <ele>630.41999999999996</ele>
        <time>2019-10-26T09:58:09Z</time>
      </trkpt>
      <trkpt lat="45.579424537718296" lon="7.962145088240504">
        <ele>630.34000000000003</ele>
        <time>2019-10-26T09:58:20Z</time>
      </trkpt>
      <trkpt lat="45.579401571303606" lon="7.962136622518301">
        <ele>630.33000000000004</ele>
        <time>2019-10-26T09:58:33Z</time>
      </trkpt>
      <trkpt lat="45.579397715628147" lon="7.962120780721307">
        <ele>630.25</ele>
        <time>2019-10-26T09:58:40Z</time>
      </trkpt>
      <trkpt lat="45.579392518848181" lon="7.962083984166384">
        <ele>630.14999999999998</ele>
        <time>2019-10-26T09:58:48Z</time>
      </trkpt>
      <trkpt lat="45.579382795840502" lon="7.962057748809457">
        <ele>631.92999999999995</ele>
        <time>2019-10-26T09:58:56Z</time>
      </trkpt>
      <trkpt lat="45.579418754205108" lon="7.962082726880908">
        <ele>632.16999999999996</ele>
        <time>2019-10-26T09:59:13Z</time>
      </trkpt>
      <trkpt lat="45.579427890479565" lon="7.962100328877568">
        <ele>632.39999999999998</ele>
        <time>2019-10-26T09:59:30Z</time>
      </trkpt>
      <trkpt lat="45.579413222149014" lon="7.962117092683911">
        <ele>633.08000000000004</ele>
        <time>2019-10-26T09:59:43Z</time>
      </trkpt>
      <trkpt lat="45.579407187178731" lon="7.962108878418803">
        <ele>633.24000000000001</ele>
        <time>2019-10-26T09:59:59Z</time>
      </trkpt>
      <trkpt lat="45.579407773911953" lon="7.962098401039839">
        <ele>633.70000000000005</ele>
        <time>2019-10-26T10:00:15Z</time>
      </trkpt>
      <trkpt lat="45.579425878822803" lon="7.9621038492769">
        <ele>633.98000000000002</ele>
        <time>2019-10-26T10:00:30Z</time>
      </trkpt>
      <trkpt lat="45.579426884651184" lon="7.962116086855531">
        <ele>633.92999999999995</ele>
        <time>2019-10-26T10:00:50Z</time>
      </trkpt>
      <trkpt lat="45.579420933499932" lon="7.962128072977066">
        <ele>633.98000000000002</ele>
        <time>2019-10-26T10:01:02Z</time>
      </trkpt>
      <trkpt lat="45.57942034676671" lon="7.962127570062876">
        <ele>634.25</ele>
        <time>2019-10-26T10:01:05Z</time>
      </trkpt>
      <trkpt lat="45.579406265169382" lon="7.962108459323645">
        <ele>635.08000000000004</ele>
        <time>2019-10-26T10:01:15Z</time>
      </trkpt>
      <trkpt lat="45.57941934093833" lon="7.962127067148686">
        <ele>635.35000000000002</ele>
        <time>2019-10-26T10:01:37Z</time>
      </trkpt>
      <trkpt lat="45.579412467777729" lon="7.962119020521641">
        <ele>635.40999999999997</ele>
        <time>2019-10-26T10:01:59Z</time>
      </trkpt>
      <trkpt lat="45.579407019540668" lon="7.962121032178402">
        <ele>635.45000000000005</ele>
        <time>2019-10-26T10:02:17Z</time>
      </trkpt>
      <trkpt lat="45.579401403665543" lon="7.962122289463878">
        <ele>635.46000000000004</ele>
        <time>2019-10-26T10:02:29Z</time>
      </trkpt>
      <trkpt lat="45.579401655122638" lon="7.962118266150355">
        <ele>635.75</ele>
        <time>2019-10-26T10:02:41Z</time>
      </trkpt>
      <trkpt lat="45.579393273219466" lon="7.962091444060206">
        <ele>635.82000000000005</ele>
        <time>2019-10-26T10:02:56Z</time>
      </trkpt>
      <trkpt lat="45.579394530504942" lon="7.962060682475567">
        <ele>635.59000000000003</ele>
        <time>2019-10-26T10:03:15Z</time>
      </trkpt>
      <trkpt lat="45.579435601830482" lon="7.962077278643847">
        <ele>634.73000000000002</ele>
        <time>2019-10-26T10:03:35Z</time>
      </trkpt>
      <trkpt lat="45.579434428364038" lon="7.962077194824815">
        <ele>634.23000000000002</ele>
        <time>2019-10-26T10:03:50Z</time>
      </trkpt>
      <trkpt lat="45.579395284876227" lon="7.962054563686252">
        <ele>633.59000000000003</ele>
        <time>2019-10-26T10:04:08Z</time>
      </trkpt>
      <trkpt lat="45.579361086711287" lon="7.962064202874899">
        <ele>632.63999999999999</ele>
        <time>2019-10-26T10:04:25Z</time>
      </trkpt>
      <trkpt lat="45.579345496371388" lon="7.962049534544349">
        <ele>632.26999999999998</ele>
        <time>2019-10-26T10:04:27Z</time>
      </trkpt>
      <trkpt lat="45.57929864153266" lon="7.962041990831494">
        <ele>631.62</ele>
        <time>2019-10-26T10:04:42Z</time>
      </trkpt>
      <trkpt lat="45.579287074506283" lon="7.962044589221478">
        <ele>631.74000000000001</ele>
        <time>2019-10-26T10:04:56Z</time>
      </trkpt>
      <trkpt lat="45.579266622662544" lon="7.962032435461879">
        <ele>631.12</ele>
        <time>2019-10-26T10:05:13Z</time>
      </trkpt>
      <trkpt lat="45.579267460852861" lon="7.962006786838174">
        <ele>630.95000000000005</ele>
        <time>2019-10-26T10:05:29Z</time>
      </trkpt>
      <trkpt lat="45.579278189688921" lon="7.961948029696941">
        <ele>631.53999999999996</ele>
        <time>2019-10-26T10:05:40Z</time>
      </trkpt>
      <trkpt lat="45.57926251552999" lon="7.961905533447862">
        <ele>633.21000000000004</ele>
        <time>2019-10-26T10:05:52Z</time>
      </trkpt>
      <trkpt lat="45.579259917140007" lon="7.961886925622821">
        <ele>634.28999999999996</ele>
        <time>2019-10-26T10:06:03Z</time>
      </trkpt>
      <trkpt lat="45.579249691218138" lon="7.961824899539352">
        <ele>634.96000000000004</ele>
        <time>2019-10-26T10:06:14Z</time>
      </trkpt>
      <trkpt lat="45.579249020665884" lon="7.961809895932674">
        <ele>635.42999999999995</ele>
        <time>2019-10-26T10:06:30Z</time>
      </trkpt>
      <trkpt lat="45.579245919361711" lon="7.961777122691274">
        <ele>635.42999999999995</ele>
        <time>2019-10-26T10:06:41Z</time>
      </trkpt>
      <trkpt lat="45.579252960160375" lon="7.961761951446533">
        <ele>635.77999999999997</ele>
        <time>2019-10-26T10:06:55Z</time>
      </trkpt>
      <trkpt lat="45.57923418469727" lon="7.961742421612144">
        <ele>635.53999999999996</ele>
        <time>2019-10-26T10:06:59Z</time>
      </trkpt>
      <trkpt lat="45.579215912148356" lon="7.96173688955605">
        <ele>635.75999999999999</ele>
        <time>2019-10-26T10:07:07Z</time>
      </trkpt>
      <trkpt lat="45.579176768660545" lon="7.961790952831507">
        <ele>636.14999999999998</ele>
        <time>2019-10-26T10:07:24Z</time>
      </trkpt>
      <trkpt lat="45.579172410070896" lon="7.961729932576418">
        <ele>636.5</ele>
        <time>2019-10-26T10:07:39Z</time>
      </trkpt>
      <trkpt lat="45.579187329858541" lon="7.961707888171077">
        <ele>636.63</ele>
        <time>2019-10-26T10:08:01Z</time>
      </trkpt>
      <trkpt lat="45.579183055087924" lon="7.961676707491279">
        <ele>635.60000000000002</ele>
        <time>2019-10-26T10:08:14Z</time>
      </trkpt>
      <trkpt lat="45.579176265746355" lon="7.961715012788773">
        <ele>636.04999999999995</ele>
        <time>2019-10-26T10:08:31Z</time>
      </trkpt>
      <trkpt lat="45.579167632386088" lon="7.961708726361394">
        <ele>636.39999999999998</ele>
        <time>2019-10-26T10:08:48Z</time>
      </trkpt>
      <trkpt lat="45.579166207462549" lon="7.961700009182096">
        <ele>636.52999999999997</ele>
        <time>2019-10-26T10:08:56Z</time>
      </trkpt>
      <trkpt lat="45.579154556617141" lon="7.96159029006958">
        <ele>636.90999999999997</ele>
        <time>2019-10-26T10:09:15Z</time>
      </trkpt>
      <trkpt lat="45.579157490283251" lon="7.96161275357008">
        <ele>636.96000000000004</ele>
        <time>2019-10-26T10:09:34Z</time>
      </trkpt>
      <trkpt lat="45.57913837954402" lon="7.961602862924337">
        <ele>637.09000000000003</ele>
        <time>2019-10-26T10:09:49Z</time>
      </trkpt>
      <trkpt lat="45.579127399250865" lon="7.961568078026176">
        <ele>636.84000000000003</ele>
        <time>2019-10-26T10:10:02Z</time>
      </trkpt>
      <trkpt lat="45.579155897721648" lon="7.961524911224842">
        <ele>637.47000000000003</ele>
        <time>2019-10-26T10:10:14Z</time>
      </trkpt>
      <trkpt lat="45.579168805852532" lon="7.961510410532355">
        <ele>637.74000000000001</ele>
        <time>2019-10-26T10:10:27Z</time>
      </trkpt>
      <trkpt lat="45.579198729246855" lon="7.961539244279265">
        <ele>637.79999999999995</ele>
        <time>2019-10-26T10:10:43Z</time>
      </trkpt>
      <trkpt lat="45.579190850257874" lon="7.961580399423838">
        <ele>638.28999999999996</ele>
        <time>2019-10-26T10:10:55Z</time>
      </trkpt>
      <trkpt lat="45.579194370657206" lon="7.961585260927677">
        <ele>639.24000000000001</ele>
        <time>2019-10-26T10:11:10Z</time>
      </trkpt>
      <trkpt lat="45.579156149178743" lon="7.961555337533355">
        <ele>638.38</ele>
        <time>2019-10-26T10:11:28Z</time>
      </trkpt>
      <trkpt lat="45.57912957854569" lon="7.961460622027516">
        <ele>638.90999999999997</ele>
        <time>2019-10-26T10:11:38Z</time>
      </trkpt>
      <trkpt lat="45.579113736748695" lon="7.961444444954395">
        <ele>639.01999999999998</ele>
        <time>2019-10-26T10:11:40Z</time>
      </trkpt>
      <trkpt lat="45.579076269641519" lon="7.961380491033196">
        <ele>639.23000000000002</ele>
        <time>2019-10-26T10:11:51Z</time>
      </trkpt>
      <trkpt lat="45.579084903001785" lon="7.961392812430859">
        <ele>639.33000000000004</ele>
        <time>2019-10-26T10:11:53Z</time>
      </trkpt>
      <trkpt lat="45.579111305996776" lon="7.961413851007819">
        <ele>639.41999999999996</ele>
        <time>2019-10-26T10:11:56Z</time>
      </trkpt>
      <trkpt lat="45.579138798639178" lon="7.961389878764749">
        <ele>639.32000000000005</ele>
        <time>2019-10-26T10:12:01Z</time>
      </trkpt>
      <trkpt lat="45.579173248261213" lon="7.961288541555405">
        <ele>639.35000000000002</ele>
        <time>2019-10-26T10:12:08Z</time>
      </trkpt>
      <trkpt lat="45.579145923256874" lon="7.961209416389465">
        <ele>639.75999999999999</ele>
        <time>2019-10-26T10:12:20Z</time>
      </trkpt>
      <trkpt lat="45.579102504998446" lon="7.961168345063925">
        <ele>639.95000000000005</ele>
        <time>2019-10-26T10:12:35Z</time>
      </trkpt>
      <trkpt lat="45.579081131145358" lon="7.96113490127027">
        <ele>640.66999999999996</ele>
        <time>2019-10-26T10:12:51Z</time>
      </trkpt>
      <trkpt lat="45.579108037054539" lon="7.961093913763762">
        <ele>640.88</ele>
        <time>2019-10-26T10:13:10Z</time>
      </trkpt>
      <trkpt lat="45.579116083681583" lon="7.961086453869939">
        <ele>640.92999999999995</ele>
        <time>2019-10-26T10:13:27Z</time>
      </trkpt>
      <trkpt lat="45.579115077853203" lon="7.961070109158754">
        <ele>640.54999999999995</ele>
        <time>2019-10-26T10:13:44Z</time>
      </trkpt>
      <trkpt lat="45.57911591604352" lon="7.961061894893646">
        <ele>640.64999999999998</ele>
        <time>2019-10-26T10:13:58Z</time>
      </trkpt>
      <trkpt lat="45.579119855538011" lon="7.961111096665263">
        <ele>640.67999999999995</ele>
        <time>2019-10-26T10:14:14Z</time>
      </trkpt>
      <trkpt lat="45.579114994034171" lon="7.961082011461258">
        <ele>640.85000000000002</ele>
        <time>2019-10-26T10:14:31Z</time>
      </trkpt>
      <trkpt lat="45.579049782827497" lon="7.961013531312347">
        <ele>641.02999999999997</ele>
        <time>2019-10-26T10:14:57Z</time>
      </trkpt>
      <trkpt lat="45.579056488350034" lon="7.96098729595542">
        <ele>640.78999999999996</ele>
        <time>2019-10-26T10:15:04Z</time>
      </trkpt>
      <trkpt lat="45.579038551077247" lon="7.960915379226208">
        <ele>640.29999999999995</ele>
        <time>2019-10-26T10:15:24Z</time>
      </trkpt>
      <trkpt lat="45.579079538583755" lon="7.960781184956431">
        <ele>641.15999999999997</ele>
        <time>2019-10-26T10:15:39Z</time>
      </trkpt>
      <trkpt lat="45.579137876629829" lon="7.960732989013195">
        <ele>640.96000000000004</ele>
        <time>2019-10-26T10:15:50Z</time>
      </trkpt>
      <trkpt lat="45.579145755618811" lon="7.960705999284983">
        <ele>640.55999999999995</ele>
        <time>2019-10-26T10:16:03Z</time>
      </trkpt>
      <trkpt lat="45.579124130308628" lon="7.960711782798171">
        <ele>641.11000000000001</ele>
        <time>2019-10-26T10:16:18Z</time>
      </trkpt>
      <trkpt lat="45.579124297946692" lon="7.960704993456602">
        <ele>640.92999999999995</ele>
        <time>2019-10-26T10:16:40Z</time>
      </trkpt>
      <trkpt lat="45.579131506383419" lon="7.960719326511025">
        <ele>641.10000000000002</ele>
        <time>2019-10-26T10:16:55Z</time>
      </trkpt>
      <trkpt lat="45.579126896336675" lon="7.960755368694663">
        <ele>641.19000000000005</ele>
        <time>2019-10-26T10:17:16Z</time>
      </trkpt>
      <trkpt lat="45.579135864973068" lon="7.960746567696333">
        <ele>640.97000000000003</ele>
        <time>2019-10-26T10:17:34Z</time>
      </trkpt>
      <trkpt lat="45.579137792810798" lon="7.960740281268954">
        <ele>640.96000000000004</ele>
        <time>2019-10-26T10:17:47Z</time>
      </trkpt>
      <trkpt lat="45.579119771718979" lon="7.96072494238615">
        <ele>641.85000000000002</ele>
        <time>2019-10-26T10:18:06Z</time>
      </trkpt>
      <trkpt lat="45.579155730083585" lon="7.96068680472672">
        <ele>643.09000000000003</ele>
        <time>2019-10-26T10:18:22Z</time>
      </trkpt>
      <trkpt lat="45.579142905771732" lon="7.960648080334067">
        <ele>642.97000000000003</ele>
        <time>2019-10-26T10:18:42Z</time>
      </trkpt>
      <trkpt lat="45.579142905771732" lon="7.960579097270966">
        <ele>643.55999999999995</ele>
        <time>2019-10-26T10:19:01Z</time>
      </trkpt>
      <trkpt lat="45.579146761447191" lon="7.960634836927056">
        <ele>643.38</ele>
        <time>2019-10-26T10:19:26Z</time>
      </trkpt>
      <trkpt lat="45.579095799475908" lon="7.960497038438916">
        <ele>643.38</ele>
        <time>2019-10-26T10:19:47Z</time>
      </trkpt>
      <trkpt lat="45.579157574102283" lon="7.960455464199185">
        <ele>641.82000000000005</ele>
        <time>2019-10-26T10:20:05Z</time>
      </trkpt>
      <trkpt lat="45.579192359000444" lon="7.960403496399522">
        <ele>642.03999999999996</ele>
        <time>2019-10-26T10:20:18Z</time>
      </trkpt>
      <trkpt lat="45.579212475568056" lon="7.96035991050303">
        <ele>642.38</ele>
        <time>2019-10-26T10:20:33Z</time>
      </trkpt>
      <trkpt lat="45.579258827492595" lon="7.960315989330411">
        <ele>642.29999999999995</ele>
        <time>2019-10-26T10:20:40Z</time>
      </trkpt>
      <trkpt lat="45.579306352883577" lon="7.960270559415221">
        <ele>643.11000000000001</ele>
        <time>2019-10-26T10:20:51Z</time>
      </trkpt>
      <trkpt lat="45.579311465844512" lon="7.960326466709375">
        <ele>643.08000000000004</ele>
        <time>2019-10-26T10:21:07Z</time>
      </trkpt>
      <trkpt lat="45.579338790848851" lon="7.960366364568472">
        <ele>643.46000000000004</ele>
        <time>2019-10-26T10:21:27Z</time>
      </trkpt>
      <trkpt lat="45.579335270449519" lon="7.960380529984832">
        <ele>643.02999999999997</ele>
        <time>2019-10-26T10:21:48Z</time>
      </trkpt>
      <trkpt lat="45.57934750802815" lon="7.960341386497021">
        <ele>642.87</ele>
        <time>2019-10-26T10:22:04Z</time>
      </trkpt>
      <trkpt lat="45.579348430037498" lon="7.960315570235252">
        <ele>642.46000000000004</ele>
        <time>2019-10-26T10:22:20Z</time>
      </trkpt>
      <trkpt lat="45.579362595453858" lon="7.960268128663302">
        <ele>643.23000000000002</ele>
        <time>2019-10-26T10:22:36Z</time>
      </trkpt>
      <trkpt lat="45.579368714243174" lon="7.960224878042936">
        <ele>644.82000000000005</ele>
        <time>2019-10-26T10:22:51Z</time>
      </trkpt>
      <trkpt lat="45.579340383410454" lon="7.96016838401556">
        <ele>644.98000000000002</ele>
        <time>2019-10-26T10:23:12Z</time>
      </trkpt>
      <trkpt lat="45.579335354268551" lon="7.960128821432591">
        <ele>645.34000000000003</ele>
        <time>2019-10-26T10:23:30Z</time>
      </trkpt>
      <trkpt lat="45.579358907416463" lon="7.960124295204878">
        <ele>645.49000000000001</ele>
        <time>2019-10-26T10:23:50Z</time>
      </trkpt>
      <trkpt lat="45.579378604888916" lon="7.960127145051956">
        <ele>645.41999999999996</ele>
        <time>2019-10-26T10:24:09Z</time>
      </trkpt>
      <trkpt lat="45.579372150823474" lon="7.960119768977165">
        <ele>645.78999999999996</ele>
        <time>2019-10-26T10:24:32Z</time>
      </trkpt>
      <trkpt lat="45.579378185793757" lon="7.960136197507381">
        <ele>645.63999999999999</ele>
        <time>2019-10-26T10:24:48Z</time>
      </trkpt>
      <trkpt lat="45.579384472221136" lon="7.960141059011221">
        <ele>645.69000000000005</ele>
        <time>2019-10-26T10:25:06Z</time>
      </trkpt>
      <trkpt lat="45.579405510798097" lon="7.960164276883006">
        <ele>645.32000000000005</ele>
        <time>2019-10-26T10:25:25Z</time>
      </trkpt>
      <trkpt lat="45.579415401443839" lon="7.960180621594191">
        <ele>645.27999999999997</ele>
        <time>2019-10-26T10:25:47Z</time>
      </trkpt>
      <trkpt lat="45.579440463334322" lon="7.960215825587511">
        <ele>645.25</ele>
        <time>2019-10-26T10:26:04Z</time>
      </trkpt>
      <trkpt lat="45.579430488869548" lon="7.960206605494022">
        <ele>644.26999999999998</ele>
        <time>2019-10-26T10:26:19Z</time>
      </trkpt>
      <trkpt lat="45.57935731485486" lon="7.960095545277">
        <ele>643.92999999999995</ele>
        <time>2019-10-26T10:26:38Z</time>
      </trkpt>
      <trkpt lat="45.579396039247513" lon="7.960097305476666">
        <ele>644.42999999999995</ele>
        <time>2019-10-26T10:26:55Z</time>
      </trkpt>
      <trkpt lat="45.579410791397095" lon="7.960078278556466">
        <ele>643.79999999999995</ele>
        <time>2019-10-26T10:27:14Z</time>
      </trkpt>
      <trkpt lat="45.579413557425141" lon="7.960053132846952">
        <ele>643.71000000000004</ele>
        <time>2019-10-26T10:27:30Z</time>
      </trkpt>
      <trkpt lat="45.579414898529649" lon="7.960027819499373">
        <ele>643.57000000000005</ele>
        <time>2019-10-26T10:27:51Z</time>
      </trkpt>
      <trkpt lat="45.579430488869548" lon="7.960027484223247">
        <ele>642.61000000000001</ele>
        <time>2019-10-26T10:28:09Z</time>
      </trkpt>
      <trkpt lat="45.579445492476225" lon="7.960035279393196">
        <ele>642.07000000000005</ele>
        <time>2019-10-26T10:28:21Z</time>
      </trkpt>
      <trkpt lat="45.579438116401434" lon="7.960023460909724">
        <ele>642.86000000000001</ele>
        <time>2019-10-26T10:28:43Z</time>
      </trkpt>
      <trkpt lat="45.579467369243503" lon="7.959998650476337">
        <ele>643.66999999999996</ele>
        <time>2019-10-26T10:29:03Z</time>
      </trkpt>
      <trkpt lat="45.579479774460196" lon="7.959969229996204">
        <ele>643.21000000000004</ele>
        <time>2019-10-26T10:29:18Z</time>
      </trkpt>
      <trkpt lat="45.579490000382066" lon="7.959933942183852">
        <ele>643.05999999999995</ele>
        <time>2019-10-26T10:29:36Z</time>
      </trkpt>
      <trkpt lat="45.57947063818574" lon="7.959938384592533">
        <ele>642.27999999999997</ele>
        <time>2019-10-26T10:29:49Z</time>
      </trkpt>
      <trkpt lat="45.579448761418462" lon="7.959898235276341">
        <ele>642.07000000000005</ele>
        <time>2019-10-26T10:30:08Z</time>
      </trkpt>
      <trkpt lat="45.579443145543337" lon="7.959855990484357">
        <ele>642.37</ele>
        <time>2019-10-26T10:30:23Z</time>
      </trkpt>
      <trkpt lat="45.579443899914622" lon="7.959847273305059">
        <ele>642.36000000000001</ele>
        <time>2019-10-26T10:30:36Z</time>
      </trkpt>
      <trkpt lat="45.579443816095591" lon="7.959856074303389">
        <ele>642.24000000000001</ele>
        <time>2019-10-26T10:30:47Z</time>
      </trkpt>
      <trkpt lat="45.579452784731984" lon="7.959857331588864">
        <ele>642.33000000000004</ele>
        <time>2019-10-26T10:31:05Z</time>
      </trkpt>
      <trkpt lat="45.57946871034801" lon="7.959829419851303">
        <ele>642.45000000000005</ele>
        <time>2019-10-26T10:31:16Z</time>
      </trkpt>
      <trkpt lat="45.579482540488243" lon="7.959806956350803">
        <ele>642.5</ele>
        <time>2019-10-26T10:31:30Z</time>
      </trkpt>
      <trkpt lat="45.579478600993752" lon="7.959802430123091">
        <ele>642.62</ele>
        <time>2019-10-26T10:31:44Z</time>
      </trkpt>
      <trkpt lat="45.579484049230814" lon="7.959789270535111">
        <ele>642.95000000000005</ele>
        <time>2019-10-26T10:32:00Z</time>
      </trkpt>
      <trkpt lat="45.579478349536657" lon="7.959760017693043">
        <ele>642.27999999999997</ele>
        <time>2019-10-26T10:32:19Z</time>
      </trkpt>
      <trkpt lat="45.57950634509325" lon="7.95974375680089">
        <ele>642.13999999999999</ele>
        <time>2019-10-26T10:32:30Z</time>
      </trkpt>
      <trkpt lat="45.579530149698257" lon="7.959718191996217">
        <ele>641.98000000000002</ele>
        <time>2019-10-26T10:32:47Z</time>
      </trkpt>
      <trkpt lat="45.579524869099259" lon="7.959710732102394">
        <ele>642.15999999999997</ele>
        <time>2019-10-26T10:33:00Z</time>
      </trkpt>
      <trkpt lat="45.579540710896254" lon="7.959686173126102">
        <ele>642.5</ele>
        <time>2019-10-26T10:33:09Z</time>
      </trkpt>
      <trkpt lat="45.579550517722964" lon="7.959647113457322">
        <ele>642.62</ele>
        <time>2019-10-26T10:33:19Z</time>
      </trkpt>
      <trkpt lat="45.579559737816453" lon="7.959615597501397">
        <ele>643.60000000000002</ele>
        <time>2019-10-26T10:33:29Z</time>
      </trkpt>
      <trkpt lat="45.57955814525485" lon="7.95958835631609">
        <ele>643.95000000000005</ele>
        <time>2019-10-26T10:33:47Z</time>
      </trkpt>
      <trkpt lat="45.579563761129975" lon="7.959546698257327">
        <ele>643.73000000000002</ele>
        <time>2019-10-26T10:34:01Z</time>
      </trkpt>
      <trkpt lat="45.579554373398423" lon="7.959530605003238">
        <ele>643.53999999999996</ele>
        <time>2019-10-26T10:34:15Z</time>
      </trkpt>
      <trkpt lat="45.579581530764699" lon="7.959538483992219">
        <ele>643.03999999999996</ele>
        <time>2019-10-26T10:34:30Z</time>
      </trkpt>
      <trkpt lat="45.579616064205766" lon="7.959541501477361">
        <ele>644.78999999999996</ele>
        <time>2019-10-26T10:34:43Z</time>
      </trkpt>
      <trkpt lat="45.579622015357018" lon="7.959565054625273">
        <ele>644.65999999999997</ele>
        <time>2019-10-26T10:34:59Z</time>
      </trkpt>
      <trkpt lat="45.579609693959355" lon="7.959572346881032">
        <ele>643.25999999999999</ele>
        <time>2019-10-26T10:35:17Z</time>
      </trkpt>
      <trkpt lat="45.579616902396083" lon="7.959613082930446">
        <ele>643.45000000000005</ele>
        <time>2019-10-26T10:35:41Z</time>
      </trkpt>
      <trkpt lat="45.57965244166553" lon="7.959701595827937">
        <ele>643.12</ele>
        <time>2019-10-26T10:36:05Z</time>
      </trkpt>
      <trkpt lat="45.579663002863526" lon="7.959740487858653">
        <ele>642.73000000000002</ele>
        <time>2019-10-26T10:36:27Z</time>
      </trkpt>
      <trkpt lat="45.579696446657181" lon="7.959721544757485">
        <ele>642.96000000000004</ele>
        <time>2019-10-26T10:36:47Z</time>
      </trkpt>
      <trkpt lat="45.579671720042825" lon="7.959718108177185">
        <ele>642.88</ele>
        <time>2019-10-26T10:37:09Z</time>
      </trkpt>
      <trkpt lat="45.579673564061522" lon="7.959691286087036">
        <ele>642.61000000000001</ele>
        <time>2019-10-26T10:37:31Z</time>
      </trkpt>
      <trkpt lat="45.579681443050504" lon="7.959742750972509">
        <ele>643.37</ele>
        <time>2019-10-26T10:37:50Z</time>
      </trkpt>
      <trkpt lat="45.57968127541244" lon="7.959741828963161">
        <ele>642.69000000000005</ele>
        <time>2019-10-26T10:37:52Z</time>
      </trkpt>
      <trkpt lat="45.579650346189737" lon="7.959712408483028">
        <ele>642.49000000000001</ele>
        <time>2019-10-26T10:38:14Z</time>
      </trkpt>
      <trkpt lat="45.579641880467534" lon="7.959643425419927">
        <ele>642.40999999999997</ele>
        <time>2019-10-26T10:38:39Z</time>
      </trkpt>
      <trkpt lat="45.57962067425251" lon="7.959599252790213">
        <ele>642.30999999999995</ele>
        <time>2019-10-26T10:39:01Z</time>
      </trkpt>
      <trkpt lat="45.579634252935648" lon="7.959591625258327">
        <ele>642.21000000000004</ele>
        <time>2019-10-26T10:39:25Z</time>
      </trkpt>
      <trkpt lat="45.579655040055513" lon="7.959651555866003">
        <ele>642.10000000000002</ele>
        <time>2019-10-26T10:39:49Z</time>
      </trkpt>
      <trkpt lat="45.579663757234812" lon="7.959622051566839">
        <ele>642.02999999999997</ele>
        <time>2019-10-26T10:40:11Z</time>
      </trkpt>
      <trkpt lat="45.579649172723293" lon="7.95967192389071">
        <ele>641.91999999999996</ele>
        <time>2019-10-26T10:40:36Z</time>
      </trkpt>
      <trkpt lat="45.579620506614447" lon="7.959626829251647">
        <ele>641.75999999999999</ele>
        <time>2019-10-26T10:40:59Z</time>
      </trkpt>
      <trkpt lat="45.579600557684898" lon="7.959616854786873">
        <ele>641.90999999999997</ele>
        <time>2019-10-26T10:41:22Z</time>
      </trkpt>
      <trkpt lat="45.579630900174379" lon="7.959620291367173">
        <ele>641.73000000000002</ele>
        <time>2019-10-26T10:42:04Z</time>
      </trkpt>
      <trkpt lat="45.579652357846498" lon="7.959583075717092">
        <ele>641.48000000000002</ele>
        <time>2019-10-26T10:42:30Z</time>
      </trkpt>
      <trkpt lat="45.579643724486232" lon="7.959573687985539">
        <ele>642.17999999999995</ele>
        <time>2019-10-26T10:42:48Z</time>
      </trkpt>
      <trkpt lat="45.579656297340989" lon="7.959566479548812">
        <ele>642.44000000000005</ele>
        <time>2019-10-26T10:43:05Z</time>
      </trkpt>
      <trkpt lat="45.579648250713944" lon="7.959561115130782">
        <ele>642.58000000000004</ele>
        <time>2019-10-26T10:43:20Z</time>
      </trkpt>
      <trkpt lat="45.579626122489572" lon="7.959544183686376">
        <ele>643.16999999999996</ele>
        <time>2019-10-26T10:43:27Z</time>
      </trkpt>
      <trkpt lat="45.579616064205766" lon="7.959539657458663">
        <ele>642.90999999999997</ele>
        <time>2019-10-26T10:43:44Z</time>
      </trkpt>
      <trkpt lat="45.579623943194747" lon="7.959518954157829">
        <ele>642.47000000000003</ele>
        <time>2019-10-26T10:44:05Z</time>
      </trkpt>
      <trkpt lat="45.579611454159021" lon="7.959519708529115">
        <ele>642.5</ele>
        <time>2019-10-26T10:44:23Z</time>
      </trkpt>
      <trkpt lat="45.579594941809773" lon="7.959509398788214">
        <ele>642.65999999999997</ele>
        <time>2019-10-26T10:44:41Z</time>
      </trkpt>
      <trkpt lat="45.579608352854848" lon="7.959517948329449">
        <ele>642.82000000000005</ele>
        <time>2019-10-26T10:44:58Z</time>
      </trkpt>
      <trkpt lat="45.579616818577051" lon="7.959532700479031">
        <ele>643.13999999999999</ele>
        <time>2019-10-26T10:45:14Z</time>
      </trkpt>
      <trkpt lat="45.579609861597419" lon="7.95953119173646">
        <ele>642.85000000000002</ele>
        <time>2019-10-26T10:45:34Z</time>
      </trkpt>
      <trkpt lat="45.579591672867537" lon="7.959490455687046">
        <ele>642.77999999999997</ele>
        <time>2019-10-26T10:45:52Z</time>
      </trkpt>
      <trkpt lat="45.579588236287236" lon="7.959487941116095">
        <ele>642.82000000000005</ele>
        <time>2019-10-26T10:46:13Z</time>
      </trkpt>
      <trkpt lat="45.579587817192078" lon="7.959478385746479">
        <ele>642.91999999999996</ele>
        <time>2019-10-26T10:46:35Z</time>
      </trkpt>
      <trkpt lat="45.579595696181059" lon="7.959480062127113">
        <ele>643.03999999999996</ele>
        <time>2019-10-26T10:46:56Z</time>
      </trkpt>
      <trkpt lat="45.579588990658522" lon="7.959420047700405">
        <ele>642.84000000000003</ele>
        <time>2019-10-26T10:47:21Z</time>
      </trkpt>
      <trkpt lat="45.579581446945667" lon="7.959424071013928">
        <ele>642.88</ele>
        <time>2019-10-26T10:47:40Z</time>
      </trkpt>
      <trkpt lat="45.579583961516619" lon="7.959448881447315">
        <ele>642.38</ele>
        <time>2019-10-26T10:47:57Z</time>
      </trkpt>
      <trkpt lat="45.579597456380725" lon="7.959504034370184">
        <ele>642.29999999999995</ele>
        <time>2019-10-26T10:48:18Z</time>
      </trkpt>
      <trkpt lat="45.579607933759689" lon="7.959521720185876">
        <ele>642.76999999999998</ele>
        <time>2019-10-26T10:48:33Z</time>
      </trkpt>
      <trkpt lat="45.579612292349339" lon="7.959541417658329">
        <ele>642.5</ele>
        <time>2019-10-26T10:48:53Z</time>
      </trkpt>
      <trkpt lat="45.579639365896583" lon="7.959558935835958">
        <ele>642.21000000000004</ele>
        <time>2019-10-26T10:49:23Z</time>
      </trkpt>
      <trkpt lat="45.579639952629805" lon="7.959574023261666">
        <ele>642.40999999999997</ele>
        <time>2019-10-26T10:49:39Z</time>
      </trkpt>
      <trkpt lat="45.579629139974713" lon="7.959579722955823">
        <ele>642.17999999999995</ele>
        <time>2019-10-26T10:49:57Z</time>
      </trkpt>
      <trkpt lat="45.5796143040061" lon="7.959543094038963">
        <ele>642.49000000000001</ele>
        <time>2019-10-26T10:50:28Z</time>
      </trkpt>
      <trkpt lat="45.579615896567702" lon="7.959532449021936">
        <ele>642.30999999999995</ele>
        <time>2019-10-26T10:50:49Z</time>
      </trkpt>
      <trkpt lat="45.579627882689238" lon="7.959556672722101">
        <ele>642.10000000000002</ele>
        <time>2019-10-26T10:51:15Z</time>
      </trkpt>
      <trkpt lat="45.579618327319622" lon="7.959544602781534">
        <ele>641.90999999999997</ele>
        <time>2019-10-26T10:51:39Z</time>
      </trkpt>
      <trkpt lat="45.579622769728303" lon="7.959540160372853">
        <ele>641.75</ele>
        <time>2019-10-26T10:52:04Z</time>
      </trkpt>
      <trkpt lat="45.57962947525084" lon="7.959535634145141">
        <ele>641.71000000000004</ele>
        <time>2019-10-26T10:52:35Z</time>
      </trkpt>
      <trkpt lat="45.579639198258519" lon="7.959536975249648">
        <ele>641.63999999999999</ele>
        <time>2019-10-26T10:52:52Z</time>
      </trkpt>
      <trkpt lat="45.579647412523627" lon="7.959533203393221">
        <ele>641.45000000000005</ele>
        <time>2019-10-26T10:53:12Z</time>
      </trkpt>
      <trkpt lat="45.579641964286566" lon="7.959533873945475">
        <ele>641.25999999999999</ele>
        <time>2019-10-26T10:53:38Z</time>
      </trkpt>
      <trkpt lat="45.579630564898252" lon="7.95955709181726">
        <ele>640.88999999999999</ele>
        <time>2019-10-26T10:54:09Z</time>
      </trkpt>
      <trkpt lat="45.579618662595749" lon="7.959569077938795">
        <ele>640.66999999999996</ele>
        <time>2019-10-26T10:54:34Z</time>
      </trkpt>
      <trkpt lat="45.579624697566032" lon="7.959561450406909">
        <ele>640.59000000000003</ele>
        <time>2019-10-26T10:54:51Z</time>
      </trkpt>
      <trkpt lat="45.57963433675468" lon="7.959582153707743">
        <ele>640.85000000000002</ele>
        <time>2019-10-26T10:55:08Z</time>
      </trkpt>
      <trkpt lat="45.579626876860857" lon="7.95958399772644">
        <ele>640.47000000000003</ele>
        <time>2019-10-26T10:55:31Z</time>
      </trkpt>
      <trkpt lat="45.579623021185398" lon="7.959580225870013">
        <ele>640.38999999999999</ele>
        <time>2019-10-26T10:55:50Z</time>
      </trkpt>
      <trkpt lat="45.579635258764029" lon="7.959565976634622">
        <ele>640.59000000000003</ele>
        <time>2019-10-26T10:56:10Z</time>
      </trkpt>
      <trkpt lat="45.579640455543995" lon="7.959580309689045">
        <ele>640.40999999999997</ele>
        <time>2019-10-26T10:56:30Z</time>
      </trkpt>
      <trkpt lat="45.579649172723293" lon="7.959587350487709">
        <ele>640.50999999999999</ele>
        <time>2019-10-26T10:56:44Z</time>
      </trkpt>
      <trkpt lat="45.579634755849838" lon="7.959571341052651">
        <ele>639.26999999999998</ele>
        <time>2019-10-26T10:56:57Z</time>
      </trkpt>
      <trkpt lat="45.579621428623796" lon="7.959532616659999">
        <ele>639.25999999999999</ele>
        <time>2019-10-26T10:57:09Z</time>
      </trkpt>
      <trkpt lat="45.57957524433732" lon="7.959459610283375">
        <ele>639.19000000000005</ele>
        <time>2019-10-26T10:57:35Z</time>
      </trkpt>
      <trkpt lat="45.579596115276217" lon="7.959493640810251">
        <ele>640.32000000000005</ele>
        <time>2019-10-26T10:57:47Z</time>
      </trkpt>
      <trkpt lat="45.579588739201427" lon="7.959495903924108">
        <ele>638.80999999999995</ele>
        <time>2019-10-26T10:57:58Z</time>
      </trkpt>
      <trkpt lat="45.579629391431808" lon="7.9595688264817">
        <ele>640</ele>
        <time>2019-10-26T10:58:18Z</time>
      </trkpt>
      <trkpt lat="45.579635761678219" lon="7.959576537832618">
        <ele>639.44000000000005</ele>
        <time>2019-10-26T10:58:36Z</time>
      </trkpt>
      <trkpt lat="45.579616986215115" lon="7.959582572802901">
        <ele>639.40999999999997</ele>
        <time>2019-10-26T10:58:54Z</time>
      </trkpt>
      <trkpt lat="45.579618578776717" lon="7.959584165364504">
        <ele>639.45000000000005</ele>
        <time>2019-10-26T10:59:16Z</time>
      </trkpt>
      <trkpt lat="45.579599300399423" lon="7.959564551711083">
        <ele>639.20000000000005</ele>
        <time>2019-10-26T10:59:42Z</time>
      </trkpt>
      <trkpt lat="45.579590583220124" lon="7.95954342931509">
        <ele>639.16999999999996</ele>
        <time>2019-10-26T11:00:08Z</time>
      </trkpt>
      <trkpt lat="45.579591169953346" lon="7.959549212828279">
        <ele>639.25</ele>
        <time>2019-10-26T11:00:34Z</time>
      </trkpt>
      <trkpt lat="45.579588739201427" lon="7.959539406001568">
        <ele>639.20000000000005</ele>
        <time>2019-10-26T11:00:57Z</time>
      </trkpt>
      <trkpt lat="45.579595780000091" lon="7.959541082382202">
        <ele>638.99000000000001</ele>
        <time>2019-10-26T11:01:15Z</time>
      </trkpt>
      <trkpt lat="45.57959427125752" lon="7.959550051018596">
        <ele>638.80999999999995</ele>
        <time>2019-10-26T11:01:30Z</time>
      </trkpt>
      <trkpt lat="45.579598043113947" lon="7.959530018270016">
        <ele>638.51999999999998</ele>
        <time>2019-10-26T11:01:52Z</time>
      </trkpt>
      <trkpt lat="45.579599300399423" lon="7.959532616659999">
        <ele>638.45000000000005</ele>
        <time>2019-10-26T11:02:19Z</time>
      </trkpt>
      <trkpt lat="45.579604832455516" lon="7.959539070725441">
        <ele>638.10000000000002</ele>
        <time>2019-10-26T11:02:41Z</time>
      </trkpt>
      <trkpt lat="45.579598965123296" lon="7.959537142887712">
        <ele>638.22000000000003</ele>
        <time>2019-10-26T11:03:00Z</time>
      </trkpt>
      <trkpt lat="45.579600222408772" lon="7.959556253626943">
        <ele>638.25</ele>
        <time>2019-10-26T11:03:18Z</time>
      </trkpt>
      <trkpt lat="45.579614723101258" lon="7.959567485377193">
        <ele>638.05999999999995</ele>
        <time>2019-10-26T11:03:45Z</time>
      </trkpt>
      <trkpt lat="45.57962017133832" lon="7.959577962756157">
        <ele>637.88</ele>
        <time>2019-10-26T11:04:11Z</time>
      </trkpt>
      <trkpt lat="45.579621344804764" lon="7.959581650793552">
        <ele>637.80999999999995</ele>
        <time>2019-10-26T11:04:30Z</time>
      </trkpt>
      <trkpt lat="45.57962067425251" lon="7.959569916129112">
        <ele>637.53999999999996</ele>
        <time>2019-10-26T11:04:53Z</time>
      </trkpt>
      <trkpt lat="45.579580860212445" lon="7.959518618881702">
        <ele>637.47000000000003</ele>
        <time>2019-10-26T11:05:12Z</time>
      </trkpt>
      <trkpt lat="45.579566191881895" lon="7.959503447636962">
        <ele>637.61000000000001</ele>
        <time>2019-10-26T11:05:32Z</time>
      </trkpt>
      <trkpt lat="45.579581363126636" lon="7.959518283605576">
        <ele>637.50999999999999</ele>
        <time>2019-10-26T11:06:05Z</time>
      </trkpt>
      <trkpt lat="45.579552026465535" lon="7.959486683830619">
        <ele>637.44000000000005</ele>
        <time>2019-10-26T11:06:29Z</time>
      </trkpt>
      <trkpt lat="45.579549763351679" lon="7.959509566426277">
        <ele>637.03999999999996</ele>
        <time>2019-10-26T11:06:54Z</time>
      </trkpt>
      <trkpt lat="45.579574406147003" lon="7.959558181464672">
        <ele>636.59000000000003</ele>
        <time>2019-10-26T11:07:13Z</time>
      </trkpt>
      <trkpt lat="45.579595528542995" lon="7.959530940279365">
        <ele>636.01999999999998</ele>
        <time>2019-10-26T11:07:33Z</time>
      </trkpt>
      <trkpt lat="45.579625200480223" lon="7.959541166201234">
        <ele>636.70000000000005</ele>
        <time>2019-10-26T11:07:51Z</time>
      </trkpt>
      <trkpt lat="45.579580357298255" lon="7.959530856460333">
        <ele>635.52999999999997</ele>
        <time>2019-10-26T11:08:11Z</time>
      </trkpt>
      <trkpt lat="45.579609191045165" lon="7.959521887823939">
        <ele>634.78999999999996</ele>
        <time>2019-10-26T11:08:25Z</time>
      </trkpt>
      <trkpt lat="45.579657219350338" lon="7.959507135674357">
        <ele>635.34000000000003</ele>
        <time>2019-10-26T11:08:40Z</time>
      </trkpt>
      <trkpt lat="45.579709941521287" lon="7.959500346332789">
        <ele>635.78999999999996</ele>
        <time>2019-10-26T11:08:54Z</time>
      </trkpt>
      <trkpt lat="45.579736428335309" lon="7.959540328010917">
        <ele>635.94000000000005</ele>
        <time>2019-10-26T11:09:12Z</time>
      </trkpt>
      <trkpt lat="45.579726537689567" lon="7.959587434306741">
        <ele>635.70000000000005</ele>
        <time>2019-10-26T11:09:28Z</time>
      </trkpt>
      <trkpt lat="45.579721005633473" lon="7.959600174799562">
        <ele>634.38999999999999</ele>
        <time>2019-10-26T11:09:41Z</time>
      </trkpt>
      <trkpt lat="45.579691752791405" lon="7.959595564752817">
        <ele>634.5</ele>
        <time>2019-10-26T11:10:02Z</time>
      </trkpt>
      <trkpt lat="45.579688148573041" lon="7.959571843966842">
        <ele>635.14999999999998</ele>
        <time>2019-10-26T11:10:17Z</time>
      </trkpt>
      <trkpt lat="45.579684460535645" lon="7.959515685215592">
        <ele>635.03999999999996</ele>
        <time>2019-10-26T11:10:32Z</time>
      </trkpt>
      <trkpt lat="45.579699883237481" lon="7.95948626473546">
        <ele>635.45000000000005</ele>
        <time>2019-10-26T11:10:46Z</time>
      </trkpt>
      <trkpt lat="45.579712120816112" lon="7.959482744336128">
        <ele>635.67999999999995</ele>
        <time>2019-10-26T11:11:04Z</time>
      </trkpt>
      <trkpt lat="45.579708935692906" lon="7.959425244480372">
        <ele>636.13999999999999</ele>
        <time>2019-10-26T11:11:15Z</time>
      </trkpt>
      <trkpt lat="45.579711450263858" lon="7.95941049233079">
        <ele>636.62</ele>
        <time>2019-10-26T11:11:26Z</time>
      </trkpt>
      <trkpt lat="45.579714467749" lon="7.959374198690057">
        <ele>636.80999999999995</ele>
        <time>2019-10-26T11:11:38Z</time>
      </trkpt>
      <trkpt lat="45.579727543517947" lon="7.959323320537806">
        <ele>637.35000000000002</ele>
        <time>2019-10-26T11:11:53Z</time>
      </trkpt>
      <trkpt lat="45.579733578488231" lon="7.959271101281047">
        <ele>636.99000000000001</ele>
        <time>2019-10-26T11:12:09Z</time>
      </trkpt>
      <trkpt lat="45.579750258475542" lon="7.959264563396573">
        <ele>637.23000000000002</ele>
        <time>2019-10-26T11:12:22Z</time>
      </trkpt>
      <trkpt lat="45.57977800257504" lon="7.959265066310763">
        <ele>637.22000000000003</ele>
        <time>2019-10-26T11:12:43Z</time>
      </trkpt>
      <trkpt lat="45.579808596521616" lon="7.959268586710095">
        <ele>637.25</ele>
        <time>2019-10-26T11:12:59Z</time>
      </trkpt>
      <trkpt lat="45.579838268458843" lon="7.959236903116107">
        <ele>636.38</ele>
        <time>2019-10-26T11:13:18Z</time>
      </trkpt>
      <trkpt lat="45.579842962324619" lon="7.959195412695408">
        <ele>636.86000000000001</ele>
        <time>2019-10-26T11:13:30Z</time>
      </trkpt>
      <trkpt lat="45.579869616776705" lon="7.959147971123457">
        <ele>637.13</ele>
        <time>2019-10-26T11:13:41Z</time>
      </trkpt>
      <trkpt lat="45.579887051135302" lon="7.959119053557515">
        <ele>637.66999999999996</ele>
        <time>2019-10-26T11:13:54Z</time>
      </trkpt>
      <trkpt lat="45.579857798293233" lon="7.95908460393548">
        <ele>637.88999999999999</ele>
        <time>2019-10-26T11:14:16Z</time>
      </trkpt>
      <trkpt lat="45.579857295379043" lon="7.95906943269074">
        <ele>637.60000000000002</ele>
        <time>2019-10-26T11:14:36Z</time>
      </trkpt>
      <trkpt lat="45.579895684495568" lon="7.959003718569875">
        <ele>637.17999999999995</ele>
        <time>2019-10-26T11:14:52Z</time>
      </trkpt>
      <trkpt lat="45.579910855740309" lon="7.958946721628308">
        <ele>636.87</ele>
        <time>2019-10-26T11:15:02Z</time>
      </trkpt>
      <trkpt lat="45.579943545162678" lon="7.958901878446341">
        <ele>637.57000000000005</ele>
        <time>2019-10-26T11:15:06Z</time>
      </trkpt>
      <trkpt lat="45.579987466335297" lon="7.958845300599933">
        <ele>638.33000000000004</ele>
        <time>2019-10-26T11:15:17Z</time>
      </trkpt>
      <trkpt lat="45.580004146322608" lon="7.958814119920135">
        <ele>638.82000000000005</ele>
        <time>2019-10-26T11:15:30Z</time>
      </trkpt>
      <trkpt lat="45.580055024474859" lon="7.958760056644678">
        <ele>638.82000000000005</ele>
        <time>2019-10-26T11:15:43Z</time>
      </trkpt>
      <trkpt lat="45.580075476318598" lon="7.958748992532492">
        <ele>639.50999999999999</ele>
        <time>2019-10-26T11:15:46Z</time>
      </trkpt>
      <trkpt lat="45.580175304785371" lon="7.958683781325817">
        <ele>640</ele>
        <time>2019-10-26T11:15:57Z</time>
      </trkpt>
      <trkpt lat="45.580223668366671" lon="7.958583701401949">
        <ele>639.95000000000005</ele>
        <time>2019-10-26T11:16:11Z</time>
      </trkpt>
      <trkpt lat="45.580259710550308" lon="7.958559645339847">
        <ele>643.20000000000005</ele>
        <time>2019-10-26T11:16:21Z</time>
      </trkpt>
      <trkpt lat="45.580255854874849" lon="7.958574732765555">
        <ele>644.10000000000002</ele>
        <time>2019-10-26T11:16:41Z</time>
      </trkpt>
      <trkpt lat="45.580241102725267" lon="7.958553610369563">
        <ele>643.88999999999999</ele>
        <time>2019-10-26T11:17:00Z</time>
      </trkpt>
      <trkpt lat="45.580270020291209" lon="7.958567021414638">
        <ele>643.88</ele>
        <time>2019-10-26T11:17:19Z</time>
      </trkpt>
      <trkpt lat="45.580265326425433" lon="7.958561321720481">
        <ele>643.94000000000005</ele>
        <time>2019-10-26T11:17:37Z</time>
      </trkpt>
      <trkpt lat="45.580235235393047" lon="7.958513209596276">
        <ele>643.64999999999998</ele>
        <time>2019-10-26T11:18:04Z</time>
      </trkpt>
      <trkpt lat="45.580229535698891" lon="7.958506587892771">
        <ele>640.40999999999997</ele>
        <time>2019-10-26T11:18:05Z</time>
      </trkpt>
      <trkpt lat="45.580226518213749" lon="7.958504073321819">
        <ele>645.28999999999996</ele>
        <time>2019-10-26T11:18:06Z</time>
      </trkpt>
      <trkpt lat="45.58023196645081" lon="7.958500552922487">
        <ele>643.33000000000004</ele>
        <time>2019-10-26T11:18:24Z</time>
      </trkpt>
      <trkpt lat="45.580212855711579" lon="7.958429139107466">
        <ele>643.44000000000005</ele>
        <time>2019-10-26T11:18:44Z</time>
      </trkpt>
      <trkpt lat="45.580191565677524" lon="7.958420421928167">
        <ele>643.22000000000003</ele>
        <time>2019-10-26T11:19:01Z</time>
      </trkpt>
      <trkpt lat="45.580188632011414" lon="7.958403574302793">
        <ele>643.12</ele>
        <time>2019-10-26T11:19:19Z</time>
      </trkpt>
      <trkpt lat="45.580181758850813" lon="7.958365771919489">
        <ele>643.08000000000004</ele>
        <time>2019-10-26T11:19:39Z</time>
      </trkpt>
      <trkpt lat="45.580208580940962" lon="7.958396449685097">
        <ele>642.87</ele>
        <time>2019-10-26T11:20:01Z</time>
      </trkpt>
      <trkpt lat="45.580204222351313" lon="7.958382116630673">
        <ele>643.27999999999997</ele>
        <time>2019-10-26T11:20:19Z</time>
      </trkpt>
      <trkpt lat="45.580214783549309" lon="7.958385217934847">
        <ele>643.38</ele>
        <time>2019-10-26T11:20:28Z</time>
      </trkpt>
      <trkpt lat="45.580238169059157" lon="7.958416985347867">
        <ele>643.42999999999995</ele>
        <time>2019-10-26T11:20:49Z</time>
      </trkpt>
      <trkpt lat="45.580221908167005" lon="7.958382619544864">
        <ele>643.16999999999996</ele>
        <time>2019-10-26T11:21:09Z</time>
      </trkpt>
      <trkpt lat="45.580217465758324" lon="7.95832671225071">
        <ele>643.12</ele>
        <time>2019-10-26T11:21:24Z</time>
      </trkpt>
      <trkpt lat="45.580262476578355" lon="7.958245407789946">
        <ele>642.86000000000001</ele>
        <time>2019-10-26T11:21:48Z</time>
      </trkpt>
      <trkpt lat="45.58026323094964" lon="7.958261501044035">
        <ele>642.59000000000003</ele>
        <time>2019-10-26T11:22:07Z</time>
      </trkpt>
      <trkpt lat="45.580262644216418" lon="7.958324365317822">
        <ele>642.40999999999997</ele>
        <time>2019-10-26T11:22:26Z</time>
      </trkpt>
      <trkpt lat="45.580252502113581" lon="7.958309194073081">
        <ele>642.49000000000001</ele>
        <time>2019-10-26T11:22:43Z</time>
      </trkpt>
      <trkpt lat="45.580247305333614" lon="7.958280863240361">
        <ele>642.57000000000005</ele>
        <time>2019-10-26T11:23:05Z</time>
      </trkpt>
      <trkpt lat="45.580243784934282" lon="7.958302740007639">
        <ele>642.01999999999998</ele>
        <time>2019-10-26T11:23:26Z</time>
      </trkpt>
      <trkpt lat="45.58023196645081" lon="7.95829645358026">
        <ele>641.94000000000005</ele>
        <time>2019-10-26T11:23:45Z</time>
      </trkpt>
      <trkpt lat="45.580229200422764" lon="7.958349427208304">
        <ele>641.92999999999995</ele>
        <time>2019-10-26T11:24:06Z</time>
      </trkpt>
      <trkpt lat="45.580218303948641" lon="7.958431569859386">
        <ele>641.88999999999999</ele>
        <time>2019-10-26T11:24:27Z</time>
      </trkpt>
      <trkpt lat="45.580217381939292" lon="7.958464343100786">
        <ele>641.96000000000004</ele>
        <time>2019-10-26T11:24:42Z</time>
      </trkpt>
      <trkpt lat="45.58020749129355" lon="7.958446238189936">
        <ele>641.86000000000001</ele>
        <time>2019-10-26T11:25:03Z</time>
      </trkpt>
      <trkpt lat="45.580217214301229" lon="7.958356551826">
        <ele>641.51999999999998</ele>
        <time>2019-10-26T11:25:22Z</time>
      </trkpt>
      <trkpt lat="45.580219309777021" lon="7.958412375301123">
        <ele>641.47000000000003</ele>
        <time>2019-10-26T11:25:41Z</time>
      </trkpt>
      <trkpt lat="45.580185949802399" lon="7.958465935662389">
        <ele>641.50999999999999</ele>
        <time>2019-10-26T11:26:03Z</time>
      </trkpt>
      <trkpt lat="45.580199444666505" lon="7.958482699468732">
        <ele>641.38999999999999</ele>
        <time>2019-10-26T11:26:24Z</time>
      </trkpt>
      <trkpt lat="45.580167844891548" lon="7.958394438028336">
        <ele>641.63999999999999</ele>
        <time>2019-10-26T11:26:40Z</time>
      </trkpt>
      <trkpt lat="45.580193158239126" lon="7.958442969247699">
        <ele>641.84000000000003</ele>
        <time>2019-10-26T11:27:01Z</time>
      </trkpt>
      <trkpt lat="45.580152841284871" lon="7.958395276218653">
        <ele>641.63</ele>
        <time>2019-10-26T11:27:20Z</time>
      </trkpt>
      <trkpt lat="45.580139514058828" lon="7.958411704748869">
        <ele>641.94000000000005</ele>
        <time>2019-10-26T11:27:30Z</time>
      </trkpt>
      <trkpt lat="45.580110596492887" lon="7.958460235968232">
        <ele>641.96000000000004</ele>
        <time>2019-10-26T11:27:49Z</time>
      </trkpt>
      <trkpt lat="45.580067848786712" lon="7.958529219031334">
        <ele>642.25</ele>
        <time>2019-10-26T11:28:10Z</time>
      </trkpt>
      <trkpt lat="45.580079248175025" lon="7.958560064435005">
        <ele>642.21000000000004</ele>
        <time>2019-10-26T11:28:28Z</time>
      </trkpt>
      <trkpt lat="45.580117218196392" lon="7.95854028314352">
        <ele>642.25</ele>
        <time>2019-10-26T11:28:48Z</time>
      </trkpt>
      <trkpt lat="45.580117385834455" lon="7.958533829078078">
        <ele>642.13999999999999</ele>
        <time>2019-10-26T11:28:49Z</time>
      </trkpt>
      <trkpt lat="45.580132389441133" lon="7.958438443019986">
        <ele>642.24000000000001</ele>
        <time>2019-10-26T11:29:12Z</time>
      </trkpt>
      <trkpt lat="45.580169856548309" lon="7.958408687263727">
        <ele>642.30999999999995</ele>
        <time>2019-10-26T11:29:34Z</time>
      </trkpt>
      <trkpt lat="45.580180250108242" lon="7.958449590951204">
        <ele>643.13999999999999</ele>
        <time>2019-10-26T11:29:52Z</time>
      </trkpt>
      <trkpt lat="45.580197097733617" lon="7.958484292030335">
        <ele>643.24000000000001</ele>
        <time>2019-10-26T11:30:11Z</time>
      </trkpt>
      <trkpt lat="45.580247305333614" lon="7.958456380292773">
        <ele>643.73000000000002</ele>
        <time>2019-10-26T11:30:28Z</time>
      </trkpt>
      <trkpt lat="45.580267002806067" lon="7.958460235968232">
        <ele>644.40999999999997</ele>
        <time>2019-10-26T11:30:45Z</time>
      </trkpt>
      <trkpt lat="45.580278486013412" lon="7.95850264839828">
        <ele>644.48000000000002</ele>
        <time>2019-10-26T11:30:54Z</time>
      </trkpt>
      <trkpt lat="45.580298351123929" lon="7.958508096635342">
        <ele>644.5</ele>
        <time>2019-10-26T11:31:09Z</time>
      </trkpt>
      <trkpt lat="45.580306062474847" lon="7.958526117727161">
        <ele>645.07000000000005</ele>
        <time>2019-10-26T11:31:24Z</time>
      </trkpt>
      <trkpt lat="45.580330956727266" lon="7.958578169345856">
        <ele>644.00999999999999</ele>
        <time>2019-10-26T11:31:42Z</time>
      </trkpt>
      <trkpt lat="45.580390049144626" lon="7.958669615909457">
        <ele>644.36000000000001</ele>
        <time>2019-10-26T11:32:00Z</time>
      </trkpt>
      <trkpt lat="45.580396335572004" lon="7.958661234006286">
        <ele>645.62</ele>
        <time>2019-10-26T11:32:07Z</time>
      </trkpt>
      <trkpt lat="45.580432210117579" lon="7.958644302561879">
        <ele>646.87</ele>
        <time>2019-10-26T11:32:11Z</time>
      </trkpt>
      <trkpt lat="45.580487530678511" lon="7.958572553470731">
        <ele>648.53999999999996</ele>
        <time>2019-10-26T11:32:25Z</time>
      </trkpt>
      <trkpt lat="45.58049775660038" lon="7.958590406924486">
        <ele>648.48000000000002</ele>
        <time>2019-10-26T11:32:31Z</time>
      </trkpt>
      <trkpt lat="45.580553328618407" lon="7.958654528483748">
        <ele>649.87</ele>
        <time>2019-10-26T11:32:51Z</time>
      </trkpt>
      <trkpt lat="45.58057009242475" lon="7.958617396652699">
        <ele>651.83000000000004</ele>
        <time>2019-10-26T11:33:09Z</time>
      </trkpt>
      <trkpt lat="45.580582413822412" lon="7.958555957302451">
        <ele>653.01999999999998</ele>
        <time>2019-10-26T11:33:14Z</time>
      </trkpt>
      <trkpt lat="45.580606972798705" lon="7.958385217934847">
        <ele>656.25</ele>
        <time>2019-10-26T11:33:32Z</time>
      </trkpt>
      <trkpt lat="45.580662460997701" lon="7.958254879340529">
        <ele>659.38999999999999</ele>
        <time>2019-10-26T11:33:48Z</time>
      </trkpt>
      <trkpt lat="45.580725744366646" lon="7.958245240151882">
        <ele>662.60000000000002</ele>
        <time>2019-10-26T11:34:00Z</time>
      </trkpt>
      <trkpt lat="45.580824064090848" lon="7.958112638443708">
        <ele>665.20000000000005</ele>
        <time>2019-10-26T11:34:17Z</time>
      </trkpt>
      <trkpt lat="45.580889694392681" lon="7.958107190206647">
        <ele>661.92999999999995</ele>
        <time>2019-10-26T11:34:29Z</time>
      </trkpt>
      <trkpt lat="45.580964125692844" lon="7.958147004246712">
        <ele>658.70000000000005</ele>
        <time>2019-10-26T11:34:42Z</time>
      </trkpt>
      <trkpt lat="45.581027492880821" lon="7.958101993426681">
        <ele>657.90999999999997</ele>
        <time>2019-10-26T11:34:56Z</time>
      </trkpt>
      <trkpt lat="45.581085244193673" lon="7.958099814131856">
        <ele>658.22000000000003</ele>
        <time>2019-10-26T11:35:12Z</time>
      </trkpt>
      <trkpt lat="45.581093207001686" lon="7.958059497177601">
        <ele>658.77999999999997</ele>
        <time>2019-10-26T11:35:30Z</time>
      </trkpt>
      <trkpt lat="45.581112820655107" lon="7.958066035062075">
        <ele>658.13999999999999</ele>
        <time>2019-10-26T11:35:47Z</time>
      </trkpt>
      <trkpt lat="45.581132853403687" lon="7.958058994263411">
        <ele>657.80999999999995</ele>
        <time>2019-10-26T11:36:05Z</time>
      </trkpt>
      <trkpt lat="45.581130590289831" lon="7.958055306226015">
        <ele>658</ele>
        <time>2019-10-26T11:36:23Z</time>
      </trkpt>
      <trkpt lat="45.581133859232068" lon="7.958019012585282">
        <ele>658.13</ele>
        <time>2019-10-26T11:36:40Z</time>
      </trkpt>
      <trkpt lat="45.581179792061448" lon="7.958038290962577">
        <ele>660.39999999999998</ele>
        <time>2019-10-26T11:36:54Z</time>
      </trkpt>
      <trkpt lat="45.581219857558608" lon="7.95798858627677">
        <ele>660.83000000000004</ele>
        <time>2019-10-26T11:37:05Z</time>
      </trkpt>
      <trkpt lat="45.581270819529891" lon="7.957971068099141">
        <ele>662.37</ele>
        <time>2019-10-26T11:37:25Z</time>
      </trkpt>
      <trkpt lat="45.581281967461109" lon="7.957972660660744">
        <ele>661.42999999999995</ele>
        <time>2019-10-26T11:37:42Z</time>
      </trkpt>
      <trkpt lat="45.58128104545176" lon="7.957973415032029">
        <ele>661.53999999999996</ele>
        <time>2019-10-26T11:37:43Z</time>
      </trkpt>
      <trkpt lat="45.581339215859771" lon="7.957938127219677">
        <ele>661.38999999999999</ele>
        <time>2019-10-26T11:38:03Z</time>
      </trkpt>
      <trkpt lat="45.581353884190321" lon="7.9579490236938">
        <ele>660.59000000000003</ele>
        <time>2019-10-26T11:38:14Z</time>
      </trkpt>
      <trkpt lat="45.581409120932221" lon="7.957990011200309">
        <ele>659.04999999999995</ele>
        <time>2019-10-26T11:38:38Z</time>
      </trkpt>
      <trkpt lat="45.581392524763942" lon="7.957976264879108">
        <ele>658.19000000000005</ele>
        <time>2019-10-26T11:38:59Z</time>
      </trkpt>
      <trkpt lat="45.581378862261772" lon="7.957922453060746">
        <ele>659.53999999999996</ele>
        <time>2019-10-26T11:39:21Z</time>
      </trkpt>
      <trkpt lat="45.581376682966948" lon="7.95779412612319">
        <ele>662.63</ele>
        <time>2019-10-26T11:39:47Z</time>
      </trkpt>
      <trkpt lat="45.581411467865109" lon="7.957667894661427">
        <ele>664.34000000000003</ele>
        <time>2019-10-26T11:40:10Z</time>
      </trkpt>
      <trkpt lat="45.581449354067445" lon="7.957654735073447">
        <ele>664.66999999999996</ele>
        <time>2019-10-26T11:40:29Z</time>
      </trkpt>
      <trkpt lat="45.581420436501503" lon="7.957661775872111">
        <ele>665.73000000000002</ele>
        <time>2019-10-26T11:40:49Z</time>
      </trkpt>
      <trkpt lat="45.581438625231385" lon="7.957673761993647">
        <ele>665.39999999999998</ele>
        <time>2019-10-26T11:41:11Z</time>
      </trkpt>
      <trkpt lat="45.581381293013692" lon="7.957669403403997">
        <ele>665.87</ele>
        <time>2019-10-26T11:41:28Z</time>
      </trkpt>
      <trkpt lat="45.581336617469788" lon="7.957624141126871">
        <ele>666.25</ele>
        <time>2019-10-26T11:41:46Z</time>
      </trkpt>
      <trkpt lat="45.581269562244415" lon="7.957607544958592">
        <ele>666.00999999999999</ele>
        <time>2019-10-26T11:42:06Z</time>
      </trkpt>
      <trkpt lat="45.581257324665785" lon="7.957582231611013">
        <ele>666.55999999999995</ele>
        <time>2019-10-26T11:42:29Z</time>
      </trkpt>
      <trkpt lat="45.58127224445343" lon="7.957584913820028">
        <ele>666.19000000000005</ele>
        <time>2019-10-26T11:42:49Z</time>
      </trkpt>
      <trkpt lat="45.581282302737236" lon="7.957572843879461">
        <ele>666.15999999999997</ele>
        <time>2019-10-26T11:42:54Z</time>
      </trkpt>
      <trkpt lat="45.5813118070364" lon="7.957590613514185">
        <ele>666.11000000000001</ele>
        <time>2019-10-26T11:43:08Z</time>
      </trkpt>
      <trkpt lat="45.581334019079804" lon="7.957599246874452">
        <ele>665.88</ele>
        <time>2019-10-26T11:43:11Z</time>
      </trkpt>
      <trkpt lat="45.581348184496164" lon="7.957619866356254">
        <ele>665.92999999999995</ele>
        <time>2019-10-26T11:43:35Z</time>
      </trkpt>
      <trkpt lat="45.581266125664115" lon="7.957585919648409">
        <ele>665.75</ele>
        <time>2019-10-26T11:43:59Z</time>
      </trkpt>
      <trkpt lat="45.581280291080475" lon="7.957576951012015">
        <ele>665.78999999999996</ele>
        <time>2019-10-26T11:44:18Z</time>
      </trkpt>
      <trkpt lat="45.581333180889487" lon="7.957556415349245">
        <ele>665.5</ele>
        <time>2019-10-26T11:44:38Z</time>
      </trkpt>
      <trkpt lat="45.581304766237736" lon="7.957532024011016">
        <ele>664.88</ele>
        <time>2019-10-26T11:44:58Z</time>
      </trkpt>
      <trkpt lat="45.581302670761943" lon="7.957505118101835">
        <ele>664.20000000000005</ele>
        <time>2019-10-26T11:45:17Z</time>
      </trkpt>
      <trkpt lat="45.581289259716868" lon="7.95750436373055">
        <ele>663.96000000000004</ele>
        <time>2019-10-26T11:45:21Z</time>
      </trkpt>
      <trkpt lat="45.581258665770292" lon="7.957483492791653">
        <ele>665.25999999999999</ele>
        <time>2019-10-26T11:45:35Z</time>
      </trkpt>
      <trkpt lat="45.581221366301179" lon="7.957463460043073">
        <ele>665.16999999999996</ele>
        <time>2019-10-26T11:45:57Z</time>
      </trkpt>
      <trkpt lat="45.581191191449761" lon="7.957451557740569">
        <ele>664.97000000000003</ele>
        <time>2019-10-26T11:46:19Z</time>
      </trkpt>
      <trkpt lat="45.581186078488827" lon="7.957462538033724">
        <ele>665.42999999999995</ele>
        <time>2019-10-26T11:46:39Z</time>
      </trkpt>
      <trkpt lat="45.581158082932234" lon="7.957457005977631">
        <ele>665.27999999999997</ele>
        <time>2019-10-26T11:47:00Z</time>
      </trkpt>
      <trkpt lat="45.581148946657777" lon="7.957423813641071">
        <ele>665.58000000000004</ele>
        <time>2019-10-26T11:47:18Z</time>
      </trkpt>
      <trkpt lat="45.581204267218709" lon="7.957397913560271">
        <ele>665.41999999999996</ele>
        <time>2019-10-26T11:47:37Z</time>
      </trkpt>
      <trkpt lat="45.581257408484817" lon="7.957299677655101">
        <ele>665.07000000000005</ele>
        <time>2019-10-26T11:48:00Z</time>
      </trkpt>
      <trkpt lat="45.581368217244744" lon="7.957231281325221">
        <ele>664.92999999999995</ele>
        <time>2019-10-26T11:48:17Z</time>
      </trkpt>
      <trkpt lat="45.581366876140237" lon="7.957230610772967">
        <ele>664.75999999999999</ele>
        <time>2019-10-26T11:48:25Z</time>
      </trkpt>
      <trkpt lat="45.581475254148245" lon="7.957115862518549">
        <ele>664.83000000000004</ele>
        <time>2019-10-26T11:48:45Z</time>
      </trkpt>
      <trkpt lat="45.581513475626707" lon="7.957093063741922">
        <ele>664.88999999999999</ele>
        <time>2019-10-26T11:48:50Z</time>
      </trkpt>
      <trkpt lat="45.581531915813684" lon="7.957081831991673">
        <ele>664.75999999999999</ele>
        <time>2019-10-26T11:48:53Z</time>
      </trkpt>
      <trkpt lat="45.58152629993856" lon="7.957042856141925">
        <ele>663.76999999999998</ele>
        <time>2019-10-26T11:49:15Z</time>
      </trkpt>
      <trkpt lat="45.581446839496493" lon="7.957064565271139">
        <ele>662.77999999999997</ele>
        <time>2019-10-26T11:49:31Z</time>
      </trkpt>
      <trkpt lat="45.581450192257762" lon="7.95703137293458">
        <ele>662.37</ele>
        <time>2019-10-26T11:49:45Z</time>
      </trkpt>
      <trkpt lat="45.581385735422373" lon="7.957050818949938">
        <ele>662.53999999999996</ele>
        <time>2019-10-26T11:50:00Z</time>
      </trkpt>
      <trkpt lat="45.581382047384977" lon="7.957053165882826">
        <ele>662.64999999999998</ele>
        <time>2019-10-26T11:50:02Z</time>
      </trkpt>
      <trkpt lat="45.581377521157265" lon="7.957071606069803">
        <ele>663</ele>
        <time>2019-10-26T11:50:23Z</time>
      </trkpt>
      <trkpt lat="45.581444157287478" lon="7.957008657976985">
        <ele>663.60000000000002</ele>
        <time>2019-10-26T11:50:41Z</time>
      </trkpt>
      <trkpt lat="45.581430830061436" lon="7.956979656592012">
        <ele>663.95000000000005</ele>
        <time>2019-10-26T11:50:58Z</time>
      </trkpt>
      <trkpt lat="45.581450024619699" lon="7.956954427063465">
        <ele>664.28999999999996</ele>
        <time>2019-10-26T11:51:14Z</time>
      </trkpt>
      <trkpt lat="45.581439798697829" lon="7.956960378214717">
        <ele>664.25</ele>
        <time>2019-10-26T11:51:31Z</time>
      </trkpt>
      <trkpt lat="45.581414401531219" lon="7.956954594701529">
        <ele>664.38</ele>
        <time>2019-10-26T11:51:47Z</time>
      </trkpt>
      <trkpt lat="45.581429740414023" lon="7.956944620236754">
        <ele>664.37</ele>
        <time>2019-10-26T11:51:48Z</time>
      </trkpt>
      <trkpt lat="45.581441391259432" lon="7.956935316324234">
        <ele>664.91999999999996</ele>
        <time>2019-10-26T11:51:59Z</time>
      </trkpt>
      <trkpt lat="45.581442145630717" lon="7.956932969391346">
        <ele>665.15999999999997</ele>
        <time>2019-10-26T11:52:11Z</time>
      </trkpt>
      <trkpt lat="45.581437535583973" lon="7.956914529204369">
        <ele>665.83000000000004</ele>
        <time>2019-10-26T11:52:26Z</time>
      </trkpt>
      <trkpt lat="45.581428147852421" lon="7.95690237544477">
        <ele>666.02999999999997</ele>
        <time>2019-10-26T11:52:37Z</time>
      </trkpt>
      <trkpt lat="45.581389842554927" lon="7.956905979663134">
        <ele>665.87</ele>
        <time>2019-10-26T11:52:54Z</time>
      </trkpt>
      <trkpt lat="45.581343993544579" lon="7.956908997148275">
        <ele>665.65999999999997</ele>
        <time>2019-10-26T11:53:12Z</time>
      </trkpt>
      <trkpt lat="45.58123460970819" lon="7.956931963562965">
        <ele>666.01999999999998</ele>
        <time>2019-10-26T11:53:28Z</time>
      </trkpt>
      <trkpt lat="45.581234022974968" lon="7.956941183656454">
        <ele>666.61000000000001</ele>
        <time>2019-10-26T11:53:34Z</time>
      </trkpt>
      <trkpt lat="45.581252966076136" lon="7.956984685733914">
        <ele>666.61000000000001</ele>
        <time>2019-10-26T11:53:56Z</time>
      </trkpt>
      <trkpt lat="45.581254474818707" lon="7.956981584429741">
        <ele>666.83000000000004</ele>
        <time>2019-10-26T11:54:01Z</time>
      </trkpt>
      <trkpt lat="45.581235280260444" lon="7.956982757896185">
        <ele>666.76999999999998</ele>
        <time>2019-10-26T11:54:19Z</time>
      </trkpt>
      <trkpt lat="45.581209631636739" lon="7.956965994089842">
        <ele>666.50999999999999</ele>
        <time>2019-10-26T11:54:35Z</time>
      </trkpt>
      <trkpt lat="45.581250535324216" lon="7.95695367269218">
        <ele>666.54999999999995</ele>
        <time>2019-10-26T11:54:51Z</time>
      </trkpt>
      <trkpt lat="45.581242321059108" lon="7.956954427063465">
        <ele>666.32000000000005</ele>
        <time>2019-10-26T11:54:54Z</time>
      </trkpt>
      <trkpt lat="45.58130007237196" lon="7.956931376829743">
        <ele>664.50999999999999</ele>
        <time>2019-10-26T11:55:11Z</time>
      </trkpt>
      <trkpt lat="45.581301162019372" lon="7.956931460648775">
        <ele>664.40999999999997</ele>
        <time>2019-10-26T11:55:14Z</time>
      </trkpt>
      <trkpt lat="45.581377102062106" lon="7.956847893074155">
        <ele>665.63</ele>
        <time>2019-10-26T11:55:33Z</time>
      </trkpt>
      <trkpt lat="45.581414233893156" lon="7.956818472594023">
        <ele>665.76999999999998</ele>
        <time>2019-10-26T11:55:56Z</time>
      </trkpt>
      <trkpt lat="45.581403337419033" lon="7.956784861162305">
        <ele>666.44000000000005</ele>
        <time>2019-10-26T11:56:13Z</time>
      </trkpt>
      <trkpt lat="45.581423034891486" lon="7.956766337156296">
        <ele>665.96000000000004</ele>
        <time>2019-10-26T11:56:30Z</time>
      </trkpt>
      <trkpt lat="45.581439379602671" lon="7.956691989675164">
        <ele>666.00999999999999</ele>
        <time>2019-10-26T11:56:50Z</time>
      </trkpt>
      <trkpt lat="45.581347094848752" lon="7.95667028054595">
        <ele>666.01999999999998</ele>
        <time>2019-10-26T11:57:13Z</time>
      </trkpt>
      <trkpt lat="45.58134407736361" lon="7.95667321421206">
        <ele>666.30999999999995</ele>
        <time>2019-10-26T11:57:35Z</time>
      </trkpt>
      <trkpt lat="45.581403505057096" lon="7.956645973026753">
        <ele>666.40999999999997</ele>
        <time>2019-10-26T11:57:57Z</time>
      </trkpt>
      <trkpt lat="45.581389842554927" lon="7.956662988290191">
        <ele>666.45000000000005</ele>
        <time>2019-10-26T11:58:06Z</time>
      </trkpt>
      <trkpt lat="45.5813601706177" lon="7.956603728234768">
        <ele>666.55999999999995</ele>
        <time>2019-10-26T11:58:30Z</time>
      </trkpt>
      <trkpt lat="45.58136067353189" lon="7.956608841195703">
        <ele>667.02999999999997</ele>
        <time>2019-10-26T11:58:36Z</time>
      </trkpt>
      <trkpt lat="45.581387914717197" lon="7.95659551396966">
        <ele>667.79999999999995</ele>
        <time>2019-10-26T11:58:55Z</time>
      </trkpt>
      <trkpt lat="45.581384226679802" lon="7.956599872559309">
        <ele>667.44000000000005</ele>
        <time>2019-10-26T11:59:01Z</time>
      </trkpt>
      <trkpt lat="45.581412389874458" lon="7.956622503697872">
        <ele>667.62</ele>
        <time>2019-10-26T11:59:20Z</time>
      </trkpt>
      <trkpt lat="45.58135824277997" lon="7.956651588901877">
        <ele>667.70000000000005</ele>
        <time>2019-10-26T11:59:39Z</time>
      </trkpt>
      <trkpt lat="45.581309711560607" lon="7.95667614787817">
        <ele>668</ele>
        <time>2019-10-26T11:59:47Z</time>
      </trkpt>
      <trkpt lat="45.581296384334564" lon="7.956679249182344">
        <ele>667.94000000000005</ele>
        <time>2019-10-26T11:59:49Z</time>
      </trkpt>
      <trkpt lat="45.581261767074466" lon="7.956658713519573">
        <ele>668.15999999999997</ele>
        <time>2019-10-26T12:00:05Z</time>
      </trkpt>
      <trkpt lat="45.581193957477808" lon="7.95667908154428">
        <ele>668.66999999999996</ele>
        <time>2019-10-26T12:00:24Z</time>
      </trkpt>
      <trkpt lat="45.581173170357943" lon="7.956768348813057">
        <ele>667.88</ele>
        <time>2019-10-26T12:00:46Z</time>
      </trkpt>
      <trkpt lat="45.581132853403687" lon="7.956743957474828">
        <ele>669.09000000000003</ele>
        <time>2019-10-26T12:01:06Z</time>
      </trkpt>
      <trkpt lat="45.581133859232068" lon="7.956699868664146">
        <ele>669.51999999999998</ele>
        <time>2019-10-26T12:01:26Z</time>
      </trkpt>
      <trkpt lat="45.581112317740917" lon="7.956688636913896">
        <ele>671.24000000000001</ele>
        <time>2019-10-26T12:01:40Z</time>
      </trkpt>
      <trkpt lat="45.581090692430735" lon="7.956663323566318">
        <ele>672.25</ele>
        <time>2019-10-26T12:01:54Z</time>
      </trkpt>
      <trkpt lat="45.581087088212371" lon="7.956608757376671">
        <ele>672.52999999999997</ele>
        <time>2019-10-26T12:02:09Z</time>
      </trkpt>
      <trkpt lat="45.581126399338245" lon="7.956517226994038">
        <ele>672.33000000000004</ele>
        <time>2019-10-26T12:02:24Z</time>
      </trkpt>
      <trkpt lat="45.581141905859113" lon="7.956500547006726">
        <ele>671.69000000000005</ele>
        <time>2019-10-26T12:02:35Z</time>
      </trkpt>
      <trkpt lat="45.581248607486486" lon="7.956482777372003">
        <ele>671.44000000000005</ele>
        <time>2019-10-26T12:02:57Z</time>
      </trkpt>
      <trkpt lat="45.581230418756604" lon="7.956450842320919">
        <ele>671.37</ele>
        <time>2019-10-26T12:03:16Z</time>
      </trkpt>
      <trkpt lat="45.581238465383649" lon="7.956433324143291">
        <ele>671.36000000000001</ele>
        <time>2019-10-26T12:03:33Z</time>
      </trkpt>
      <trkpt lat="45.581271406263113" lon="7.956387475132942">
        <ele>671.61000000000001</ele>
        <time>2019-10-26T12:03:49Z</time>
      </trkpt>
      <trkpt lat="45.581244416534901" lon="7.956356881186366">
        <ele>671.90999999999997</ele>
        <time>2019-10-26T12:04:06Z</time>
      </trkpt>
      <trkpt lat="45.581251792609692" lon="7.956329556182027">
        <ele>672.10000000000002</ele>
        <time>2019-10-26T12:04:25Z</time>
      </trkpt>
      <trkpt lat="45.58122388087213" lon="7.956340787932277">
        <ele>672.44000000000005</ele>
        <time>2019-10-26T12:04:43Z</time>
      </trkpt>
      <trkpt lat="45.581227988004684" lon="7.956349086016417">
        <ele>672.51999999999998</ele>
        <time>2019-10-26T12:04:59Z</time>
      </trkpt>
      <trkpt lat="45.581273250281811" lon="7.956312038004398">
        <ele>673.35000000000002</ele>
        <time>2019-10-26T12:05:15Z</time>
      </trkpt>
      <trkpt lat="45.581293366849422" lon="7.956272978335619">
        <ele>673.91999999999996</ele>
        <time>2019-10-26T12:05:28Z</time>
      </trkpt>
      <trkpt lat="45.581317087635398" lon="7.956271721050143">
        <ele>674.33000000000004</ele>
        <time>2019-10-26T12:05:37Z</time>
      </trkpt>
      <trkpt lat="45.581339132040739" lon="7.956237271428108">
        <ele>674.22000000000003</ele>
        <time>2019-10-26T12:05:52Z</time>
      </trkpt>
      <trkpt lat="45.581364780664444" lon="7.956239450722933">
        <ele>674.38999999999999</ele>
        <time>2019-10-26T12:06:11Z</time>
      </trkpt>
      <trkpt lat="45.5813860706985" lon="7.956235678866506">
        <ele>674.24000000000001</ele>
        <time>2019-10-26T12:06:17Z</time>
      </trkpt>
      <trkpt lat="45.581393530592322" lon="7.956249341368675">
        <ele>674.39999999999998</ele>
        <time>2019-10-26T12:06:29Z</time>
      </trkpt>
      <trkpt lat="45.581332007423043" lon="7.956335674971342">
        <ele>674.38</ele>
        <time>2019-10-26T12:06:48Z</time>
      </trkpt>
      <trkpt lat="45.581297473981977" lon="7.956297872588038">
        <ele>674.48000000000002</ele>
        <time>2019-10-26T12:07:07Z</time>
      </trkpt>
      <trkpt lat="45.581297976896167" lon="7.956309355795384">
        <ele>674.46000000000004</ele>
        <time>2019-10-26T12:07:26Z</time>
      </trkpt>
      <trkpt lat="45.581308705732226" lon="7.956319833174348">
        <ele>674.48000000000002</ele>
        <time>2019-10-26T12:07:36Z</time>
      </trkpt>
      <trkpt lat="45.581319518387318" lon="7.956327712163329">
        <ele>674.53999999999996</ele>
        <time>2019-10-26T12:07:45Z</time>
      </trkpt>
      <trkpt lat="45.581375425681472" lon="7.956308098509908">
        <ele>674.75999999999999</ele>
        <time>2019-10-26T12:08:06Z</time>
      </trkpt>
      <trkpt lat="45.581382801756263" lon="7.956260405480862">
        <ele>675.08000000000004</ele>
        <time>2019-10-26T12:08:25Z</time>
      </trkpt>
      <trkpt lat="45.581331923604012" lon="7.956292843446136">
        <ele>675.25</ele>
        <time>2019-10-26T12:08:34Z</time>
      </trkpt>
      <trkpt lat="45.581243494525552" lon="7.956281527876854">
        <ele>675.09000000000003</ele>
        <time>2019-10-26T12:08:53Z</time>
      </trkpt>
      <trkpt lat="45.58117208071053" lon="7.956253867596388">
        <ele>675.15999999999997</ele>
        <time>2019-10-26T12:09:08Z</time>
      </trkpt>
      <trkpt lat="45.581105947494507" lon="7.956206426024437">
        <ele>675.71000000000004</ele>
        <time>2019-10-26T12:09:28Z</time>
      </trkpt>
      <trkpt lat="45.581065798178315" lon="7.956194942817092">
        <ele>676.12</ele>
        <time>2019-10-26T12:09:47Z</time>
      </trkpt>
      <trkpt lat="45.581053057685494" lon="7.956171724945307">
        <ele>676.27999999999997</ele>
        <time>2019-10-26T12:10:04Z</time>
      </trkpt>
      <trkpt lat="45.58104601688683" lon="7.956166695803404">
        <ele>676.66999999999996</ele>
        <time>2019-10-26T12:10:24Z</time>
      </trkpt>
      <trkpt lat="45.581031264737248" lon="7.956155799329281">
        <ele>676.74000000000001</ele>
        <time>2019-10-26T12:10:37Z</time>
      </trkpt>
      <trkpt lat="45.581035874783993" lon="7.956167869269848">
        <ele>677.01999999999998</ele>
        <time>2019-10-26T12:10:56Z</time>
      </trkpt>
      <trkpt lat="45.581044591963291" lon="7.956164600327611">
        <ele>676.98000000000002</ele>
        <time>2019-10-26T12:11:11Z</time>
      </trkpt>
      <trkpt lat="45.581032941117883" lon="7.956169797107577">
        <ele>676.94000000000005</ele>
        <time>2019-10-26T12:11:25Z</time>
      </trkpt>
      <trkpt lat="45.581021625548601" lon="7.956164935603738">
        <ele>677.07000000000005</ele>
        <time>2019-10-26T12:11:46Z</time>
      </trkpt>
      <trkpt lat="45.581053392961621" lon="7.956149512901902">
        <ele>676.64999999999998</ele>
        <time>2019-10-26T12:12:04Z</time>
      </trkpt>
      <trkpt lat="45.581064205616713" lon="7.956133838742971">
        <ele>676.58000000000004</ele>
        <time>2019-10-26T12:12:19Z</time>
      </trkpt>
      <trkpt lat="45.581069653853774" lon="7.956109950318933">
        <ele>676.19000000000005</ele>
        <time>2019-10-26T12:12:33Z</time>
      </trkpt>
      <trkpt lat="45.581131596118212" lon="7.956096539273858">
        <ele>675.78999999999996</ele>
        <time>2019-10-26T12:12:49Z</time>
      </trkpt>
      <trkpt lat="45.581194879487157" lon="7.956045912578702">
        <ele>676.84000000000003</ele>
        <time>2019-10-26T12:13:02Z</time>
      </trkpt>
      <trkpt lat="45.581143666058779" lon="7.955971648916602">
        <ele>677.5</ele>
        <time>2019-10-26T12:13:13Z</time>
      </trkpt>
      <trkpt lat="45.58111634105444" lon="7.955902833491564">
        <ele>678.62</ele>
        <time>2019-10-26T12:13:24Z</time>
      </trkpt>
      <trkpt lat="45.581112401559949" lon="7.955870563164353">
        <ele>678.28999999999996</ele>
        <time>2019-10-26T12:13:37Z</time>
      </trkpt>
      <trkpt lat="45.581127572804689" lon="7.955808034166694">
        <ele>678.52999999999997</ele>
        <time>2019-10-26T12:13:50Z</time>
      </trkpt>
      <trkpt lat="45.581098403781652" lon="7.955778948962688">
        <ele>678.63</ele>
        <time>2019-10-26T12:14:07Z</time>
      </trkpt>
      <trkpt lat="45.581084322184324" lon="7.955774338915944">
        <ele>678.55999999999995</ele>
        <time>2019-10-26T12:14:27Z</time>
      </trkpt>
      <trkpt lat="45.581084908917546" lon="7.955780709162355">
        <ele>678.39999999999998</ele>
        <time>2019-10-26T12:14:47Z</time>
      </trkpt>
      <trkpt lat="45.581082813441753" lon="7.955784732475877">
        <ele>678.60000000000002</ele>
        <time>2019-10-26T12:15:03Z</time>
      </trkpt>
      <trkpt lat="45.581097230315208" lon="7.955738715827465">
        <ele>678.20000000000005</ele>
        <time>2019-10-26T12:15:21Z</time>
      </trkpt>
      <trkpt lat="45.581083903089166" lon="7.955727903172374">
        <ele>678.76999999999998</ele>
        <time>2019-10-26T12:15:38Z</time>
      </trkpt>
      <trkpt lat="45.581025900319219" lon="7.955713989213109">
        <ele>680.24000000000001</ele>
        <time>2019-10-26T12:15:50Z</time>
      </trkpt>
      <trkpt lat="45.581020535901189" lon="7.955674426630139">
        <ele>683.14999999999998</ele>
        <time>2019-10-26T12:16:05Z</time>
      </trkpt>
      <trkpt lat="45.580968484282494" lon="7.95568767003715">
        <ele>685.45000000000005</ele>
        <time>2019-10-26T12:16:18Z</time>
      </trkpt>
      <trkpt lat="45.580958090722561" lon="7.955704182386398">
        <ele>686.40999999999997</ele>
        <time>2019-10-26T12:16:31Z</time>
      </trkpt>
      <trkpt lat="45.580962784588337" lon="7.955685574561358">
        <ele>688.59000000000003</ele>
        <time>2019-10-26T12:16:48Z</time>
      </trkpt>
      <trkpt lat="45.580977285280824" lon="7.955614496022463">
        <ele>691.66999999999996</ele>
        <time>2019-10-26T12:16:59Z</time>
      </trkpt>
      <trkpt lat="45.581023637205362" lon="7.955506034195423">
        <ele>693.13</ele>
        <time>2019-10-26T12:17:13Z</time>
      </trkpt>
      <trkpt lat="45.581035120412707" lon="7.955407882109284">
        <ele>693.63999999999999</ele>
        <time>2019-10-26T12:17:25Z</time>
      </trkpt>
      <trkpt lat="45.581030761823058" lon="7.955343006178737">
        <ele>694.38</ele>
        <time>2019-10-26T12:17:39Z</time>
      </trkpt>
      <trkpt lat="45.581029085442424" lon="7.955223061144352">
        <ele>695.63999999999999</ele>
        <time>2019-10-26T12:17:53Z</time>
      </trkpt>
      <trkpt lat="45.581044256687164" lon="7.955079982057214">
        <ele>697.27999999999997</ele>
        <time>2019-10-26T12:18:09Z</time>
      </trkpt>
      <trkpt lat="45.581046184524894" lon="7.954997085034847">
        <ele>698.14999999999998</ele>
        <time>2019-10-26T12:18:24Z</time>
      </trkpt>
      <trkpt lat="45.581039814278483" lon="7.954929191619158">
        <ele>698.58000000000004</ele>
        <time>2019-10-26T12:18:37Z</time>
      </trkpt>
      <trkpt lat="45.581006119027734" lon="7.954836152493954">
        <ele>700.5</ele>
        <time>2019-10-26T12:18:50Z</time>
      </trkpt>
      <trkpt lat="45.580939901992679" lon="7.954805055633187">
        <ele>701.38999999999999</ele>
        <time>2019-10-26T12:19:06Z</time>
      </trkpt>
      <trkpt lat="45.580904446542263" lon="7.954667340964079">
        <ele>703.67999999999995</ele>
        <time>2019-10-26T12:19:20Z</time>
      </trkpt>
      <trkpt lat="45.580926658585668" lon="7.954510934650898">
        <ele>704.91999999999996</ele>
        <time>2019-10-26T12:19:33Z</time>
      </trkpt>
      <trkpt lat="45.580915259197354" lon="7.954421583563089">
        <ele>706.57000000000005</ele>
        <time>2019-10-26T12:19:46Z</time>
      </trkpt>
      <trkpt lat="45.580929256975651" lon="7.954268362373114">
        <ele>707.75999999999999</ele>
        <time>2019-10-26T12:20:03Z</time>
      </trkpt>
      <trkpt lat="45.580912409350276" lon="7.954188566654921">
        <ele>707.35000000000002</ele>
        <time>2019-10-26T12:20:17Z</time>
      </trkpt>
      <trkpt lat="45.58091894723475" lon="7.95413626357913">
        <ele>706.38999999999999</ele>
        <time>2019-10-26T12:20:29Z</time>
      </trkpt>
      <trkpt lat="45.580909727141261" lon="7.954067783430219">
        <ele>705.33000000000004</ele>
        <time>2019-10-26T12:20:43Z</time>
      </trkpt>
      <trkpt lat="45.580937219783664" lon="7.954016821458936">
        <ele>704.26999999999998</ele>
        <time>2019-10-26T12:20:59Z</time>
      </trkpt>
      <trkpt lat="45.580984745174646" lon="7.953933170065284">
        <ele>703.23000000000002</ele>
        <time>2019-10-26T12:21:14Z</time>
      </trkpt>
      <trkpt lat="45.581004694104195" lon="7.95391246676445">
        <ele>703.5</ele>
        <time>2019-10-26T12:21:16Z</time>
      </trkpt>
      <trkpt lat="45.58104258030653" lon="7.953864019364119">
        <ele>703.96000000000004</ele>
        <time>2019-10-26T12:21:20Z</time>
      </trkpt>
      <trkpt lat="45.581062193959951" lon="7.953838789835572">
        <ele>703.79999999999995</ele>
        <time>2019-10-26T12:21:22Z</time>
      </trkpt>
      <trkpt lat="45.581115838140249" lon="7.953750276938081">
        <ele>703.30999999999995</ele>
        <time>2019-10-26T12:21:31Z</time>
      </trkpt>
      <trkpt lat="45.581189263612032" lon="7.953692860901356">
        <ele>700.87</ele>
        <time>2019-10-26T12:21:45Z</time>
      </trkpt>
      <trkpt lat="45.581231256946921" lon="7.953579286113381">
        <ele>699.27999999999997</ele>
        <time>2019-10-26T12:21:58Z</time>
      </trkpt>
      <trkpt lat="45.581265287473798" lon="7.953513152897358">
        <ele>701.49000000000001</ele>
        <time>2019-10-26T12:22:13Z</time>
      </trkpt>
      <trkpt lat="45.581290349364281" lon="7.95349957421422">
        <ele>700.38</ele>
        <time>2019-10-26T12:22:26Z</time>
      </trkpt>
      <trkpt lat="45.581262269988656" lon="7.953486833721399">
        <ele>699.64999999999998</ele>
        <time>2019-10-26T12:22:43Z</time>
      </trkpt>
      <trkpt lat="45.581274842843413" lon="7.953434614464641">
        <ele>699.54999999999995</ele>
        <time>2019-10-26T12:23:07Z</time>
      </trkpt>
      <trkpt lat="45.581324798986316" lon="7.953417766839266">
        <ele>699.5</ele>
        <time>2019-10-26T12:23:26Z</time>
      </trkpt>
      <trkpt lat="45.581290517002344" lon="7.95341407880187">
        <ele>699.17999999999995</ele>
        <time>2019-10-26T12:24:06Z</time>
      </trkpt>
      <trkpt lat="45.581285320222378" lon="7.953431429341435">
        <ele>699.38999999999999</ele>
        <time>2019-10-26T12:24:27Z</time>
      </trkpt>
      <trkpt lat="45.581249026581645" lon="7.953433943912387">
        <ele>699.09000000000003</ele>
        <time>2019-10-26T12:24:54Z</time>
      </trkpt>
      <trkpt lat="45.581267131492496" lon="7.953409804031253">
        <ele>699.17999999999995</ele>
        <time>2019-10-26T12:25:09Z</time>
      </trkpt>
      <trkpt lat="45.581278698518872" lon="7.953425059095025">
        <ele>695.99000000000001</ele>
        <time>2019-10-26T12:25:20Z</time>
      </trkpt>
      <trkpt lat="45.581280458718538" lon="7.95341650955379">
        <ele>703.88</ele>
        <time>2019-10-26T12:25:22Z</time>
      </trkpt>
      <trkpt lat="45.581283224746585" lon="7.953409049659967">
        <ele>699.97000000000003</ele>
        <time>2019-10-26T12:25:23Z</time>
      </trkpt>
      <trkpt lat="45.581286577507854" lon="7.953396392986178">
        <ele>698.32000000000005</ele>
        <time>2019-10-26T12:25:26Z</time>
      </trkpt>
      <trkpt lat="45.581297557801008" lon="7.953346688300371">
        <ele>697.23000000000002</ele>
        <time>2019-10-26T12:25:34Z</time>
      </trkpt>
      <trkpt lat="45.581316081807017" lon="7.953293211758137">
        <ele>697.44000000000005</ele>
        <time>2019-10-26T12:25:43Z</time>
      </trkpt>
      <trkpt lat="45.581389423459768" lon="7.953258091583848">
        <ele>697.5</ele>
        <time>2019-10-26T12:25:55Z</time>
      </trkpt>
      <trkpt lat="45.581469051539898" lon="7.953203693032265">
        <ele>694.82000000000005</ele>
        <time>2019-10-26T12:26:08Z</time>
      </trkpt>
      <trkpt lat="45.581535939127207" lon="7.953110570088029">
        <ele>693.38</ele>
        <time>2019-10-26T12:26:17Z</time>
      </trkpt>
      <trkpt lat="45.58159276843071" lon="7.953016776591539">
        <ele>692.58000000000004</ele>
        <time>2019-10-26T12:26:27Z</time>
      </trkpt>
      <trkpt lat="45.581761663779616" lon="7.952980315312743">
        <ele>694.23000000000002</ele>
        <time>2019-10-26T12:26:40Z</time>
      </trkpt>
      <trkpt lat="45.581842884421349" lon="7.952888449653983">
        <ele>695.35000000000002</ele>
        <time>2019-10-26T12:26:57Z</time>
      </trkpt>
      <trkpt lat="45.581908347085118" lon="7.95287461951375">
        <ele>697.54999999999995</ele>
        <time>2019-10-26T12:27:11Z</time>
      </trkpt>
      <trkpt lat="45.581892086192966" lon="7.952891467139125">
        <ele>696.51999999999998</ele>
        <time>2019-10-26T12:27:24Z</time>
      </trkpt>
      <trkpt lat="45.581895438954234" lon="7.952821478247643">
        <ele>697.97000000000003</ele>
        <time>2019-10-26T12:27:39Z</time>
      </trkpt>
      <trkpt lat="45.581881692633033" lon="7.952774539589882">
        <ele>698.13999999999999</ele>
        <time>2019-10-26T12:27:54Z</time>
      </trkpt>
      <trkpt lat="45.5818747356534" lon="7.952779987826943">
        <ele>698.42999999999995</ele>
        <time>2019-10-26T12:28:09Z</time>
      </trkpt>
      <trkpt lat="45.581882698461413" lon="7.952758278697729">
        <ele>698.44000000000005</ele>
        <time>2019-10-26T12:28:29Z</time>
      </trkpt>
      <trkpt lat="45.581915639340878" lon="7.952750399708748">
        <ele>697.19000000000005</ele>
        <time>2019-10-26T12:28:46Z</time>
      </trkpt>
      <trkpt lat="45.581941371783614" lon="7.952767498791218">
        <ele>697.42999999999995</ele>
        <time>2019-10-26T12:29:04Z</time>
      </trkpt>
      <trkpt lat="45.58190256357193" lon="7.952815443277359">
        <ele>697.23000000000002</ele>
        <time>2019-10-26T12:29:08Z</time>
      </trkpt>
      <trkpt lat="45.581897366791964" lon="7.952940668910742">
        <ele>697.10000000000002</ele>
        <time>2019-10-26T12:29:27Z</time>
      </trkpt>
      <trkpt lat="45.581942545250058" lon="7.953004958108068">
        <ele>696.75</ele>
        <time>2019-10-26T12:29:48Z</time>
      </trkpt>
      <trkpt lat="45.582035584375262" lon="7.953075282275677">
        <ele>696.51999999999998</ele>
        <time>2019-10-26T12:30:13Z</time>
      </trkpt>
      <trkpt lat="45.58212292380631" lon="7.953013423830271">
        <ele>697.57000000000005</ele>
        <time>2019-10-26T12:30:33Z</time>
      </trkpt>
      <trkpt lat="45.582148572430015" lon="7.952993810176849">
        <ele>697.21000000000004</ele>
        <time>2019-10-26T12:30:39Z</time>
      </trkpt>
      <trkpt lat="45.582176735624671" lon="7.952970508486033">
        <ele>697.35000000000002</ele>
        <time>2019-10-26T12:30:49Z</time>
      </trkpt>
      <trkpt lat="45.582226105034351" lon="7.952956594526768">
        <ele>696.49000000000001</ele>
        <time>2019-10-26T12:31:01Z</time>
      </trkpt>
      <trkpt lat="45.582246892154217" lon="7.952957516536117">
        <ele>696.57000000000005</ele>
        <time>2019-10-26T12:31:03Z</time>
      </trkpt>
      <trkpt lat="45.582293998450041" lon="7.952950894832611">
        <ele>696.45000000000005</ele>
        <time>2019-10-26T12:31:07Z</time>
      </trkpt>
      <trkpt lat="45.582532547414303" lon="7.952917953953147">
        <ele>696.55999999999995</ele>
        <time>2019-10-26T12:31:34Z</time>
      </trkpt>
      <trkpt lat="45.582469264045358" lon="7.952928598970175">
        <ele>697.51999999999998</ele>
        <time>2019-10-26T12:31:44Z</time>
      </trkpt>
      <trkpt lat="45.582410842180252" lon="7.952934969216585">
        <ele>697.88</ele>
        <time>2019-10-26T12:31:56Z</time>
      </trkpt>
      <trkpt lat="45.582181178033352" lon="7.952960450202227">
        <ele>697.44000000000005</ele>
        <time>2019-10-26T12:32:09Z</time>
      </trkpt>
      <trkpt lat="45.582114290446043" lon="7.952915355563164">
        <ele>697.51999999999998</ele>
        <time>2019-10-26T12:32:29Z</time>
      </trkpt>
      <trkpt lat="45.58211412280798" lon="7.95292298309505">
        <ele>698.36000000000001</ele>
        <time>2019-10-26T12:32:34Z</time>
      </trkpt>
      <trkpt lat="45.582187380641699" lon="7.952957097440958">
        <ele>698.88</ele>
        <time>2019-10-26T12:32:48Z</time>
      </trkpt>
      <trkpt lat="45.582269355654716" lon="7.952967574819922">
        <ele>698.97000000000003</ele>
        <time>2019-10-26T12:33:03Z</time>
      </trkpt>
      <trkpt lat="45.582307409495115" lon="7.952965898439288">
        <ele>699.51999999999998</ele>
        <time>2019-10-26T12:33:06Z</time>
      </trkpt>
      <trkpt lat="45.582402544096112" lon="7.952967071905732">
        <ele>699.16999999999996</ele>
        <time>2019-10-26T12:33:26Z</time>
      </trkpt>
      <trkpt lat="45.582391647621989" lon="7.952951649203897">
        <ele>699.25</ele>
        <time>2019-10-26T12:33:32Z</time>
      </trkpt>
      <trkpt lat="45.582341691479087" lon="7.952929772436619">
        <ele>699.27999999999997</ele>
        <time>2019-10-26T12:33:50Z</time>
      </trkpt>
      <trkpt lat="45.58239952661097" lon="7.952955923974514">
        <ele>698.86000000000001</ele>
        <time>2019-10-26T12:34:01Z</time>
      </trkpt>
      <trkpt lat="45.582458702847362" lon="7.952986937016249">
        <ele>698.67999999999995</ele>
        <time>2019-10-26T12:34:12Z</time>
      </trkpt>
      <trkpt lat="45.582393994554877" lon="7.953008562326431">
        <ele>698.87</ele>
        <time>2019-10-26T12:34:22Z</time>
      </trkpt>
      <trkpt lat="45.582411177456379" lon="7.952994229272008">
        <ele>701.53999999999996</ele>
        <time>2019-10-26T12:34:24Z</time>
      </trkpt>
      <trkpt lat="45.582416793331504" lon="7.952986182644963">
        <ele>700.82000000000005</ele>
        <time>2019-10-26T12:34:25Z</time>
      </trkpt>
      <trkpt lat="45.582423247396946" lon="7.952975621446967">
        <ele>699.88</ele>
        <time>2019-10-26T12:34:27Z</time>
      </trkpt>
      <trkpt lat="45.582410087808967" lon="7.952966820448637">
        <ele>699.76999999999998</ele>
        <time>2019-10-26T12:34:30Z</time>
      </trkpt>
      <trkpt lat="45.58233205229044" lon="7.952966233715415">
        <ele>699.67999999999995</ele>
        <time>2019-10-26T12:34:43Z</time>
      </trkpt>
      <trkpt lat="45.582266002893448" lon="7.952946368604899">
        <ele>699.89999999999998</ele>
        <time>2019-10-26T12:34:49Z</time>
      </trkpt>
      <trkpt lat="45.582247311249375" lon="7.953012082725763">
        <ele>700.25</ele>
        <time>2019-10-26T12:35:17Z</time>
      </trkpt>
      <trkpt lat="45.582324927672744" lon="7.953022727742791">
        <ele>700.10000000000002</ele>
        <time>2019-10-26T12:35:38Z</time>
      </trkpt>
      <trkpt lat="45.582422828301787" lon="7.952996492385864">
        <ele>700.34000000000003</ele>
        <time>2019-10-26T12:35:57Z</time>
      </trkpt>
      <trkpt lat="45.582359209656715" lon="7.953007891774178">
        <ele>700.69000000000005</ele>
        <time>2019-10-26T12:36:14Z</time>
      </trkpt>
      <trkpt lat="45.582351833581924" lon="7.953005041927099">
        <ele>700.88999999999999</ele>
        <time>2019-10-26T12:36:27Z</time>
      </trkpt>
      <trkpt lat="45.582570182159543" lon="7.953062038868666">
        <ele>700.95000000000005</ele>
        <time>2019-10-26T12:36:45Z</time>
      </trkpt>
      <trkpt lat="45.582494828850031" lon="7.953068995848298">
        <ele>700.99000000000001</ele>
        <time>2019-10-26T12:37:03Z</time>
      </trkpt>
      <trkpt lat="45.582426767796278" lon="7.953086514025927">
        <ele>701.12</ele>
        <time>2019-10-26T12:37:11Z</time>
      </trkpt>
      <trkpt lat="45.582387624308467" lon="7.95307251624763">
        <ele>701.34000000000003</ele>
        <time>2019-10-26T12:37:24Z</time>
      </trkpt>
      <trkpt lat="45.58245861902833" lon="7.953030103817582">
        <ele>701.24000000000001</ele>
        <time>2019-10-26T12:37:46Z</time>
      </trkpt>
      <trkpt lat="45.582357449457049" lon="7.952983751893044">
        <ele>701.34000000000003</ele>
        <time>2019-10-26T12:38:06Z</time>
      </trkpt>
      <trkpt lat="45.582337835803628" lon="7.952972268685699">
        <ele>701.30999999999995</ele>
        <time>2019-10-26T12:38:15Z</time>
      </trkpt>
      <trkpt lat="45.582331968471408" lon="7.952987691387534">
        <ele>701.24000000000001</ele>
        <time>2019-10-26T12:38:36Z</time>
      </trkpt>
      <trkpt lat="45.582272540777922" lon="7.952993642538786">
        <ele>701.25999999999999</ele>
        <time>2019-10-26T12:39:00Z</time>
      </trkpt>
      <trkpt lat="45.582251418381929" lon="7.953007975593209">
        <ele>700.49000000000001</ele>
        <time>2019-10-26T12:39:18Z</time>
      </trkpt>
      <trkpt lat="45.582239013165236" lon="7.953000012785196">
        <ele>700.28999999999996</ele>
        <time>2019-10-26T12:39:22Z</time>
      </trkpt>
      <trkpt lat="45.58216885663569" lon="7.952877217903733">
        <ele>701.48000000000002</ele>
        <time>2019-10-26T12:39:41Z</time>
      </trkpt>
      <trkpt lat="45.582116469740868" lon="7.95277202501893">
        <ele>702.24000000000001</ele>
        <time>2019-10-26T12:40:01Z</time>
      </trkpt>
      <trkpt lat="45.582098700106144" lon="7.952675633132458">
        <ele>705.10000000000002</ele>
        <time>2019-10-26T12:40:20Z</time>
      </trkpt>
      <trkpt lat="45.58211219497025" lon="7.952656773850322">
        <ele>707.71000000000004</ele>
        <time>2019-10-26T12:40:34Z</time>
      </trkpt>
      <trkpt lat="45.582146979868412" lon="7.952650235965848">
        <ele>708.73000000000002</ele>
        <time>2019-10-26T12:40:49Z</time>
      </trkpt>
      <trkpt lat="45.58220699429512" lon="7.952594580128789">
        <ele>709.04999999999995</ele>
        <time>2019-10-26T12:41:02Z</time>
      </trkpt>
      <trkpt lat="45.582236582413316" lon="7.952588628977537">
        <ele>709.67999999999995</ele>
        <time>2019-10-26T12:41:20Z</time>
      </trkpt>
      <trkpt lat="45.582259129732847" lon="7.95262735337019">
        <ele>709.42999999999995</ele>
        <time>2019-10-26T12:41:42Z</time>
      </trkpt>
      <trkpt lat="45.58220012113452" lon="7.952598184347153">
        <ele>708.92999999999995</ele>
        <time>2019-10-26T12:42:03Z</time>
      </trkpt>
      <trkpt lat="45.582207161933184" lon="7.952616373077035">
        <ele>708.91999999999996</ele>
        <time>2019-10-26T12:42:06Z</time>
      </trkpt>
      <trkpt lat="45.582206826657057" lon="7.952648643404245">
        <ele>708.77999999999997</ele>
        <time>2019-10-26T12:42:22Z</time>
      </trkpt>
      <trkpt lat="45.58221478946507" lon="7.952652163803577">
        <ele>708.99000000000001</ele>
        <time>2019-10-26T12:42:30Z</time>
      </trkpt>
      <trkpt lat="45.582232475280762" lon="7.952626598998904">
        <ele>708.79999999999995</ele>
        <time>2019-10-26T12:42:45Z</time>
      </trkpt>
      <trkpt lat="45.582270361483097" lon="7.952571948990226">
        <ele>709.08000000000004</ele>
        <time>2019-10-26T12:42:59Z</time>
      </trkpt>
      <trkpt lat="45.582316881045699" lon="7.952458374202251">
        <ele>711.96000000000004</ele>
        <time>2019-10-26T12:43:13Z</time>
      </trkpt>
      <trkpt lat="45.582349235191941" lon="7.952325604856014">
        <ele>712.67999999999995</ele>
        <time>2019-10-26T12:43:28Z</time>
      </trkpt>
      <trkpt lat="45.582328950986266" lon="7.952179927378893">
        <ele>712.5</ele>
        <time>2019-10-26T12:43:43Z</time>
      </trkpt>
      <trkpt lat="45.582339260727167" lon="7.952096275985241">
        <ele>713.15999999999997</ele>
        <time>2019-10-26T12:43:57Z</time>
      </trkpt>
      <trkpt lat="45.5823462177068" lon="7.951986389234662">
        <ele>716.23000000000002</ele>
        <time>2019-10-26T12:44:08Z</time>
      </trkpt>
      <trkpt lat="45.582347558811307" lon="7.95186460018158">
        <ele>719.24000000000001</ele>
        <time>2019-10-26T12:44:21Z</time>
      </trkpt>
      <trkpt lat="45.582345798611641" lon="7.951738201081753">
        <ele>721.71000000000004</ele>
        <time>2019-10-26T12:44:36Z</time>
      </trkpt>
      <trkpt lat="45.582388713955879" lon="7.951660081744194">
        <ele>724.75999999999999</ele>
        <time>2019-10-26T12:44:51Z</time>
      </trkpt>
      <trkpt lat="45.582424756139517" lon="7.951679527759552">
        <ele>726.85000000000002</ele>
        <time>2019-10-26T12:45:05Z</time>
      </trkpt>
      <trkpt lat="45.582457780838013" lon="7.95155187137425">
        <ele>729.49000000000001</ele>
        <time>2019-10-26T12:45:21Z</time>
      </trkpt>
      <trkpt lat="45.582498600706458" lon="7.951568551361561">
        <ele>731.50999999999999</ele>
        <time>2019-10-26T12:45:33Z</time>
      </trkpt>
      <trkpt lat="45.582574792206287" lon="7.951644407585263">
        <ele>734.08000000000004</ele>
        <time>2019-10-26T12:45:48Z</time>
      </trkpt>
      <trkpt lat="45.582632794976234" lon="7.951712133362889">
        <ele>736.48000000000002</ele>
        <time>2019-10-26T12:46:01Z</time>
      </trkpt>
      <trkpt lat="45.582691384479403" lon="7.951799053698778">
        <ele>738.34000000000003</ele>
        <time>2019-10-26T12:46:14Z</time>
      </trkpt>
      <trkpt lat="45.582815185189247" lon="7.951886476948857">
        <ele>740.74000000000001</ele>
        <time>2019-10-26T12:46:31Z</time>
      </trkpt>
      <trkpt lat="45.582899339497089" lon="7.951990580186248">
        <ele>743.02999999999997</ele>
        <time>2019-10-26T12:46:49Z</time>
      </trkpt>
      <trkpt lat="45.582938231527805" lon="7.952113291248679">
        <ele>745.37</ele>
        <time>2019-10-26T12:47:05Z</time>
      </trkpt>
      <trkpt lat="45.582965556532145" lon="7.952119493857026">
        <ele>745.08000000000004</ele>
        <time>2019-10-26T12:47:22Z</time>
      </trkpt>
      <trkpt lat="45.583002436906099" lon="7.952130222693086">
        <ele>743.89999999999998</ele>
        <time>2019-10-26T12:47:38Z</time>
      </trkpt>
      <trkpt lat="45.583018362522125" lon="7.9521294683218">
        <ele>743.98000000000002</ele>
        <time>2019-10-26T12:48:00Z</time>
      </trkpt>
      <trkpt lat="45.582986595109105" lon="7.95216852799058">
        <ele>743.74000000000001</ele>
        <time>2019-10-26T12:48:12Z</time>
      </trkpt>
      <trkpt lat="45.582930436357856" lon="7.952197110280395">
        <ele>743.64999999999998</ele>
        <time>2019-10-26T12:48:36Z</time>
      </trkpt>
      <trkpt lat="45.582887437194586" lon="7.952166683971882">
        <ele>743.39999999999998</ele>
        <time>2019-10-26T12:49:01Z</time>
      </trkpt>
      <trkpt lat="45.582901267334819" lon="7.952122762799263">
        <ele>743.12</ele>
        <time>2019-10-26T12:49:24Z</time>
      </trkpt>
      <trkpt lat="45.582915097475052" lon="7.952156374230981">
        <ele>743.12</ele>
        <time>2019-10-26T12:49:49Z</time>
      </trkpt>
      <trkpt lat="45.582857597619295" lon="7.952154194936156">
        <ele>742.98000000000002</ele>
        <time>2019-10-26T12:50:11Z</time>
      </trkpt>
      <trkpt lat="45.582844354212284" lon="7.952194344252348">
        <ele>743.01999999999998</ele>
        <time>2019-10-26T12:50:34Z</time>
      </trkpt>
      <trkpt lat="45.582850892096758" lon="7.952211108058691">
        <ele>743.01999999999998</ele>
        <time>2019-10-26T12:50:56Z</time>
      </trkpt>
      <trkpt lat="45.582768833264709" lon="7.952142041176558">
        <ele>743.08000000000004</ele>
        <time>2019-10-26T12:51:18Z</time>
      </trkpt>
      <trkpt lat="45.582842342555523" lon="7.952072974294424">
        <ele>742.94000000000005</ele>
        <time>2019-10-26T12:51:42Z</time>
      </trkpt>
      <trkpt lat="45.582936555147171" lon="7.952136341482401">
        <ele>742.73000000000002</ele>
        <time>2019-10-26T12:52:07Z</time>
      </trkpt>
      <trkpt lat="45.582941332831979" lon="7.952126618474722">
        <ele>742.64999999999998</ele>
        <time>2019-10-26T12:52:30Z</time>
      </trkpt>
      <trkpt lat="45.582879474386573" lon="7.952137012034655">
        <ele>742.82000000000005</ele>
        <time>2019-10-26T12:52:45Z</time>
      </trkpt>
      <trkpt lat="45.582836223766208" lon="7.952137179672718">
        <ele>742.75</ele>
        <time>2019-10-26T12:53:19Z</time>
      </trkpt>
      <trkpt lat="45.582836978137493" lon="7.952128630131483">
        <ele>742.66999999999996</ele>
        <time>2019-10-26T12:53:53Z</time>
      </trkpt>
      <trkpt lat="45.58288861066103" lon="7.952108178287745">
        <ele>742.63</ele>
        <time>2019-10-26T12:54:15Z</time>
      </trkpt>
      <trkpt lat="45.58286807499826" lon="7.952069956809282">
        <ele>742.53999999999996</ele>
        <time>2019-10-26T12:54:42Z</time>
      </trkpt>
      <trkpt lat="45.582817699760199" lon="7.952089067548513">
        <ele>742.35000000000002</ele>
        <time>2019-10-26T12:55:07Z</time>
      </trkpt>
      <trkpt lat="45.582857597619295" lon="7.952197780832648">
        <ele>742.10000000000002</ele>
        <time>2019-10-26T12:55:31Z</time>
      </trkpt>
      <trkpt lat="45.582870757207274" lon="7.952243629842997">
        <ele>741.88</ele>
        <time>2019-10-26T12:55:57Z</time>
      </trkpt>
      <trkpt lat="45.582867069169879" lon="7.952263578772545">
        <ele>742.20000000000005</ele>
        <time>2019-10-26T12:56:23Z</time>
      </trkpt>
      <trkpt lat="45.582845024764538" lon="7.952203815802932">
        <ele>742.36000000000001</ele>
        <time>2019-10-26T12:56:41Z</time>
      </trkpt>
      <trkpt lat="45.582818286493421" lon="7.952200546860695">
        <ele>742.04999999999995</ele>
        <time>2019-10-26T12:57:07Z</time>
      </trkpt>
      <trkpt lat="45.582823902368546" lon="7.952156960964203">
        <ele>742</ele>
        <time>2019-10-26T12:57:28Z</time>
      </trkpt>
      <trkpt lat="45.582863129675388" lon="7.952172048389912">
        <ele>742.03999999999996</ele>
        <time>2019-10-26T12:57:46Z</time>
      </trkpt>
      <trkpt lat="45.582891209051013" lon="7.952177915722132">
        <ele>741.75</ele>
        <time>2019-10-26T12:58:10Z</time>
      </trkpt>
      <trkpt lat="45.582901351153851" lon="7.952243462204933">
        <ele>742.05999999999995</ele>
        <time>2019-10-26T12:58:30Z</time>
      </trkpt>
      <trkpt lat="45.582863632589579" lon="7.952185543254018">
        <ele>741.89999999999998</ele>
        <time>2019-10-26T12:58:54Z</time>
      </trkpt>
      <trkpt lat="45.582848126068711" lon="7.952172802761197">
        <ele>742.13</ele>
        <time>2019-10-26T12:59:26Z</time>
      </trkpt>
      <trkpt lat="45.582885006442666" lon="7.952246898785234">
        <ele>741.73000000000002</ele>
        <time>2019-10-26T12:59:47Z</time>
      </trkpt>
      <trkpt lat="45.58286271058023" lon="7.952237259596586">
        <ele>741.21000000000004</ele>
        <time>2019-10-26T13:00:07Z</time>
      </trkpt>
      <trkpt lat="45.582916773855686" lon="7.95219493098557">
        <ele>741.05999999999995</ele>
        <time>2019-10-26T13:00:52Z</time>
      </trkpt>
      <trkpt lat="45.582913672551513" lon="7.95216660015285">
        <ele>740.72000000000003</ele>
        <time>2019-10-26T13:01:37Z</time>
      </trkpt>
      <trkpt lat="45.582910487428308" lon="7.952125361189246">
        <ele>740.61000000000001</ele>
        <time>2019-10-26T13:02:30Z</time>
      </trkpt>
      <trkpt lat="45.58292674832046" lon="7.95210943557322">
        <ele>740.41999999999996</ele>
        <time>2019-10-26T13:03:29Z</time>
      </trkpt>
      <trkpt lat="45.582892214879394" lon="7.952148830518127">
        <ele>740.37</ele>
        <time>2019-10-26T13:04:24Z</time>
      </trkpt>
      <trkpt lat="45.582888694480062" lon="7.952202139422298">
        <ele>739.80999999999995</ele>
        <time>2019-10-26T13:05:08Z</time>
      </trkpt>
      <trkpt lat="45.582878636196256" lon="7.952194511890411">
        <ele>739.66999999999996</ele>
        <time>2019-10-26T13:06:03Z</time>
      </trkpt>
      <trkpt lat="45.582884671166539" lon="7.952176239341497">
        <ele>739.71000000000004</ele>
        <time>2019-10-26T13:06:39Z</time>
      </trkpt>
      <trkpt lat="45.582864889875054" lon="7.952211778610945">
        <ele>739.91999999999996</ele>
        <time>2019-10-26T13:07:40Z</time>
      </trkpt>
      <trkpt lat="45.582851227372885" lon="7.95218956656754">
        <ele>739.61000000000001</ele>
        <time>2019-10-26T13:08:21Z</time>
      </trkpt>
      <trkpt lat="45.582882575690746" lon="7.952232984825969">
        <ele>739.95000000000005</ele>
        <time>2019-10-26T13:09:07Z</time>
      </trkpt>
      <trkpt lat="45.582907721400261" lon="7.952224351465702">
        <ele>740.02999999999997</ele>
        <time>2019-10-26T13:09:32Z</time>
      </trkpt>
      <trkpt lat="45.582940327003598" lon="7.952237091958523">
        <ele>740.02999999999997</ele>
        <time>2019-10-26T13:09:56Z</time>
      </trkpt>
      <trkpt lat="45.582964299246669" lon="7.952239355072379">
        <ele>740.76999999999998</ele>
        <time>2019-10-26T13:10:18Z</time>
      </trkpt>
      <trkpt lat="45.582968825474381" lon="7.952256957069039">
        <ele>742.24000000000001</ele>
        <time>2019-10-26T13:10:27Z</time>
      </trkpt>
      <trkpt lat="45.582971004769206" lon="7.95226969756186">
        <ele>741.26999999999998</ele>
        <time>2019-10-26T13:10:29Z</time>
      </trkpt>
      <trkpt lat="45.582985924556851" lon="7.952324599027634">
        <ele>741.75</ele>
        <time>2019-10-26T13:10:37Z</time>
      </trkpt>
      <trkpt lat="45.582965556532145" lon="7.952368520200253">
        <ele>742.00999999999999</ele>
        <time>2019-10-26T13:10:47Z</time>
      </trkpt>
      <trkpt lat="45.582970585674047" lon="7.952392157167196">
        <ele>742.13999999999999</ele>
        <time>2019-10-26T13:10:49Z</time>
      </trkpt>
      <trkpt lat="45.582951894029975" lon="7.95255065895617">
        <ele>743.85000000000002</ele>
        <time>2019-10-26T13:11:02Z</time>
      </trkpt>
      <trkpt lat="45.582961868494749" lon="7.95269968919456">
        <ele>746.10000000000002</ele>
        <time>2019-10-26T13:11:17Z</time>
      </trkpt>
      <trkpt lat="45.582964969798923" lon="7.952713770791888">
        <ele>746.20000000000005</ele>
        <time>2019-10-26T13:11:18Z</time>
      </trkpt>
      <trkpt lat="45.582975950092077" lon="7.952786693349481">
        <ele>746.62</ele>
        <time>2019-10-26T13:11:23Z</time>
      </trkpt>
      <trkpt lat="45.582956168800592" lon="7.952970340847969">
        <ele>747.82000000000005</ele>
        <time>2019-10-26T13:11:35Z</time>
      </trkpt>
      <trkpt lat="45.582914091646671" lon="7.953171003609896">
        <ele>748.41999999999996</ele>
        <time>2019-10-26T13:11:50Z</time>
      </trkpt>
      <trkpt lat="45.582846533507109" lon="7.953263372182846">
        <ele>746.82000000000005</ele>
        <time>2019-10-26T13:12:02Z</time>
      </trkpt>
      <trkpt lat="45.582758188247681" lon="7.95339253731072">
        <ele>745.44000000000005</ele>
        <time>2019-10-26T13:12:11Z</time>
      </trkpt>
      <trkpt lat="45.582752907648683" lon="7.9535161703825">
        <ele>745.63</ele>
        <time>2019-10-26T13:12:22Z</time>
      </trkpt>
      <trkpt lat="45.582797918468714" lon="7.953617088496685">
        <ele>747.33000000000004</ele>
        <time>2019-10-26T13:12:34Z</time>
      </trkpt>
      <trkpt lat="45.58282021433115" lon="7.953649945557118">
        <ele>747.42999999999995</ele>
        <time>2019-10-26T13:12:46Z</time>
      </trkpt>
      <trkpt lat="45.58282365091145" lon="7.953655729070306">
        <ele>747.47000000000003</ele>
        <time>2019-10-26T13:13:04Z</time>
      </trkpt>
      <trkpt lat="45.582818789407611" lon="7.953782547265291">
        <ele>748.99000000000001</ele>
        <time>2019-10-26T13:13:16Z</time>
      </trkpt>
      <trkpt lat="45.582805881276727" lon="7.953808614984155">
        <ele>749.58000000000004</ele>
        <time>2019-10-26T13:13:19Z</time>
      </trkpt>
      <trkpt lat="45.582759361714125" lon="7.953850859776139">
        <ele>749.87</ele>
        <time>2019-10-26T13:13:24Z</time>
      </trkpt>
      <trkpt lat="45.58275131508708" lon="7.953867623582482">
        <ele>750.13</ele>
        <time>2019-10-26T13:13:26Z</time>
      </trkpt>
      <trkpt lat="45.5827347189188" lon="7.95391833409667">
        <ele>750.10000000000002</ele>
        <time>2019-10-26T13:13:30Z</time>
      </trkpt>
      <trkpt lat="45.58270244859159" lon="7.954058311879635">
        <ele>751.83000000000004</ele>
        <time>2019-10-26T13:13:41Z</time>
      </trkpt>
      <trkpt lat="45.582671770825982" lon="7.954149842262268">
        <ele>752.21000000000004</ele>
        <time>2019-10-26T13:13:47Z</time>
      </trkpt>
      <trkpt lat="45.582552161067724" lon="7.954294849187136">
        <ele>751.66999999999996</ele>
        <time>2019-10-26T13:14:00Z</time>
      </trkpt>
      <trkpt lat="45.582522321492434" lon="7.95431312173605">
        <ele>751.73000000000002</ele>
        <time>2019-10-26T13:14:03Z</time>
      </trkpt>
      <trkpt lat="45.58248795568943" lon="7.954338099807501">
        <ele>751.07000000000005</ele>
        <time>2019-10-26T13:14:06Z</time>
      </trkpt>
      <trkpt lat="45.582415955141187" lon="7.954465756192803">
        <ele>752.40999999999997</ele>
        <time>2019-10-26T13:14:18Z</time>
      </trkpt>
      <trkpt lat="45.582400448620319" lon="7.954471791163087">
        <ele>752.13999999999999</ele>
        <time>2019-10-26T13:14:24Z</time>
      </trkpt>
      <trkpt lat="45.582507653161883" lon="7.954311026260257">
        <ele>750.54999999999995</ele>
        <time>2019-10-26T13:14:38Z</time>
      </trkpt>
      <trkpt lat="45.5825275182724" lon="7.954304404556751">
        <ele>750</ele>
        <time>2019-10-26T13:14:52Z</time>
      </trkpt>
      <trkpt lat="45.582524249330163" lon="7.954291664063931">
        <ele>749.58000000000004</ele>
        <time>2019-10-26T13:15:18Z</time>
      </trkpt>
      <trkpt lat="45.582532463595271" lon="7.954302225261927">
        <ele>749.45000000000005</ele>
        <time>2019-10-26T13:15:37Z</time>
      </trkpt>
      <trkpt lat="45.582548640668392" lon="7.95430775731802">
        <ele>749.41999999999996</ele>
        <time>2019-10-26T13:16:16Z</time>
      </trkpt>
      <trkpt lat="45.582550233229995" lon="7.954299207776785">
        <ele>749.13999999999999</ele>
        <time>2019-10-26T13:17:07Z</time>
      </trkpt>
      <trkpt lat="45.582554843276739" lon="7.954305997118354">
        <ele>749.11000000000001</ele>
        <time>2019-10-26T13:18:04Z</time>
      </trkpt>
      <trkpt lat="45.582551322877407" lon="7.954306919127703">
        <ele>747.78999999999996</ele>
        <time>2019-10-26T13:18:25Z</time>
      </trkpt>
      <trkpt lat="45.58254704810679" lon="7.954305075109005">
        <ele>746.22000000000003</ele>
        <time>2019-10-26T13:18:29Z</time>
      </trkpt>
      <trkpt lat="45.582543779164553" lon="7.954304488375783">
        <ele>750.87</ele>
        <time>2019-10-26T13:18:32Z</time>
      </trkpt>
      <trkpt lat="45.582542773336172" lon="7.95430432073772">
        <ele>749.84000000000003</ele>
        <time>2019-10-26T13:18:33Z</time>
      </trkpt>
      <trkpt lat="45.582540929317474" lon="7.954302560538054">
        <ele>745</ele>
        <time>2019-10-26T13:18:35Z</time>
      </trkpt>
      <trkpt lat="45.58253975585103" lon="7.9543018899858">
        <ele>749.48000000000002</ele>
        <time>2019-10-26T13:18:37Z</time>
      </trkpt>
      <trkpt lat="45.582539001479745" lon="7.954301303252578">
        <ele>748.89999999999998</ele>
        <time>2019-10-26T13:18:38Z</time>
      </trkpt>
      <trkpt lat="45.582532798871398" lon="7.954294178634882">
        <ele>745.70000000000005</ele>
        <time>2019-10-26T13:18:49Z</time>
      </trkpt>
      <trkpt lat="45.582532715052366" lon="7.954293424263597">
        <ele>746.13999999999999</ele>
        <time>2019-10-26T13:18:50Z</time>
      </trkpt>
      <trkpt lat="45.582532379776239" lon="7.954292753711343">
        <ele>749.63</ele>
        <time>2019-10-26T13:18:51Z</time>
      </trkpt>
      <trkpt lat="45.582531876862049" lon="7.954292166978121">
        <ele>749.26999999999998</ele>
        <time>2019-10-26T13:18:52Z</time>
      </trkpt>
      <trkpt lat="45.582527182996273" lon="7.954285880550742">
        <ele>745.95000000000005</ele>
        <time>2019-10-26T13:19:05Z</time>
      </trkpt>
      <trkpt lat="45.582526931539178" lon="7.954286551102996">
        <ele>750.08000000000004</ele>
        <time>2019-10-26T13:19:08Z</time>
      </trkpt>
      <trkpt lat="45.582526763901114" lon="7.954288059845567">
        <ele>753.5</ele>
        <time>2019-10-26T13:19:09Z</time>
      </trkpt>
      <trkpt lat="45.582526093348861" lon="7.954288646578789">
        <ele>751.44000000000005</ele>
        <time>2019-10-26T13:19:10Z</time>
      </trkpt>
      <trkpt lat="45.582525506615639" lon="7.954290909692645">
        <ele>748.76999999999998</ele>
        <time>2019-10-26T13:19:13Z</time>
      </trkpt>
      <trkpt lat="45.582517124712467" lon="7.954299375414848">
        <ele>748.48000000000002</ele>
        <time>2019-10-26T13:19:49Z</time>
      </trkpt>
      <trkpt lat="45.582496672868729" lon="7.954303231090307">
        <ele>748.48000000000002</ele>
        <time>2019-10-26T13:20:12Z</time>
      </trkpt>
      <trkpt lat="45.582608319818974" lon="7.955690687522292">
        <ele>735.50999999999999</ele>
        <time>2019-10-26T13:24:24Z</time>
      </trkpt>
      <trkpt lat="45.582506647333503" lon="7.955753300338984">
        <ele>735.20000000000005</ele>
        <time>2019-10-26T13:24:27Z</time>
      </trkpt>
      <trkpt lat="45.582523411139846" lon="7.955767214298248">
        <ele>734.94000000000005</ele>
        <time>2019-10-26T13:24:28Z</time>
      </trkpt>
      <trkpt lat="45.582529697567225" lon="7.955774003639817">
        <ele>734.88999999999999</ele>
        <time>2019-10-26T13:24:29Z</time>
      </trkpt>
      <trkpt lat="45.582531541585922" lon="7.955792443826795">
        <ele>734.75999999999999</ele>
        <time>2019-10-26T13:24:30Z</time>
      </trkpt>
      <trkpt lat="45.582522405311465" lon="7.955782301723957">
        <ele>734.29999999999995</ele>
        <time>2019-10-26T13:24:31Z</time>
      </trkpt>
      <trkpt lat="45.582521567121148" lon="7.955908114090562">
        <ele>732.42999999999995</ele>
        <time>2019-10-26T13:24:40Z</time>
      </trkpt>
      <trkpt lat="45.582530619576573" lon="7.956095281988382">
        <ele>732.59000000000003</ele>
        <time>2019-10-26T13:24:53Z</time>
      </trkpt>
      <trkpt lat="45.582558950409293" lon="7.956267865374684">
        <ele>733.10000000000002</ele>
        <time>2019-10-26T13:25:05Z</time>
      </trkpt>
      <trkpt lat="45.582559034228325" lon="7.956284293904901">
        <ele>733.17999999999995</ele>
        <time>2019-10-26T13:25:06Z</time>
      </trkpt>
      <trkpt lat="45.582560040056705" lon="7.956301476806402">
        <ele>733.16999999999996</ele>
        <time>2019-10-26T13:25:07Z</time>
      </trkpt>
      <trkpt lat="45.582565404474735" lon="7.956514712423086">
        <ele>733.92999999999995</ele>
        <time>2019-10-26T13:25:20Z</time>
      </trkpt>
      <trkpt lat="45.582595495507121" lon="7.956719482317567">
        <ele>735.32000000000005</ele>
        <time>2019-10-26T13:25:34Z</time>
      </trkpt>
      <trkpt lat="45.582617959007621" lon="7.956811599433422">
        <ele>736.14999999999998</ele>
        <time>2019-10-26T13:25:41Z</time>
      </trkpt>
      <trkpt lat="45.582617456093431" lon="7.956827525049448">
        <ele>736.30999999999995</ele>
        <time>2019-10-26T13:25:42Z</time>
      </trkpt>
      <trkpt lat="45.582616198807955" lon="7.956840936094523">
        <ele>736.46000000000004</ele>
        <time>2019-10-26T13:25:43Z</time>
      </trkpt>
      <trkpt lat="45.582594489678741" lon="7.956979321315885">
        <ele>738.03999999999996</ele>
        <time>2019-10-26T13:25:54Z</time>
      </trkpt>
      <trkpt lat="45.582561967894435" lon="7.957132291048765">
        <ele>739.63999999999999</ele>
        <time>2019-10-26T13:26:07Z</time>
      </trkpt>
      <trkpt lat="45.582539923489094" lon="7.957248464226723">
        <ele>740.55999999999995</ele>
        <time>2019-10-26T13:26:17Z</time>
      </trkpt>
      <trkpt lat="45.582522824406624" lon="7.957425406202674">
        <ele>742.55999999999995</ele>
        <time>2019-10-26T13:26:31Z</time>
      </trkpt>
      <trkpt lat="45.58251385577023" lon="7.957562953233719">
        <ele>743.24000000000001</ele>
        <time>2019-10-26T13:26:41Z</time>
      </trkpt>
      <trkpt lat="45.582551825791597" lon="7.957713408395648">
        <ele>744.79999999999995</ele>
        <time>2019-10-26T13:26:53Z</time>
      </trkpt>
      <trkpt lat="45.582567667588592" lon="7.957769148051739">
        <ele>744.98000000000002</ele>
        <time>2019-10-26T13:26:57Z</time>
      </trkpt>
      <trkpt lat="45.582572529092431" lon="7.957784235477448">
        <ele>744.84000000000003</ele>
        <time>2019-10-26T13:26:58Z</time>
      </trkpt>
      <trkpt lat="45.582579905167222" lon="7.95779999345541">
        <ele>744.83000000000004</ele>
        <time>2019-10-26T13:26:59Z</time>
      </trkpt>
      <trkpt lat="45.582585018128157" lon="7.957817427814007">
        <ele>744.71000000000004</ele>
        <time>2019-10-26T13:27:00Z</time>
      </trkpt>
      <trkpt lat="45.582587532699108" lon="7.957834945991635">
        <ele>744.75</ele>
        <time>2019-10-26T13:27:01Z</time>
      </trkpt>
      <trkpt lat="45.582633465528488" lon="7.958069471642375">
        <ele>744.55999999999995</ele>
        <time>2019-10-26T13:27:15Z</time>
      </trkpt>
      <trkpt lat="45.582570601254702" lon="7.958288406953216">
        <ele>745.5</ele>
        <time>2019-10-26T13:27:29Z</time>
      </trkpt>
      <trkpt lat="45.582562889903784" lon="7.958302237093449">
        <ele>745.65999999999997</ele>
        <time>2019-10-26T13:27:30Z</time>
      </trkpt>
      <trkpt lat="45.582557190209627" lon="7.958316570147872">
        <ele>745.65999999999997</ele>
        <time>2019-10-26T13:27:31Z</time>
      </trkpt>
      <trkpt lat="45.58248745277524" lon="7.958473144099116">
        <ele>746.01999999999998</ele>
        <time>2019-10-26T13:27:43Z</time>
      </trkpt>
      <trkpt lat="45.582442861050367" lon="7.958669448271394">
        <ele>746.52999999999997</ele>
        <time>2019-10-26T13:27:55Z</time>
      </trkpt>
      <trkpt lat="45.582382259890437" lon="7.958786375820637">
        <ele>747.21000000000004</ele>
        <time>2019-10-26T13:28:05Z</time>
      </trkpt>
      <trkpt lat="45.582354934886098" lon="7.958884024992585">
        <ele>747.59000000000003</ele>
        <time>2019-10-26T13:28:11Z</time>
      </trkpt>
      <trkpt lat="45.582353426143527" lon="7.958901291713119">
        <ele>747.63999999999999</ele>
        <time>2019-10-26T13:28:12Z</time>
      </trkpt>
      <trkpt lat="45.582366250455379" lon="7.959067253395915">
        <ele>747.15999999999997</ele>
        <time>2019-10-26T13:28:23Z</time>
      </trkpt>
      <trkpt lat="45.582372033968568" lon="7.959080832079053">
        <ele>746.99000000000001</ele>
        <time>2019-10-26T13:28:24Z</time>
      </trkpt>
      <trkpt lat="45.58237656019628" lon="7.959095500409603">
        <ele>746.91999999999996</ele>
        <time>2019-10-26T13:28:25Z</time>
      </trkpt>
      <trkpt lat="45.582381589338183" lon="7.959111258387566">
        <ele>746.76999999999998</ele>
        <time>2019-10-26T13:28:26Z</time>
      </trkpt>
      <trkpt lat="45.582385696470737" lon="7.959126094356179">
        <ele>746.64999999999998</ele>
        <time>2019-10-26T13:28:27Z</time>
      </trkpt>
      <trkpt lat="45.582389133051038" lon="7.959142774343491">
        <ele>746.51999999999998</ele>
        <time>2019-10-26T13:28:28Z</time>
      </trkpt>
      <trkpt lat="45.582419894635677" lon="7.959420382976532">
        <ele>743.83000000000004</ele>
        <time>2019-10-26T13:28:42Z</time>
      </trkpt>
      <trkpt lat="45.582422325387597" lon="7.959698745980859">
        <ele>743.49000000000001</ele>
        <time>2019-10-26T13:28:57Z</time>
      </trkpt>
      <trkpt lat="45.58233498595655" lon="7.959882896393538">
        <ele>743.82000000000005</ele>
        <time>2019-10-26T13:29:10Z</time>
      </trkpt>
      <trkpt lat="45.582276564091444" lon="7.960113398730755">
        <ele>744.72000000000003</ele>
        <time>2019-10-26T13:29:25Z</time>
      </trkpt>
      <trkpt lat="45.582211771979928" lon="7.960322108119726">
        <ele>745.38999999999999</ele>
        <time>2019-10-26T13:29:38Z</time>
      </trkpt>
      <trkpt lat="45.582080259919167" lon="7.960473066195846">
        <ele>744.23000000000002</ele>
        <time>2019-10-26T13:29:52Z</time>
      </trkpt>
      <trkpt lat="45.582032399252057" lon="7.960506929084659">
        <ele>742.63</ele>
        <time>2019-10-26T13:29:57Z</time>
      </trkpt>
      <trkpt lat="45.58197733014822" lon="7.960560992360115">
        <ele>740.95000000000005</ele>
        <time>2019-10-26T13:30:05Z</time>
      </trkpt>
      <trkpt lat="45.581957129761577" lon="7.960585970431566">
        <ele>740.53999999999996</ele>
        <time>2019-10-26T13:30:08Z</time>
      </trkpt>
      <trkpt lat="45.581855121999979" lon="7.960705328732729">
        <ele>737.5</ele>
        <time>2019-10-26T13:30:20Z</time>
      </trkpt>
      <trkpt lat="45.581760071218014" lon="7.960913619026542">
        <ele>735.38999999999999</ele>
        <time>2019-10-26T13:30:34Z</time>
      </trkpt>
      <trkpt lat="45.581709193065763" lon="7.961220312863588">
        <ele>733.19000000000005</ele>
        <time>2019-10-26T13:30:52Z</time>
      </trkpt>
      <trkpt lat="45.58167826384306" lon="7.961458694189787">
        <ele>732.37</ele>
        <time>2019-10-26T13:31:06Z</time>
      </trkpt>
      <trkpt lat="45.581622775644064" lon="7.961754491552711">
        <ele>731.05999999999995</ele>
        <time>2019-10-26T13:31:24Z</time>
      </trkpt>
      <trkpt lat="45.581599390134215" lon="7.962022041901946">
        <ele>728.46000000000004</ele>
        <time>2019-10-26T13:31:40Z</time>
      </trkpt>
      <trkpt lat="45.581652279943228" lon="7.962262015789747">
        <ele>727.41999999999996</ele>
        <time>2019-10-26T13:31:54Z</time>
      </trkpt>
      <trkpt lat="45.581749593839049" lon="7.962476257234812">
        <ele>726.17999999999995</ele>
        <time>2019-10-26T13:32:09Z</time>
      </trkpt>
      <trkpt lat="45.581750683486462" lon="7.962682284414768">
        <ele>724.5</ele>
        <time>2019-10-26T13:32:21Z</time>
      </trkpt>
      <trkpt lat="45.58163576759398" lon="7.962817652150989">
        <ele>722.98000000000002</ele>
        <time>2019-10-26T13:32:33Z</time>
      </trkpt>
      <trkpt lat="45.581553373485804" lon="7.962850341573358">
        <ele>721.66999999999996</ele>
        <time>2019-10-26T13:32:43Z</time>
      </trkpt>
      <trkpt lat="45.581484474241734" lon="7.962859142571688">
        <ele>720.87</ele>
        <time>2019-10-26T13:33:01Z</time>
      </trkpt>
      <trkpt lat="45.581376599147916" lon="7.962966682389379">
        <ele>719.39999999999998</ele>
        <time>2019-10-26T13:33:17Z</time>
      </trkpt>
      <trkpt lat="45.58132697828114" lon="7.963013285771012">
        <ele>718.92999999999995</ele>
        <time>2019-10-26T13:33:23Z</time>
      </trkpt>
      <trkpt lat="45.581261767074466" lon="7.963077994063497">
        <ele>718.32000000000005</ele>
        <time>2019-10-26T13:33:32Z</time>
      </trkpt>
      <trkpt lat="45.581183396279812" lon="7.963151503354311">
        <ele>717.75</ele>
        <time>2019-10-26T13:33:42Z</time>
      </trkpt>
      <trkpt lat="45.581084070727229" lon="7.963181342929602">
        <ele>717.39999999999998</ele>
        <time>2019-10-26T13:33:51Z</time>
      </trkpt>
      <trkpt lat="45.580980889499187" lon="7.963224677368999">
        <ele>717.39999999999998</ele>
        <time>2019-10-26T13:34:00Z</time>
      </trkpt>
      <trkpt lat="45.580879217013717" lon="7.963273040950298">
        <ele>717.08000000000004</ele>
        <time>2019-10-26T13:34:10Z</time>
      </trkpt>
      <trkpt lat="45.580726331099868" lon="7.963391812518239">
        <ele>717.13999999999999</ele>
        <time>2019-10-26T13:34:24Z</time>
      </trkpt>
      <trkpt lat="45.580589035525918" lon="7.963472027331591">
        <ele>717.55999999999995</ele>
        <time>2019-10-26T13:34:37Z</time>
      </trkpt>
      <trkpt lat="45.580485099926591" lon="7.963586188852787">
        <ele>717.32000000000005</ele>
        <time>2019-10-26T13:34:50Z</time>
      </trkpt>
      <trkpt lat="45.580387534573674" lon="7.963678222149611">
        <ele>715.98000000000002</ele>
        <time>2019-10-26T13:35:01Z</time>
      </trkpt>
      <trkpt lat="45.580285862088203" lon="7.96377738006413">
        <ele>715.45000000000005</ele>
        <time>2019-10-26T13:35:13Z</time>
      </trkpt>
      <trkpt lat="45.580239677801728" lon="7.963905120268464">
        <ele>715.25</ele>
        <time>2019-10-26T13:35:22Z</time>
      </trkpt>
      <trkpt lat="45.58019726537168" lon="7.964122714474797">
        <ele>715.09000000000003</ele>
        <time>2019-10-26T13:35:34Z</time>
      </trkpt>
      <trkpt lat="45.580159379169345" lon="7.964271325618029">
        <ele>715.00999999999999</ele>
        <time>2019-10-26T13:35:45Z</time>
      </trkpt>
      <trkpt lat="45.580098778009415" lon="7.96448296867311">
        <ele>714.88</ele>
        <time>2019-10-26T13:35:58Z</time>
      </trkpt>
      <trkpt lat="45.580080421641469" lon="7.964596962556243">
        <ele>714.5</ele>
        <time>2019-10-26T13:36:05Z</time>
      </trkpt>
      <trkpt lat="45.580078661441803" lon="7.964612385258079">
        <ele>714.52999999999997</ele>
        <time>2019-10-26T13:36:06Z</time>
      </trkpt>
      <trkpt lat="45.580075392499566" lon="7.964627388864756">
        <ele>714.72000000000003</ele>
        <time>2019-10-26T13:36:07Z</time>
      </trkpt>
      <trkpt lat="45.580071033909917" lon="7.964642392471433">
        <ele>714.78999999999996</ele>
        <time>2019-10-26T13:36:08Z</time>
      </trkpt>
      <trkpt lat="45.580066675320268" lon="7.96465739607811">
        <ele>714.79999999999995</ele>
        <time>2019-10-26T13:36:09Z</time>
      </trkpt>
      <trkpt lat="45.580063322558999" lon="7.964672399684787">
        <ele>714.90999999999997</ele>
        <time>2019-10-26T13:36:10Z</time>
      </trkpt>
      <trkpt lat="45.580023508518934" lon="7.964865937829018">
        <ele>715.03999999999996</ele>
        <time>2019-10-26T13:36:22Z</time>
      </trkpt>
      <trkpt lat="45.580002889037132" lon="7.965061739087105">
        <ele>715.46000000000004</ele>
        <time>2019-10-26T13:36:34Z</time>
      </trkpt>
      <trkpt lat="45.579978749155998" lon="7.965263072401285">
        <ele>715.60000000000002</ele>
        <time>2019-10-26T13:36:47Z</time>
      </trkpt>
      <trkpt lat="45.579932481050491" lon="7.965459376573563">
        <ele>716.12</ele>
        <time>2019-10-26T13:37:00Z</time>
      </trkpt>
      <trkpt lat="45.579888559877872" lon="7.965636402368546">
        <ele>716.88999999999999</ele>
        <time>2019-10-26T13:37:13Z</time>
      </trkpt>
      <trkpt lat="45.579836089164019" lon="7.965709241107106">
        <ele>716.86000000000001</ele>
        <time>2019-10-26T13:37:19Z</time>
      </trkpt>
      <trkpt lat="45.57982200756669" lon="7.965720389038324">
        <ele>716.80999999999995</ele>
        <time>2019-10-26T13:37:20Z</time>
      </trkpt>
      <trkpt lat="45.579772219061852" lon="7.965796664357185">
        <ele>717.02999999999997</ele>
        <time>2019-10-26T13:37:25Z</time>
      </trkpt>
      <trkpt lat="45.579760149121284" lon="7.965806052088738">
        <ele>717.14999999999998</ele>
        <time>2019-10-26T13:37:26Z</time>
      </trkpt>
      <trkpt lat="45.579647915437818" lon="7.965874616056681">
        <ele>717.40999999999997</ele>
        <time>2019-10-26T13:37:37Z</time>
      </trkpt>
      <trkpt lat="45.57962603867054" lon="7.965908143669367">
        <ele>717.38999999999999</ele>
        <time>2019-10-26T13:37:40Z</time>
      </trkpt>
      <trkpt lat="45.579575495794415" lon="7.966068321838975">
        <ele>717.95000000000005</ele>
        <time>2019-10-26T13:37:51Z</time>
      </trkpt>
      <trkpt lat="45.579572981223464" lon="7.966130431741476">
        <ele>717.72000000000003</ele>
        <time>2019-10-26T13:37:55Z</time>
      </trkpt>
      <trkpt lat="45.57959477417171" lon="7.966289352625608">
        <ele>718.19000000000005</ele>
        <time>2019-10-26T13:38:05Z</time>
      </trkpt>
      <trkpt lat="45.579577758908272" lon="7.966563859954476">
        <ele>717.95000000000005</ele>
        <time>2019-10-26T13:38:18Z</time>
      </trkpt>
      <trkpt lat="45.579445576295257" lon="7.966709034517407">
        <ele>717.29999999999995</ele>
        <time>2019-10-26T13:38:30Z</time>
      </trkpt>
      <trkpt lat="45.579348597675562" lon="7.966692186892033">
        <ele>717.07000000000005</ele>
        <time>2019-10-26T13:38:39Z</time>
      </trkpt>
      <trkpt lat="45.579228568822145" lon="7.966627813875675">
        <ele>717.27999999999997</ele>
        <time>2019-10-26T13:38:50Z</time>
      </trkpt>
      <trkpt lat="45.579218175262213" lon="7.966615492478013">
        <ele>717.40999999999997</ele>
        <time>2019-10-26T13:38:51Z</time>
      </trkpt>
      <trkpt lat="45.579208116978407" lon="7.96660702675581">
        <ele>717.37</ele>
        <time>2019-10-26T13:38:52Z</time>
      </trkpt>
      <trkpt lat="45.579197807237506" lon="7.966594956815243">
        <ele>717.26999999999998</ele>
        <time>2019-10-26T13:38:53Z</time>
      </trkpt>
      <trkpt lat="45.579178361222148" lon="7.966588754206896">
        <ele>717.19000000000005</ele>
        <time>2019-10-26T13:38:55Z</time>
      </trkpt>
      <trkpt lat="45.579146929085255" lon="7.966561848297715">
        <ele>717.26999999999998</ele>
        <time>2019-10-26T13:38:58Z</time>
      </trkpt>
      <trkpt lat="45.579082723706961" lon="7.966502169147134">
        <ele>717.37</ele>
        <time>2019-10-26T13:39:05Z</time>
      </trkpt>
      <trkpt lat="45.579071575775743" lon="7.966494625434279">
        <ele>717.47000000000003</ele>
        <time>2019-10-26T13:39:06Z</time>
      </trkpt>
      <trkpt lat="45.578876864165068" lon="7.966514239087701">
        <ele>717.34000000000003</ele>
        <time>2019-10-26T13:39:21Z</time>
      </trkpt>
      <trkpt lat="45.578727917745709" lon="7.966643488034606">
        <ele>717.32000000000005</ele>
        <time>2019-10-26T13:39:35Z</time>
      </trkpt>
      <trkpt lat="45.578684583306313" lon="7.966887820512056">
        <ele>716.40999999999997</ele>
        <time>2019-10-26T13:39:49Z</time>
      </trkpt>
      <trkpt lat="45.578736634925008" lon="7.967099715024233">
        <ele>715.38</ele>
        <time>2019-10-26T13:40:02Z</time>
      </trkpt>
      <trkpt lat="45.578799918293953" lon="7.967364247888327">
        <ele>714.10000000000002</ele>
        <time>2019-10-26T13:40:18Z</time>
      </trkpt>
      <trkpt lat="45.578788183629513" lon="7.967586955055594">
        <ele>713.46000000000004</ele>
        <time>2019-10-26T13:40:30Z</time>
      </trkpt>
      <trkpt lat="45.578738478943706" lon="7.967987107113004">
        <ele>712.42999999999995</ele>
        <time>2019-10-26T13:40:51Z</time>
      </trkpt>
      <trkpt lat="45.578703861683607" lon="7.968285502865911">
        <ele>712.63999999999999</ele>
        <time>2019-10-26T13:41:08Z</time>
      </trkpt>
      <trkpt lat="45.578640913590789" lon="7.968548610806465">
        <ele>713.01999999999998</ele>
        <time>2019-10-26T13:41:23Z</time>
      </trkpt>
      <trkpt lat="45.578507054597139" lon="7.968704262748361">
        <ele>713.25</ele>
        <time>2019-10-26T13:41:38Z</time>
      </trkpt>
      <trkpt lat="45.578400520607829" lon="7.968775676563382">
        <ele>713.39999999999998</ele>
        <time>2019-10-26T13:41:48Z</time>
      </trkpt>
      <trkpt lat="45.578339667990804" lon="7.968866284936667">
        <ele>713.28999999999996</ele>
        <time>2019-10-26T13:41:57Z</time>
      </trkpt>
      <trkpt lat="45.578318545594811" lon="7.969036102294922">
        <ele>712.98000000000002</ele>
        <time>2019-10-26T13:42:09Z</time>
      </trkpt>
      <trkpt lat="45.578227685764432" lon="7.969161495566368">
        <ele>712.44000000000005</ele>
        <time>2019-10-26T13:42:20Z</time>
      </trkpt>
      <trkpt lat="45.578085193410516" lon="7.969343718141317">
        <ele>710.60000000000002</ele>
        <time>2019-10-26T13:42:33Z</time>
      </trkpt>
      <trkpt lat="45.577951585873961" lon="7.9694879706949">
        <ele>709.01999999999998</ele>
        <time>2019-10-26T13:42:46Z</time>
      </trkpt>
      <trkpt lat="45.577840022742748" lon="7.969591906294227">
        <ele>707.13999999999999</ele>
        <time>2019-10-26T13:42:59Z</time>
      </trkpt>
      <trkpt lat="45.57773700915277" lon="7.969703637063503">
        <ele>705.02999999999997</ele>
        <time>2019-10-26T13:43:11Z</time>
      </trkpt>
      <trkpt lat="45.577673641964793" lon="7.969816038385034">
        <ele>702</ele>
        <time>2019-10-26T13:43:21Z</time>
      </trkpt>
      <trkpt lat="45.577611867338419" lon="7.969931289553642">
        <ele>698.82000000000005</ele>
        <time>2019-10-26T13:43:32Z</time>
      </trkpt>
      <trkpt lat="45.57754154317081" lon="7.970013180747628">
        <ele>696.80999999999995</ele>
        <time>2019-10-26T13:43:42Z</time>
      </trkpt>
      <trkpt lat="45.577510865405202" lon="7.970083504915237">
        <ele>696.03999999999996</ele>
        <time>2019-10-26T13:43:47Z</time>
      </trkpt>
      <trkpt lat="45.577487898990512" lon="7.970301434397697">
        <ele>694.76999999999998</ele>
        <time>2019-10-26T13:44:00Z</time>
      </trkpt>
      <trkpt lat="45.577471135184169" lon="7.970505030825734">
        <ele>694.04999999999995</ele>
        <time>2019-10-26T13:44:11Z</time>
      </trkpt>
      <trkpt lat="45.57747264392674" lon="7.97056739218533">
        <ele>693.94000000000005</ele>
        <time>2019-10-26T13:44:15Z</time>
      </trkpt>
      <trkpt lat="45.577466860413551" lon="7.970581641420722">
        <ele>694.13999999999999</ele>
        <time>2019-10-26T13:44:16Z</time>
      </trkpt>
      <trkpt lat="45.577446660026908" lon="7.970634950324893">
        <ele>693.98000000000002</ele>
        <time>2019-10-26T13:44:21Z</time>
      </trkpt>
      <trkpt lat="45.577343143522739" lon="7.970674764364958">
        <ele>693.69000000000005</ele>
        <time>2019-10-26T13:44:28Z</time>
      </trkpt>
      <trkpt lat="45.577180618420243" lon="7.970725139603019">
        <ele>693.94000000000005</ele>
        <time>2019-10-26T13:44:40Z</time>
      </trkpt>
      <trkpt lat="45.577030163258314" lon="7.970873080193996">
        <ele>693.50999999999999</ele>
        <time>2019-10-26T13:44:54Z</time>
      </trkpt>
      <trkpt lat="45.576918348670006" lon="7.9710110463202">
        <ele>693.09000000000003</ele>
        <time>2019-10-26T13:45:07Z</time>
      </trkpt>
      <trkpt lat="45.576810641214252" lon="7.971117161214352">
        <ele>692.62</ele>
        <time>2019-10-26T13:45:20Z</time>
      </trkpt>
      <trkpt lat="45.576739562675357" lon="7.971203159540892">
        <ele>692.70000000000005</ele>
        <time>2019-10-26T13:45:27Z</time>
      </trkpt>
      <trkpt lat="45.576731348410249" lon="7.971220845356584">
        <ele>692.63</ele>
        <time>2019-10-26T13:45:28Z</time>
      </trkpt>
      <trkpt lat="45.576721290126443" lon="7.971232831478119">
        <ele>692.67999999999995</ele>
        <time>2019-10-26T13:45:29Z</time>
      </trkpt>
      <trkpt lat="45.576710812747478" lon="7.971246493980289">
        <ele>692.72000000000003</ele>
        <time>2019-10-26T13:45:30Z</time>
      </trkpt>
      <trkpt lat="45.576700251549482" lon="7.971264012157917">
        <ele>692.71000000000004</ele>
        <time>2019-10-26T13:45:31Z</time>
      </trkpt>
      <trkpt lat="45.576661191880703" lon="7.971338694915175">
        <ele>692.78999999999996</ele>
        <time>2019-10-26T13:45:37Z</time>
      </trkpt>
      <trkpt lat="45.57665565982461" lon="7.971352692693472">
        <ele>692.78999999999996</ele>
        <time>2019-10-26T13:45:38Z</time>
      </trkpt>
      <trkpt lat="45.576648786664009" lon="7.9713667742908">
        <ele>692.88999999999999</ele>
        <time>2019-10-26T13:45:39Z</time>
      </trkpt>
      <trkpt lat="45.576643086969852" lon="7.971380688250065">
        <ele>692.90999999999997</ele>
        <time>2019-10-26T13:45:40Z</time>
      </trkpt>
      <trkpt lat="45.576636716723442" lon="7.971391584724188">
        <ele>692.87</ele>
        <time>2019-10-26T13:45:41Z</time>
      </trkpt>
      <trkpt lat="45.576629256829619" lon="7.971404911950231">
        <ele>692.76999999999998</ele>
        <time>2019-10-26T13:45:42Z</time>
      </trkpt>
      <trkpt lat="45.576620455831289" lon="7.971421256661415">
        <ele>692.69000000000005</ele>
        <time>2019-10-26T13:45:43Z</time>
      </trkpt>
      <trkpt lat="45.576611068099737" lon="7.971435924991965">
        <ele>692.73000000000002</ele>
        <time>2019-10-26T13:45:44Z</time>
      </trkpt>
      <trkpt lat="45.576601848006248" lon="7.971447240561247">
        <ele>692.53999999999996</ele>
        <time>2019-10-26T13:45:45Z</time>
      </trkpt>
      <trkpt lat="45.576591035351157" lon="7.971456628292799">
        <ele>692.61000000000001</ele>
        <time>2019-10-26T13:45:46Z</time>
      </trkpt>
      <trkpt lat="45.576580390334129" lon="7.971466351300478">
        <ele>692.52999999999997</ele>
        <time>2019-10-26T13:45:47Z</time>
      </trkpt>
      <trkpt lat="45.576568907126784" lon="7.971476828679442">
        <ele>692.49000000000001</ele>
        <time>2019-10-26T13:45:48Z</time>
      </trkpt>
      <trkpt lat="45.576556334272027" lon="7.971488395705819">
        <ele>692.37</ele>
        <time>2019-10-26T13:45:49Z</time>
      </trkpt>
      <trkpt lat="45.576447872444987" lon="7.97158814035356">
        <ele>691.94000000000005</ele>
        <time>2019-10-26T13:46:01Z</time>
      </trkpt>
      <trkpt lat="45.576443430036306" lon="7.971596103161573">
        <ele>691.95000000000005</ele>
        <time>2019-10-26T13:46:02Z</time>
      </trkpt>
      <trkpt lat="45.576390624046326" lon="7.971617644652724">
        <ele>691.48000000000002</ele>
        <time>2019-10-26T13:46:11Z</time>
      </trkpt>
      <trkpt lat="45.576364388689399" lon="7.971642455086112">
        <ele>691.48000000000002</ele>
        <time>2019-10-26T13:46:14Z</time>
      </trkpt>
      <trkpt lat="45.576353492215276" lon="7.971651339903474">
        <ele>691.15999999999997</ele>
        <time>2019-10-26T13:46:15Z</time>
      </trkpt>
      <trkpt lat="45.576221225783229" lon="7.971772626042366">
        <ele>688.47000000000003</ele>
        <time>2019-10-26T13:46:28Z</time>
      </trkpt>
      <trkpt lat="45.576215190812945" lon="7.971784444525838">
        <ele>688.23000000000002</ele>
        <time>2019-10-26T13:46:29Z</time>
      </trkpt>
      <trkpt lat="45.576206557452679" lon="7.971796933561564">
        <ele>688.10000000000002</ele>
        <time>2019-10-26T13:46:30Z</time>
      </trkpt>
      <trkpt lat="45.576196415349841" lon="7.971808668226004">
        <ele>687.90999999999997</ele>
        <time>2019-10-26T13:46:31Z</time>
      </trkpt>
      <trkpt lat="45.576187865808606" lon="7.971820402890444">
        <ele>687.73000000000002</ele>
        <time>2019-10-26T13:46:32Z</time>
      </trkpt>
      <trkpt lat="45.576180154457688" lon="7.971832389011979">
        <ele>687.5</ele>
        <time>2019-10-26T13:46:33Z</time>
      </trkpt>
      <trkpt lat="45.576162971556187" lon="7.971855103969574">
        <ele>687.03999999999996</ele>
        <time>2019-10-26T13:46:35Z</time>
      </trkpt>
      <trkpt lat="45.576152997091413" lon="7.971862563863397">
        <ele>686.79999999999995</ele>
        <time>2019-10-26T13:46:36Z</time>
      </trkpt>
      <trkpt lat="45.576144112274051" lon="7.971872286871076">
        <ele>686.67999999999995</ele>
        <time>2019-10-26T13:46:37Z</time>
      </trkpt>
      <trkpt lat="45.57613430544734" lon="7.971882093697786">
        <ele>686.41999999999996</ele>
        <time>2019-10-26T13:46:38Z</time>
      </trkpt>
      <trkpt lat="45.576124833896756" lon="7.971889469772577">
        <ele>686.35000000000002</ele>
        <time>2019-10-26T13:46:39Z</time>
      </trkpt>
      <trkpt lat="45.575989298522472" lon="7.971967253834009">
        <ele>683.59000000000003</ele>
        <time>2019-10-26T13:46:52Z</time>
      </trkpt>
      <trkpt lat="45.575958536937833" lon="7.971985526382923">
        <ele>682.91999999999996</ele>
        <time>2019-10-26T13:46:55Z</time>
      </trkpt>
      <trkpt lat="45.575947305187583" lon="7.971996422857046">
        <ele>682.60000000000002</ele>
        <time>2019-10-26T13:46:56Z</time>
      </trkpt>
      <trkpt lat="45.57593640871346" lon="7.972003128379583">
        <ele>682.33000000000004</ele>
        <time>2019-10-26T13:46:57Z</time>
      </trkpt>
      <trkpt lat="45.575925512239337" lon="7.972007570788264">
        <ele>682.23000000000002</ele>
        <time>2019-10-26T13:46:58Z</time>
      </trkpt>
      <trkpt lat="45.575914699584246" lon="7.972013773396611">
        <ele>682.12</ele>
        <time>2019-10-26T13:46:59Z</time>
      </trkpt>
      <trkpt lat="45.575902881100774" lon="7.972018383443356">
        <ele>681.82000000000005</ele>
        <time>2019-10-26T13:47:00Z</time>
      </trkpt>
      <trkpt lat="45.575891314074397" lon="7.972023915499449">
        <ele>681.65999999999997</ele>
        <time>2019-10-26T13:47:01Z</time>
      </trkpt>
      <trkpt lat="45.57577564381063" lon="7.972117457538843">
        <ele>679.63</ele>
        <time>2019-10-26T13:47:12Z</time>
      </trkpt>
      <trkpt lat="45.575662739574909" lon="7.972320467233658">
        <ele>677.70000000000005</ele>
        <time>2019-10-26T13:47:26Z</time>
      </trkpt>
      <trkpt lat="45.575541034340858" lon="7.972518363967538">
        <ele>675.62</ele>
        <time>2019-10-26T13:47:40Z</time>
      </trkpt>
      <trkpt lat="45.575422430410981" lon="7.97267384827137">
        <ele>673.67999999999995</ele>
        <time>2019-10-26T13:47:51Z</time>
      </trkpt>
      <trkpt lat="45.575344227254391" lon="7.972677787765861">
        <ele>672.49000000000001</ele>
        <time>2019-10-26T13:47:57Z</time>
      </trkpt>
      <trkpt lat="45.575332660228014" lon="7.972668148577213">
        <ele>672.22000000000003</ele>
        <time>2019-10-26T13:47:58Z</time>
      </trkpt>
      <trkpt lat="45.575124369934201" lon="7.972534624859691">
        <ele>671.14999999999998</ele>
        <time>2019-10-26T13:48:15Z</time>
      </trkpt>
      <trkpt lat="45.574922114610672" lon="7.972492296248674">
        <ele>669.5</ele>
        <time>2019-10-26T13:48:30Z</time>
      </trkpt>
      <trkpt lat="45.574860088527203" lon="7.972313677892089">
        <ele>667.82000000000005</ele>
        <time>2019-10-26T13:48:42Z</time>
      </trkpt>
      <trkpt lat="45.574847850948572" lon="7.972138915210962">
        <ele>666.5</ele>
        <time>2019-10-26T13:48:51Z</time>
      </trkpt>
      <trkpt lat="45.574836451560259" lon="7.972129108384252">
        <ele>666.21000000000004</ele>
        <time>2019-10-26T13:48:52Z</time>
      </trkpt>
      <trkpt lat="45.574750620871782" lon="7.972146375104785">
        <ele>665.74000000000001</ele>
        <time>2019-10-26T13:48:59Z</time>
      </trkpt>
      <trkpt lat="45.574559094384313" lon="7.972352653741837">
        <ele>664.25</ele>
        <time>2019-10-26T13:49:18Z</time>
      </trkpt>
      <trkpt lat="45.574432695284486" lon="7.972462624311447">
        <ele>663.41999999999996</ele>
        <time>2019-10-26T13:49:30Z</time>
      </trkpt>
      <trkpt lat="45.574379805475473" lon="7.972476538270712">
        <ele>663.01999999999998</ele>
        <time>2019-10-26T13:49:34Z</time>
      </trkpt>
      <trkpt lat="45.574193140491843" lon="7.972674854099751">
        <ele>661.25</ele>
        <time>2019-10-26T13:49:52Z</time>
      </trkpt>
      <trkpt lat="45.574081242084503" lon="7.972892196848989">
        <ele>659.71000000000004</ele>
        <time>2019-10-26T13:50:07Z</time>
      </trkpt>
      <trkpt lat="45.574043691158295" lon="7.972944583743811">
        <ele>659.13</ele>
        <time>2019-10-26T13:50:11Z</time>
      </trkpt>
      <trkpt lat="45.573992477729917" lon="7.972894627600908">
        <ele>657.91999999999996</ele>
        <time>2019-10-26T13:50:16Z</time>
      </trkpt>
      <trkpt lat="45.573968086391687" lon="7.972596818581224">
        <ele>655.89999999999998</ele>
        <time>2019-10-26T13:50:32Z</time>
      </trkpt>
      <trkpt lat="45.573980156332254" lon="7.972346199676395">
        <ele>654.58000000000004</ele>
        <time>2019-10-26T13:50:45Z</time>
      </trkpt>
      <trkpt lat="45.573956519365311" lon="7.972151152789593">
        <ele>653.26999999999998</ele>
        <time>2019-10-26T13:50:55Z</time>
      </trkpt>
      <trkpt lat="45.573929864913225" lon="7.972007822245359">
        <ele>651.92999999999995</ele>
        <time>2019-10-26T13:51:05Z</time>
      </trkpt>
      <trkpt lat="45.573724256828427" lon="7.972071776166558">
        <ele>649.45000000000005</ele>
        <time>2019-10-26T13:51:20Z</time>
      </trkpt>
      <trkpt lat="45.573641359806061" lon="7.97209482640028">
        <ele>648.75</ele>
        <time>2019-10-26T13:51:26Z</time>
      </trkpt>
      <trkpt lat="45.573562989011407" lon="7.972113350406289">
        <ele>647.97000000000003</ele>
        <time>2019-10-26T13:51:32Z</time>
      </trkpt>
      <trkpt lat="45.573360398411751" lon="7.972187614068389">
        <ele>646.17999999999995</ele>
        <time>2019-10-26T13:51:48Z</time>
      </trkpt>
      <trkpt lat="45.573150683194399" lon="7.972327088937163">
        <ele>644.38999999999999</ele>
        <time>2019-10-26T13:52:04Z</time>
      </trkpt>
      <trkpt lat="45.573071977123618" lon="7.972418200224638">
        <ele>642.75</ele>
        <time>2019-10-26T13:52:15Z</time>
      </trkpt>
      <trkpt lat="45.572971059009433" lon="7.972585586830974">
        <ele>641.69000000000005</ele>
        <time>2019-10-26T13:52:26Z</time>
      </trkpt>
      <trkpt lat="45.572914313524961" lon="7.972635626792908">
        <ele>641.74000000000001</ele>
        <time>2019-10-26T13:52:31Z</time>
      </trkpt>
      <trkpt lat="45.572810377925634" lon="7.972726067528129">
        <ele>641.39999999999998</ele>
        <time>2019-10-26T13:52:40Z</time>
      </trkpt>
      <trkpt lat="45.572685655206442" lon="7.97283411026001">
        <ele>640.94000000000005</ele>
        <time>2019-10-26T13:52:53Z</time>
      </trkpt>
      <trkpt lat="45.572637878358364" lon="7.973075928166509">
        <ele>640.39999999999998</ele>
        <time>2019-10-26T13:53:07Z</time>
      </trkpt>
      <trkpt lat="45.572572248056531" lon="7.973299138247967">
        <ele>639.25</ele>
        <time>2019-10-26T13:53:21Z</time>
      </trkpt>
      <trkpt lat="45.57246764190495" lon="7.973518157377839">
        <ele>637.44000000000005</ele>
        <time>2019-10-26T13:53:36Z</time>
      </trkpt>
      <trkpt lat="45.572371669113636" lon="7.973817894235253">
        <ele>636.34000000000003</ele>
        <time>2019-10-26T13:53:53Z</time>
      </trkpt>
      <trkpt lat="45.572381475940347" lon="7.97410698607564">
        <ele>636.14999999999998</ele>
        <time>2019-10-26T13:54:09Z</time>
      </trkpt>
      <trkpt lat="45.572384661063552" lon="7.974119558930397">
        <ele>636.15999999999997</ele>
        <time>2019-10-26T13:54:10Z</time>
      </trkpt>
      <trkpt lat="45.572516676038504" lon="7.974111177027226">
        <ele>636.78999999999996</ele>
        <time>2019-10-26T13:54:23Z</time>
      </trkpt>
      <trkpt lat="45.572528326883912" lon="7.974092988297343">
        <ele>635.98000000000002</ele>
        <time>2019-10-26T13:54:34Z</time>
      </trkpt>
      <trkpt lat="45.572534613311291" lon="7.974095586687326">
        <ele>636.01999999999998</ele>
        <time>2019-10-26T13:54:59Z</time>
      </trkpt>
      <trkpt lat="45.572544923052192" lon="7.974095167592168">
        <ele>636.50999999999999</ele>
        <time>2019-10-26T13:55:19Z</time>
      </trkpt>
    </trkseg>
  </trk>

</gpx>